[[{"header":{"parameterUnit":"m.s-1","parameterCategory":1,"la1":31.0,"la2":29.5877,"lo1":-88.7671,"lo2":-86.6584,"dy":0.0162,"dx":0.0185,"nx":115,"ny":88,"refTime":"2024-09-01T06:00:00:Z","depth":0,"parameterNumber":2,"parameterNumberName":"U-component_of_WINDS"},"data":[0.0,0.0,0.0,0.0,0.0,0.0,0.0,0.0,0.0,0.0,0.0,0.0,0.0,0.0,0.0,0.0,0.0,0.0,0.0,0.0,0.0,0.0,0.0,0.0,0.0,0.0,0.0,0.0,0.0,0.0,0.0,0.0,0.0,0.0,0.0,0.0,0.0,0.0,0.0,0.0,0.0,0.0,0.0,0.0,0.0,0.0,0.0,0.0,0.0,0.0,0.0,0.0,0.0,0.0,0.0,0.0,0.0,0.0,0.0,0.0,0.0,0.0,0.0,0.0,0.0,0.0,0.0,0.0,0.0,0.0,0.0,0.0,0.0,0.0,0.0,0.0,0.0,0.0,0.0,0.0,0.0,0.0,0.0,0.0,0.0,0.0,0.0,0.0,0.0,0.0,0.0,0.0,0.0,0.0,0.0,0.0,0.0,0.0,0.0,0.0,0.0,0.0,0.0,0.0,0.0,0.0,0.0,0.0,0.0,0.0,0.0,0.0,0.0,0.0,0.0,0.0,0.0,0.0,0.0,0.0,0.0,0.0,0.0,0.0,0.0,0.0,0.0,0.0,0.0,0.0,0.0,0.0,0.0,0.0,0.0,0.0,0.0,0.0,0.0,0.0,0.0,0.0,0.0,0.0,0.0,0.0,0.0,0.0,0.0,0.0,0.0,0.0,0.0,0.0,0.0,0.0,0.0,0.0,0.0,0.0,0.0,0.0,0.0,0.0,0.0,0.0,0.0,0.0,0.0,0.0,0.0,0.0,0.0,0.0,0.0,0.0,0.0,0.0,0.0,0.0,0.0,0.0,0.0,0.0,0.0,0.0,0.0,0.0,0.0,0.0,0.0,0.0,0.0,0.0,0.0,0.0,0.0,0.0,0.0,0.0,0.0,0.0,0.0,0.0,0.0,0.0,0.0,0.0,0.0,0.0,0.0,0.0,0.0,0.0,0.0,0.0,0.0,0.0,0.0,0.0,0.0,0.0,0.0,0.0,0.0,0.0,0.0,0.0,0.0,0.0,0.0,0.0,0.0,0.0,0.0,0.0,0.0,0.0,0.0,0.0,0.0,0.0,0.0,0.0,0.0,0.0,0.0,0.0,0.0,0.0,0.0,0.0,0.0,0.0,0.0,0.0,0.0,0.0,0.0,0.0,0.0,0.0,0.0,0.0,0.0,0.0,0.0,0.0,0.0,0.0,0.0,0.0,0.0,0.0,0.0,0.0,0.0,0.0,0.0,0.0,0.0,0.0,0.0,0.0,0.0,0.0,0.0,0.0,0.0,0.0,0.0,0.0,0.0,0.0,0.0,0.0,0.0,0.0,0.0,0.0,0.0,0.0,0.0,0.0,0.0,0.0,0.0,0.0,0.0,0.0,0.0,0.0,0.0,0.0,0.0,0.0,0.0,0.0,0.0,0.0,0.0,0.0,0.0,0.0,0.0,0.0,0.0,0.0,0.0,0.0,0.0,0.0,0.0,0.0,0.0,0.0,0.0,0.0,0.0,0.0,0.0,0.0,0.0,0.0,0.0,0.0,0.0,0.0,0.0,0.0,0.0,0.0,0.0,0.0,0.0,0.0,0.0,0.0,0.0,0.0,0.0,0.0,0.0,0.0,0.0,0.0,0.0,0.0,0.0,0.0,0.0,0.0,0.0,0.0,0.0,0.0,0.0,0.0,0.0,0.0,0.0,0.0,0.0,0.0,0.0,0.0,0.0,0.0,0.0,0.0,0.0,0.0,0.0,0.0,0.0,0.0,0.0,0.0,0.0,0.0,0.0,0.0,0.0,0.0,0.0,0.0,0.0,0.0,0.0,0.0,0.0,0.0,0.0,0.0,0.0,0.0,0.0,0.0,0.0,0.0,0.0,0.0,0.0,0.0,0.0,0.0,0.0,0.0,0.0,0.0,0.0,0.0,0.0,0.0,0.0,0.0,0.0,0.0,0.0,0.0,0.0,0.0,0.0,0.0,0.0,0.0,0.0,0.0,0.0,0.0,0.0,0.0,0.0,0.0,0.0,0.0,0.0,0.0,0.0,0.0,0.0,0.0,0.0,0.0,0.0,0.0,0.0,0.0,0.0,0.0,0.0,0.0,0.0,0.0,0.0,0.0,0.0,0.0,0.0,0.0,0.0,0.0,0.0,0.0,0.0,0.0,0.0,0.0,0.0,0.0,0.0,0.0,0.0,0.0,0.0,0.0,0.0,0.0,0.0,0.0,0.0,0.0,0.0,0.0,0.0,0.0,0.0,0.0,0.0,0.0,0.0,0.0,0.0,0.0,0.0,0.0,0.0,0.0,0.0,0.0,0.0,0.0,0.0,0.0,0.0,0.0,0.0,0.0,0.0,0.0,0.0,0.0,0.0,0.0,0.0,0.0,0.0,0.0,0.0,0.0,0.0,0.0,0.0,0.0,0.0,0.0,0.0,0.0,0.0,0.0,0.0,0.0,0.0,0.0,0.0,0.0,0.0,0.0,0.0,0.0,0.0,0.0,0.0,0.0,0.0,0.0,0.0,0.0,0.0,0.0,0.0,0.0,0.0,0.0,0.0,0.0,0.0,0.0,0.0,0.0,0.0,0.0,0.0,0.0,0.0,0.0,0.0,0.0,0.0,0.0,0.0,0.0,0.0,0.0,0.0,0.0,0.0,0.0,0.0,0.0,0.0,0.0,0.0,0.0,0.0,0.0,0.0,0.0,0.0,0.0,0.0,0.0,0.0,0.0,0.0,0.0,0.0,0.0,0.0,0.0,0.0,0.0,0.0,0.0,0.0,0.0,0.0,0.0,0.0,0.0,0.0,0.0,0.0,0.0,0.0,0.0,0.0,0.0,0.0,0.0,0.0,0.0,0.0,0.0,0.0,0.0,0.0,0.0,0.0,0.0,0.0,0.0,0.0,0.0,0.0,0.0,0.0,0.0,0.0,0.0,0.0,0.0,0.0,0.0,0.0,0.0,0.0,0.0,0.0,0.0,0.0,0.0,0.0,0.0,0.0,0.0,0.0,0.0,0.0,0.0,0.0,0.0,0.0,0.0,0.0,0.0,0.0,0.0,0.0,0.0,0.0,0.0,0.0,0.0,0.0,0.0,0.0,0.0,0.0,0.0,0.0,0.0,0.0,0.0,0.0,0.0,0.0,0.0,0.0,0.0,0.0,0.0,0.0,0.0,0.0,0.0,0.0,0.0,0.0,0.0,0.0,0.0,0.0,0.0,0.0,0.0,0.0,0.0,0.0,0.0,0.0,0.0,0.0,0.0,0.0,0.0,0.0,0.0,0.0,0.0,0.0,0.0,0.0,0.0,0.0,0.0,0.0,0.0,0.0,0.0,0.0,0.0,0.0,0.0,0.0,0.0,0.0,0.0,0.0,0.0,0.0,0.0,0.0,0.0,0.0,0.0,0.0,0.0,0.0,0.0,0.0,0.0,0.0,0.0,0.0,0.0,0.0,0.0,0.0,0.0,0.0,0.0,0.0,0.0,0.0,0.0,0.0,0.0,0.0,0.0,0.0,0.0,0.0,0.0,0.0,0.0,0.0,0.0,0.0,0.0,0.0,0.0,0.0,0.0,0.0,0.0,0.0,0.0,0.0,0.0,0.0,0.0,0.0,0.0,0.0,0.0,0.0,0.0,0.0,0.0,0.0,0.0,0.0,0.0,0.0,0.0,0.0,0.0,0.0,0.0,0.0,0.0,0.0,0.0,0.0,0.0,0.0,0.0,0.0,0.0,0.0,0.0,0.0,0.0,0.0,0.0,0.0,0.0,0.0,0.0,0.0,0.0,0.0,0.0,0.0,0.0,0.0,0.0,0.0,0.0,0.0,0.0,0.0,0.0,0.0,0.0,0.0,0.0,0.0,0.0,0.0,0.0,0.0,0.0,0.0,0.0,0.0,0.0,0.0,0.0,0.0,0.0,0.0,0.0,0.0,0.0,0.0,0.0,0.0,0.0,0.0,0.0,0.0,0.0,0.0,0.0,0.0,0.0,0.0,0.0,0.0,0.0,0.0,0.0,0.0,0.0,0.0,0.0,0.0,0.0,0.0,0.0,0.0,0.0,0.0,0.0,0.0,0.0,0.0,0.0,0.0,0.0,0.0,0.0,0.0,0.0,0.0,0.0,0.0,0.0,0.0,0.0,0.0,0.0,0.0,0.0,0.0,0.0,0.0,0.0,0.0,0.0,0.0,0.0,0.0,0.0,0.0,0.0,0.0,0.0,0.0,0.0,0.0,0.0,0.0,0.0,0.0,0.0,0.0,0.0,0.0,0.0,0.0,0.0,0.0,0.0,1.7086,0.0,0.0,0.0,0.0,0.0,0.0,0.0,0.0,0.0,0.0,0.0,0.0,0.0,0.0,0.0,0.0,0.0,0.0,0.0,0.0,0.0,0.0,0.0,0.0,0.0,0.0,0.0,0.0,0.0,0.0,0.0,0.0,0.0,0.0,0.0,0.0,0.0,0.0,0.0,0.0,0.0,0.0,0.0,0.0,0.0,0.0,0.0,0.0,0.0,0.0,0.0,0.0,0.0,0.0,0.0,0.0,0.0,0.0,0.0,0.0,0.0,0.0,0.0,0.0,0.0,0.0,0.0,0.0,0.0,0.0,0.0,0.0,0.0,0.0,0.0,0.0,0.0,0.0,0.0,0.0,0.0,0.0,0.0,0.0,0.0,0.0,0.0,0.0,0.0,0.0,0.0,0.0,0.0,0.0,0.0,0.0,0.0,0.0,0.0,0.0,0.0,0.0,0.0,0.0,0.0,0.0,0.0,0.0,0.0,0.0,1.7716,1.7604,1.7344,1.7205,1.7159,0.0,0.0,0.0,0.0,0.0,0.0,0.0,0.0,0.0,0.0,0.0,0.0,0.0,0.0,0.0,0.0,0.0,0.0,0.0,0.0,0.0,0.0,0.0,0.0,0.0,0.0,0.0,0.0,0.0,0.0,0.0,0.0,0.0,0.0,0.0,0.0,0.0,0.0,0.0,0.0,0.0,0.0,0.0,0.0,0.0,0.0,0.0,0.0,0.0,0.0,0.0,0.0,0.0,0.0,0.0,0.0,0.0,0.0,0.0,0.0,0.0,0.0,0.0,0.0,0.0,0.0,0.0,0.0,0.0,0.0,0.0,0.0,0.0,0.0,0.0,0.0,0.0,0.0,0.0,0.0,0.0,0.0,0.0,0.0,0.0,0.0,0.0,0.0,0.0,0.0,0.0,0.0,0.0,0.0,0.0,0.0,0.0,0.0,0.0,0.0,0.0,0.0,0.0,0.0,0.0,0.0,0.0,0.0,0.0,0.0,0.0,0.0,1.7115,1.6907,1.6834,0.0,0.0,0.0,0.0,0.0,0.0,0.0,0.0,0.0,0.0,0.0,0.0,0.0,0.0,0.0,0.0,0.0,0.0,0.0,0.0,0.0,0.0,0.0,0.0,0.0,0.0,0.0,0.0,0.0,0.0,0.0,0.0,0.0,0.0,0.0,0.0,0.0,0.0,0.0,0.0,0.0,0.0,0.0,0.0,0.0,0.0,0.0,0.0,0.0,0.0,0.0,0.0,0.0,0.0,0.0,0.0,0.0,0.0,0.0,0.0,0.0,0.0,0.0,0.0,0.0,0.0,0.0,0.0,0.0,0.0,0.0,0.0,0.0,0.0,0.0,0.0,0.0,0.0,0.0,0.0,0.0,0.0,0.0,0.0,0.0,0.0,0.0,0.0,0.0,0.0,0.0,0.0,0.0,0.0,0.0,0.0,0.0,0.0,0.0,0.0,0.0,0.0,0.0,0.0,0.0,0.0,0.0,0.0,0.0,0.0,1.7566,1.723,1.6903,0.0,1.554,0.0,0.0,0.0,0.0,0.0,0.0,0.0,0.0,0.0,0.0,0.0,0.0,0.0,0.0,0.0,0.0,0.0,0.0,0.0,0.0,0.0,0.0,0.0,0.0,0.0,0.0,0.0,0.0,0.0,0.0,0.0,0.0,0.0,0.0,0.0,0.0,0.0,0.0,0.0,0.0,0.0,0.0,0.0,0.0,0.0,0.0,0.0,0.0,0.0,0.0,0.0,0.0,0.0,0.0,0.0,0.0,0.0,0.0,0.0,0.0,0.0,0.0,0.0,0.0,0.0,0.0,0.0,0.0,0.0,0.0,0.0,0.0,0.0,0.0,0.0,0.0,0.0,0.0,0.0,0.0,0.0,0.0,0.0,0.0,0.0,0.0,0.0,0.0,0.0,0.0,0.0,0.0,0.0,0.0,0.0,0.0,0.0,0.0,0.0,0.0,0.0,0.0,0.0,0.0,0.0,0.0,0.0,0.0,0.0,0.0,1.7305,1.7084,1.6724,1.6069,0.0,0.0,0.0,0.0,0.0,0.0,0.0,0.0,0.0,0.0,0.0,0.0,0.0,0.0,0.0,0.0,0.0,0.0,0.0,0.0,0.0,0.0,0.0,0.0,0.0,0.0,0.0,0.0,0.0,0.0,0.0,0.0,0.0,0.0,0.0,0.0,0.0,0.0,0.0,0.0,0.0,0.0,0.0,0.0,0.0,0.0,0.0,0.0,0.0,0.0,0.0,0.0,0.0,0.0,0.0,0.0,0.0,0.0,0.0,0.0,0.0,0.0,0.0,0.0,0.0,0.0,0.0,0.0,0.0,0.0,0.0,0.0,0.0,0.0,0.0,0.0,0.0,0.0,0.0,0.0,0.0,0.0,0.0,0.0,0.0,0.0,0.0,0.0,0.0,0.0,0.0,0.0,0.0,0.0,0.0,0.0,0.0,0.0,0.0,0.0,0.0,0.0,0.0,0.0,0.0,0.0,0.0,0.0,0.0,0.0,1.7282,1.7042,1.6729,1.6442,1.5788,1.4699,0.0,0.0,0.0,0.0,0.0,0.0,0.0,0.0,0.0,0.0,0.0,0.0,0.0,0.0,0.0,0.0,0.0,0.0,0.0,0.0,0.0,0.0,0.0,0.0,0.0,0.0,0.0,0.0,0.0,0.0,0.0,0.0,0.0,0.0,0.0,0.0,0.0,0.0,0.0,0.0,0.0,0.0,0.0,0.0,0.0,0.0,0.0,0.0,0.0,0.0,0.0,0.0,0.0,0.0,0.0,0.0,0.0,0.0,0.0,0.0,0.0,0.0,0.0,0.0,0.0,0.0,0.0,0.0,0.0,0.0,0.0,0.0,0.0,0.0,0.0,0.0,0.0,0.0,0.0,0.0,0.0,0.0,0.0,0.0,0.0,0.0,0.0,0.0,0.0,0.0,0.0,0.0,0.0,0.0,0.0,0.0,0.0,0.0,0.0,0.0,0.0,0.0,0.0,0.0,0.0,0.0,0.0,0.0,1.7206,1.7199,1.6818,1.6088,1.6008,1.5395,0.0,0.0,0.0,0.0,0.0,0.0,0.0,0.0,0.0,0.0,0.0,0.0,0.0,0.0,0.0,0.0,0.0,0.0,0.0,0.0,0.0,0.0,0.0,0.0,0.0,0.0,0.0,0.0,0.0,0.0,0.0,0.0,0.0,0.0,0.0,0.0,0.0,0.0,0.0,0.0,0.0,0.0,0.0,0.0,0.0,0.0,0.0,0.0,0.0,0.0,0.0,0.0,0.0,0.0,0.0,0.0,0.0,0.0,0.0,0.0,0.0,0.0,0.0,0.0,0.0,0.0,0.0,0.0,0.0,0.0,0.0,0.0,0.0,0.0,0.0,0.0,0.0,0.0,0.0,0.0,0.0,0.0,0.0,0.0,0.0,0.0,0.0,0.0,0.0,0.0,0.0,0.0,0.0,0.0,0.0,0.0,0.0,0.0,0.0,0.0,0.0,0.0,0.0,0.0,0.0,0.0,0.0,0.0,0.0,1.7013,1.6716,1.6317,1.5825,1.5566,1.4971,0.0,0.0,0.0,0.0,0.0,0.0,0.0,0.0,0.0,0.0,0.0,0.0,0.0,0.0,0.0,0.0,0.0,0.0,0.0,0.0,0.0,0.0,0.0,0.0,0.0,0.0,0.0,0.0,0.0,0.0,0.0,0.0,0.0,0.0,0.0,0.0,0.0,0.0,0.0,0.0,0.0,0.0,0.0,0.0,0.0,0.0,0.0,0.0,0.0,0.0,0.0,0.0,0.0,0.0,0.0,0.0,0.0,0.0,0.0,0.0,0.0,0.0,0.0,0.0,0.0,0.0,0.0,0.0,0.0,0.0,0.0,0.0,0.0,0.0,0.0,0.0,0.0,0.0,0.0,0.0,0.0,0.0,0.0,0.0,0.0,0.0,0.0,0.0,0.0,0.0,0.0,0.0,0.0,0.0,0.0,0.0,0.0,0.0,0.0,0.0,0.0,0.0,0.0,0.0,0.0,0.0,0.0,0.0,0.0,1.6693,0.0,1.5904,0.0,1.5383,1.4846,0.0,0.0,0.0,0.0,0.0,0.0,0.0,0.0,0.0,0.0,0.0,0.0,0.0,0.0,0.0,0.0,0.0,0.0,0.0,0.0,0.0,0.0,0.0,0.0,0.0,0.0,0.0,0.0,0.0,0.0,0.0,0.0,0.0,0.0,0.0,0.0,0.0,0.0,0.0,0.0,0.0,0.0,0.0,0.0,0.0,0.0,0.0,0.0,0.0,0.0,0.0,0.0,0.0,0.0,0.0,0.0,0.0,0.0,0.0,0.0,0.0,0.0,0.0,0.0,0.0,0.0,0.0,0.0,0.0,0.0,0.0,0.0,0.0,0.0,0.0,0.0,0.0,0.0,0.0,0.0,0.0,0.0,0.0,0.0,0.0,0.0,0.0,0.0,0.0,0.0,0.0,0.0,0.0,0.0,0.0,0.0,0.0,0.0,0.0,0.0,0.0,0.0,0.0,0.0,0.0,0.0,0.0,0.0,1.6695,1.6304,1.5926,1.5606,1.5347,1.5496,1.5035,0.0,0.0,0.0,0.0,0.0,0.0,0.0,0.0,0.0,0.0,0.0,0.0,0.0,0.0,0.0,0.0,0.0,0.0,0.0,0.0,0.0,0.0,0.0,0.0,0.0,0.0,0.0,0.0,0.0,0.0,0.0,0.0,0.0,0.0,0.0,0.0,0.0,0.0,0.0,0.0,0.0,0.0,0.0,0.0,0.0,0.0,0.0,0.0,0.0,0.0,0.0,0.0,0.0,0.0,0.0,0.0,0.0,0.0,0.0,0.0,0.0,0.0,0.0,0.0,0.0,0.0,0.0,0.0,0.0,0.0,0.0,0.0,0.0,0.0,0.0,0.0,0.0,0.0,0.0,0.0,0.0,0.0,0.0,0.0,0.0,0.0,0.0,0.0,0.0,0.0,0.0,0.0,0.0,0.0,0.0,0.0,0.0,0.0,0.0,0.0,0.0,0.0,0.0,0.0,0.0,0.0,0.0,0.0,0.0,1.6378,1.5986,1.5856,1.6043,1.5618,1.506,0.0,0.0,0.0,0.0,0.0,0.0,0.0,0.0,0.0,0.0,0.0,0.0,0.0,0.0,0.0,0.0,0.0,0.0,0.0,0.0,0.0,0.0,0.0,0.0,0.0,0.0,0.0,0.0,0.0,0.0,0.0,0.0,0.0,0.0,0.0,0.0,0.0,0.0,0.0,0.0,0.0,0.0,0.0,0.0,0.0,0.0,0.0,0.0,0.0,0.0,0.0,0.0,0.0,0.0,0.0,0.0,0.0,0.0,0.0,0.0,0.0,0.0,0.0,0.0,0.0,0.0,0.0,0.0,0.0,0.0,0.0,0.0,0.0,0.0,0.0,0.0,0.0,0.0,0.0,0.0,0.0,0.0,0.0,0.0,0.0,0.0,0.0,0.0,0.0,0.0,0.0,0.0,0.0,0.0,0.0,0.0,0.0,0.0,0.0,0.0,0.0,0.0,0.0,0.0,0.0,0.0,0.0,0.0,0.0,1.6618,1.6296,1.6164,1.6321,1.573,1.5173,1.4655,0.0,0.0,0.0,0.0,0.0,0.0,0.0,0.0,0.0,0.0,0.0,0.0,0.0,0.0,0.0,0.0,0.0,0.0,0.0,0.0,0.0,0.0,0.0,0.0,0.0,0.0,0.0,0.0,0.0,0.0,0.0,0.0,0.0,0.0,0.0,0.0,0.0,0.0,0.0,0.0,0.0,0.0,0.0,0.0,0.0,0.0,0.0,0.0,0.0,0.0,0.0,0.0,0.0,0.0,0.0,0.0,0.0,0.0,0.0,0.0,0.0,0.0,0.0,0.0,0.0,0.0,0.0,0.0,0.0,0.0,0.0,0.0,0.0,0.0,0.0,0.0,0.0,0.0,0.0,0.0,0.0,0.0,0.0,0.0,0.0,0.0,0.0,0.0,0.0,0.0,0.0,0.0,0.0,0.0,0.0,0.0,0.0,0.0,0.0,0.0,0.0,0.0,0.0,0.0,0.0,0.0,0.0,0.0,1.7124,1.6871,1.6599,1.6345,1.5899,1.5391,0.0,0.0,0.0,0.0,0.0,0.0,0.0,0.0,0.0,0.0,0.0,0.0,0.0,0.0,0.0,0.0,0.0,0.0,0.0,0.0,0.0,0.0,0.0,0.0,0.0,0.0,0.0,0.0,0.0,0.0,0.0,0.0,0.0,0.0,0.0,0.0,0.0,0.0,0.0,0.0,0.0,0.0,0.0,0.0,0.0,0.0,0.0,0.0,0.0,0.0,0.0,0.0,0.0,0.0,0.0,0.0,0.0,0.0,0.0,0.0,0.0,0.0,0.0,0.0,0.0,0.0,0.0,0.0,0.0,0.0,0.0,0.0,0.0,0.0,0.0,0.0,0.0,0.0,0.0,0.0,0.0,0.0,0.0,0.0,0.0,0.0,0.0,0.0,0.0,0.0,0.0,0.0,0.0,0.0,0.0,0.0,0.0,0.0,0.0,0.0,0.0,0.0,0.0,0.0,0.0,0.0,0.0,0.0,0.0,1.763,1.7935,1.7953,1.7669,1.691,1.6236,0.0,0.0,0.0,0.0,0.0,0.0,0.0,0.0,0.0,0.0,0.0,0.0,0.0,0.0,0.0,0.0,0.0,0.0,0.0,0.0,0.0,0.0,0.0,0.0,0.0,0.0,0.0,0.0,0.0,0.0,0.0,0.0,0.0,0.0,0.0,0.0,0.0,0.0,0.0,0.0,0.0,0.0,0.0,0.0,0.0,0.0,0.0,0.0,0.0,0.0,0.0,0.0,0.0,0.0,0.0,0.0,0.0,0.0,0.0,0.0,0.0,0.0,0.0,0.0,0.0,0.0,0.0,0.0,0.0,0.0,0.0,0.0,0.0,0.0,0.0,0.0,0.0,0.0,0.0,0.0,0.0,0.0,0.0,0.0,0.0,0.0,0.0,0.0,0.0,0.0,0.0,0.0,0.0,0.0,0.0,0.0,0.0,0.0,0.0,0.0,0.0,0.0,0.0,0.0,0.0,0.0,0.0,0.0,1.7118,1.8374,1.8854,1.9028,1.8864,1.7582,1.6584,0.0,0.0,0.0,0.0,0.0,0.0,0.0,0.0,0.0,0.0,0.0,0.0,0.0,0.0,0.0,0.0,0.0,0.0,0.0,0.0,0.0,0.0,0.0,0.0,0.0,0.0,0.0,0.0,0.0,0.0,0.0,0.0,0.0,0.0,0.0,0.0,0.0,0.0,0.0,0.0,0.0,0.0,0.0,0.0,0.0,0.0,0.0,0.0,0.0,0.0,0.0,0.0,0.0,0.0,0.0,0.0,0.0,0.0,0.0,0.0,0.0,0.0,0.0,0.0,0.0,0.0,0.0,0.0,0.0,0.0,0.0,0.0,0.0,0.0,0.0,0.0,0.0,0.0,0.0,0.0,0.0,0.0,0.0,0.0,0.0,0.0,0.0,0.0,0.0,0.0,0.0,0.0,0.0,0.0,0.0,0.0,0.0,0.0,0.0,0.0,0.0,0.0,0.0,0.0,0.0,0.0,0.0,0.0,1.7714,1.9123,1.9533,1.9761,1.9803,1.8097,1.6707,0.0,0.0,0.0,0.0,0.0,0.0,0.0,0.0,0.0,0.0,0.0,0.0,0.0,0.0,0.0,0.0,0.0,0.0,0.0,0.0,0.0,0.0,0.0,0.0,0.0,0.0,0.0,0.0,0.0,0.0,0.0,0.0,0.0,0.0,0.0,0.0,0.0,0.0,0.0,0.0,0.0,0.0,0.0,0.0,0.0,0.0,0.0,0.0,0.0,0.0,0.0,0.0,0.0,0.0,0.0,0.0,0.0,0.0,0.0,0.0,0.0,0.0,0.0,0.0,0.0,0.0,0.0,0.0,0.0,0.0,0.0,0.0,0.0,0.0,0.0,0.0,0.0,0.0,0.0,0.0,0.0,0.0,0.0,0.0,0.0,0.0,0.0,0.0,0.0,0.0,0.0,0.0,0.0,0.0,0.0,0.0,0.0,0.0,0.0,0.0,0.0,0.0,0.0,0.0,0.0,0.0,0.0,0.0,1.7859,1.9585,1.9388,1.9578,2.0265,1.8868,1.7471,0.0,0.0,0.0,0.0,0.0,0.0,0.0,0.0,0.0,0.0,0.0,0.0,0.0,0.0,0.0,0.0,0.0,0.0,0.0,0.0,0.0,0.0,0.0,0.0,0.0,0.0,0.0,0.0,0.0,0.0,0.0,0.0,0.0,0.0,0.0,0.0,0.0,0.0,0.0,0.0,0.0,0.0,0.0,0.0,0.0,0.0,0.0,0.0,0.5853,0.0,0.0,0.0,0.0,0.0,0.0,0.0,0.0,0.0,0.0,0.0,0.0,0.0,0.0,0.0,0.0,0.0,0.0,0.0,0.0,0.0,0.0,0.0,0.0,0.0,0.0,0.0,0.0,0.0,0.0,0.0,0.0,0.0,0.0,0.0,0.0,0.0,0.0,0.0,0.0,0.0,0.0,0.0,0.0,0.0,0.0,0.0,0.0,0.0,0.0,0.0,0.0,0.0,0.0,0.0,0.0,0.0,0.0,0.0,1.8206,1.9772,1.9667,1.9795,2.0188,1.9046,1.7719,0.0,0.0,0.0,0.0,0.0,0.0,0.0,0.0,0.0,0.0,0.0,0.0,0.0,0.0,0.0,0.0,0.0,0.0,0.0,0.0,0.0,0.0,0.0,0.0,0.0,0.0,0.0,0.0,0.0,0.0,0.0,0.0,0.0,0.0,0.0,0.0,0.0,0.0,0.0,0.0,0.0,0.0,0.0,0.0,0.0,0.0,0.0,0.0,0.0,0.0,0.0,0.0,0.0,0.0,0.0,0.0,0.0,0.0,0.0,0.0,0.0,0.0,0.0,0.0,0.0,0.0,0.0,0.0,0.0,0.0,0.0,0.0,0.0,0.0,0.0,0.0,0.0,0.0,0.0,0.0,0.0,0.0,0.0,0.0,0.0,0.0,0.0,0.0,0.0,0.0,0.0,0.0,0.0,0.0,0.0,0.0,0.0,0.0,0.0,0.0,0.0,0.0,0.0,0.0,0.0,0.0,0.0,1.733,1.8549,1.9845,1.9932,1.9953,1.9933,1.8836,1.7523,1.6083,0.0,0.0,0.0,0.0,0.0,0.0,0.0,0.0,0.0,0.0,0.0,0.0,0.0,0.0,0.0,0.0,0.0,0.0,0.0,0.0,0.0,0.0,0.0,0.0,0.0,0.0,0.0,0.0,0.0,0.0,0.0,0.0,0.0,0.0,0.0,0.0,0.0,0.0,0.5615,0.5169,0.0,0.0,0.0,0.0,0.0,0.0,0.0,0.0,0.5091,0.0,0.0,0.0,0.0,0.0,0.0,0.0,0.0,0.0,0.0,0.0,0.0,0.0,0.0,0.0,0.0,0.0,0.0,0.0,0.0,0.0,0.0,0.0,0.0,0.0,0.0,0.0,0.0,0.0,0.0,0.0,0.0,0.0,0.0,0.0,0.0,0.0,0.0,0.0,0.0,0.0,0.0,0.0,0.0,0.0,0.0,0.0,0.0,0.0,0.0,0.0,0.0,0.0,0.0,0.0,0.0,1.6665,1.7492,1.8549,1.9865,1.9533,1.9359,1.9311,1.8075,1.6734,1.5357,0.0,0.0,0.0,0.0,0.0,0.0,0.0,0.0,0.0,0.0,0.0,0.0,0.0,0.0,0.0,0.0,0.0,0.0,0.0,0.0,0.0,0.0,0.0,0.0,0.0,0.0,0.0,0.0,0.0,0.0,0.0,0.0,0.0,0.0,0.0,0.0,0.0,0.0,0.0,0.4647,0.4583,0.0,0.0,0.0,0.0,0.0,0.0,0.0,0.0,0.5418,0.0,0.0,0.0,0.0,0.0,0.0,0.0,0.0,0.0,0.0,0.0,0.0,0.0,0.0,0.0,0.0,0.0,0.0,0.0,0.0,0.0,0.0,0.0,0.0,0.0,0.0,0.0,0.0,0.0,0.0,0.0,0.0,0.0,0.0,0.0,0.0,0.0,0.0,0.0,0.0,0.0,0.0,0.0,0.0,0.0,0.0,0.0,0.0,0.0,0.0,0.0,0.0,0.0,0.0,0.0,1.6528,1.7674,1.8572,1.9203,1.9342,1.9186,1.8751,1.7724,1.6517,0.0,0.0,0.0,0.0,0.0,0.0,0.0,0.0,0.0,0.0,0.0,0.0,0.0,0.0,0.0,0.0,0.0,0.0,0.0,0.0,0.0,0.0,0.0,0.0,0.0,0.0,0.0,0.0,0.0,0.0,0.0,0.0,0.0,0.0,0.0,0.0,0.0,0.0,0.0,0.0,0.4437,0.4364,0.4303,0.0,0.0,0.0,0.0,0.0,0.0,0.4749,0.4936,0.0,0.0,0.0,0.0,0.0,0.0,0.0,0.0,0.0,0.0,0.0,0.0,0.0,0.0,0.0,0.0,0.0,0.0,0.0,0.0,0.0,0.0,0.0,0.0,0.0,0.0,0.0,0.0,0.0,0.0,0.0,0.0,0.0,0.0,0.0,0.0,0.0,0.0,0.0,0.0,0.0,0.0,0.0,0.0,0.0,0.0,0.0,0.0,0.0,0.0,0.0,0.0,0.0,0.0,0.0,1.6569,1.7919,1.8664,1.8762,1.9247,1.9088,1.8146,1.7435,1.6357,0.0,0.0,0.0,0.0,0.0,0.0,0.0,0.0,0.0,0.0,0.0,0.0,0.0,0.0,0.0,0.0,0.0,0.0,0.0,0.0,0.0,0.0,0.0,0.0,0.0,0.0,0.0,0.0,0.0,0.0,0.0,0.0,0.0,0.0,0.0,0.0,0.0,0.0,0.0,0.0,0.0,0.4217,0.4217,0.3948,0.0,0.0,0.0,0.0,0.4315,0.4362,0.0,0.0,0.0,0.0,0.0,0.0,0.0,0.0,0.0,0.0,0.0,0.0,0.0,0.0,0.0,0.0,0.0,0.0,0.0,0.0,0.0,0.0,0.0,0.0,0.0,0.0,0.0,0.0,0.0,0.0,0.0,0.0,0.0,0.0,0.0,0.0,0.0,0.0,0.0,0.0,0.0,0.0,0.0,0.0,0.0,0.0,0.0,0.0,0.0,0.0,0.0,0.0,0.0,0.0,0.0,0.0,1.7411,1.8213,1.8783,1.9189,1.9294,1.8764,1.754,1.7014,1.5932,0.0,0.0,0.0,0.0,0.0,0.0,0.0,0.0,0.0,0.0,0.0,0.0,0.0,0.0,0.0,0.0,0.0,0.0,0.0,0.0,0.0,0.0,0.0,0.0,0.0,0.0,0.0,0.0,0.0,0.0,0.0,0.0,0.0,0.0,0.0,0.0,0.0,0.0,0.0,0.0,0.0,0.4295,0.4298,0.4056,0.3847,0.0,0.0,0.3819,0.3936,0.4113,0.0,0.0,0.0,0.0,0.0,0.0,0.0,0.0,0.0,0.0,0.0,0.0,0.0,0.0,0.0,0.0,0.0,0.0,0.0,0.0,0.0,0.0,0.0,0.0,0.0,0.0,0.0,0.0,0.0,0.0,0.0,0.0,0.0,0.0,0.0,0.0,0.0,0.0,0.0,0.0,0.0,0.0,0.0,0.0,0.0,0.0,0.0,0.0,0.0,0.0,0.0,0.0,0.0,0.0,0.0,1.5974,1.7233,1.829,1.8778,1.8631,1.8824,1.8246,1.6767,1.6504,1.5576,0.0,0.0,0.0,0.0,0.0,0.0,0.0,0.0,0.0,0.0,0.0,0.0,0.0,0.0,0.0,0.0,0.0,0.0,0.0,0.0,0.0,0.0,0.0,0.0,0.0,0.0,0.0,0.0,0.0,0.0,0.0,0.0,0.0,0.0,0.0,0.0,0.0,0.0,0.0,0.0,0.0,0.0,0.4331,0.4013,0.0,0.0,0.0,0.3692,0.3732,0.0,0.0,0.0,0.0,0.0,0.0,0.0,0.0,0.0,0.0,0.0,0.0,0.0,0.0,0.0,0.0,0.0,0.0,0.0,0.0,0.0,0.0,0.0,0.0,0.0,0.0,0.0,0.0,0.0,0.0,0.0,0.0,0.0,0.0,0.0,0.0,0.0,0.0,0.0,0.0,0.0,0.0,0.0,0.0,0.0,0.0,0.0,0.0,0.0,0.0,0.0,0.0,0.0,0.0,0.0,0.0,0.0,1.7159,1.839,1.876,1.8282,1.8549,1.7877,1.6274,1.6169,0.0,0.0,0.0,0.0,0.0,0.0,0.0,0.0,0.0,0.0,0.0,0.0,0.0,0.0,0.0,0.0,0.0,0.0,0.0,0.0,0.0,0.0,0.0,0.0,0.0,0.0,0.0,0.7042,0.0,0.0,0.0,0.0,0.0,0.0,0.0,0.0,0.0,0.0,0.0,0.0,0.0,0.0,0.4208,0.4394,0.4046,0.3693,0.0,0.0,0.3602,0.364,0.3509,0.346,0.0,0.0,0.0,0.0,0.0,0.0,0.0,0.0,0.0,0.0,0.0,0.0,0.0,0.0,0.0,0.0,0.0,0.0,0.0,0.0,0.0,0.0,0.0,0.0,0.0,0.0,0.0,0.0,0.0,0.0,0.0,0.0,0.0,0.0,0.0,0.0,0.0,0.0,0.0,0.0,0.0,0.0,0.0,0.0,0.0,0.0,0.0,0.0,0.0,0.0,0.0,0.0,0.0,0.0,1.6581,1.7643,1.8544,1.8866,1.8672,1.8691,1.7904,1.6274,1.6092,1.517,0.0,0.0,0.0,0.0,0.0,0.0,0.0,0.0,0.0,0.0,0.0,0.0,0.0,0.0,0.0,0.0,0.0,0.0,0.0,0.0,0.0,0.0,0.0,0.0,0.0,0.0,0.0,0.0,0.0,0.0,0.0,0.0,0.0,0.0,0.0,0.0,0.0,0.0,0.0,0.0,0.0,0.4466,0.4481,0.4364,0.4156,0.0,0.3649,0.3577,0.3752,0.3313,0.2974,0.3041,0.0,0.0,0.0,0.0,0.0,0.0,0.0,0.0,0.0,0.0,0.0,0.0,0.0,0.0,0.0,0.0,0.0,0.0,0.0,0.0,0.0,0.0,0.0,0.0,0.0,0.0,0.0,0.0,0.0,0.0,0.0,0.0,0.0,0.0,0.0,0.0,0.0,0.0,0.0,0.0,0.0,0.0,0.0,0.0,0.0,0.0,0.0,0.0,0.0,0.0,0.0,0.0,0.0,1.6196,1.751,1.8239,1.8592,1.8505,1.8294,1.7541,1.629,1.5767,1.4847,0.0,0.0,0.0,0.0,0.0,0.0,0.0,0.0,0.0,0.0,0.0,0.0,0.0,0.0,0.0,0.0,0.0,0.0,0.0,0.0,0.0,0.0,0.0,0.0,0.0,0.0,0.0,0.0,0.6999,0.6944,0.6482,0.0,0.0,0.0,0.0,0.0,0.0,0.0,0.0,0.0,0.0,0.4652,0.4746,0.4501,0.0,0.0,0.3782,0.3626,0.3393,0.307,0.2751,0.2503,0.1963,0.0,0.0,0.0,0.0,0.0,0.0,0.0,0.0,0.0,0.0,0.0,0.0,0.0,0.0,0.0,0.0,0.0,0.0,0.0,0.0,0.0,0.0,0.0,0.0,0.0,0.0,0.0,0.0,0.0,0.0,0.0,0.0,0.0,0.0,0.0,0.0,0.0,0.0,0.0,0.0,0.0,0.0,0.0,0.0,0.0,0.0,0.0,0.0,0.0,0.0,0.0,0.0,1.6192,1.7483,1.8024,1.8349,1.8407,1.7943,1.7232,1.6237,1.5396,1.4418,0.0,0.0,0.0,0.0,0.0,0.0,0.0,0.0,0.0,0.0,0.0,0.0,0.0,0.0,0.0,0.0,0.0,0.0,0.0,0.0,0.0,0.0,0.0,0.0,0.0,0.0,0.0,0.0,0.6755,0.6699,0.6034,0.0,0.0,0.0,0.0,0.0,0.0,0.0,0.0,0.0,0.0,0.4814,0.492,0.4626,0.4299,0.4041,0.3842,0.3589,0.3276,0.2926,0.2528,0.2085,0.0,0.0,0.0,0.0,0.0,0.0,0.0,0.0,0.0,0.0,0.0,0.0,0.0,0.0,0.0,0.0,0.0,0.0,0.0,0.0,0.0,0.0,0.0,0.0,0.0,0.0,0.0,1.5973,0.0,0.0,1.4036,0.0,0.0,0.0,0.0,0.0,0.0,0.0,0.0,0.0,0.0,0.0,0.0,0.0,0.0,0.0,0.0,0.0,0.0,0.0,0.0,0.0,0.0,1.6786,1.7682,1.7972,1.8198,1.8368,1.782,1.7039,1.6026,1.4984,1.3881,1.2729,0.0,0.0,0.0,0.0,0.0,0.0,0.0,0.0,0.0,0.0,0.0,0.0,0.0,0.0,0.0,0.0,0.0,0.0,0.0,0.0,0.0,0.0,0.0,0.0,0.0,0.0,0.616,0.6023,0.5814,0.0,0.0,0.0,0.0,0.0,0.0,0.0,0.0,0.0,0.4975,0.4996,0.5006,0.5004,0.4774,0.4483,0.4245,0.3822,0.3526,0.3487,0.2884,0.227,0.0,0.0,0.0,0.0,0.0,0.0,0.0,0.0,0.0,0.0,0.0,0.0,0.0,0.0,0.0,0.0,0.0,0.0,0.0,0.0,0.0,0.0,0.0,0.0,0.0,0.0,0.0,1.6146,1.6245,0.0,0.0,0.0,0.0,0.0,0.0,0.0,0.0,0.0,0.0,0.0,1.6931,1.6742,0.0,0.0,0.0,0.0,0.0,0.0,0.0,0.0,0.0,0.0,0.0,0.0,1.6535,1.7459,1.8024,1.8339,1.8382,1.796,1.7284,1.6422,1.5311,1.3811,1.1832,0.0,0.0,0.0,0.0,0.0,0.0,0.0,0.0,0.0,0.0,0.0,0.0,0.0,0.0,0.0,0.0,0.0,0.0,0.0,0.0,0.0,0.0,0.0,0.0,0.0,0.6375,0.0,0.0,0.0,0.0,0.0,0.0,0.0,0.0,0.0,0.0,0.0,0.5287,0.5317,0.5301,0.5281,0.5256,0.5002,0.4771,0.0,0.0,0.0,0.0,0.0,0.0,0.0,0.0,0.0,0.0,0.0,0.0,0.0,0.0,0.0,0.0,0.0,0.0,0.0,0.0,0.0,0.0,0.0,0.0,0.0,0.0,0.0,0.0,0.0,0.0,0.0,0.0,0.0,1.7301,1.7404,1.6795,0.0,0.0,0.0,0.0,0.0,0.0,0.0,0.0,1.8521,1.8788,1.8467,1.826,1.8191,0.0,1.8312,1.8295,0.0,0.0,0.0,0.0,0.0,0.0,0.0,0.0,1.6711,1.7515,1.8044,1.8332,1.8379,1.7869,1.7226,1.6435,1.4897,1.3132,1.1161,1.0348,0.9701,0.0,0.0,0.0,0.0,0.0,0.0,0.0,0.0,0.0,0.0,0.0,0.0,0.0,0.0,0.0,0.0,0.0,0.0,0.0,0.0,0.0,0.0,0.0,0.6125,0.0,0.0,0.0,0.0,0.0,0.0,0.0,0.0,0.0,0.5882,0.5831,0.5799,0.5788,0.5619,0.5531,0.5552,0.0,0.0,0.0,0.0,0.0,0.0,0.0,0.2788,0.2174,0.1626,0.1149,0.0745,0.0547,0.0374,0.0317,0.0,0.0,0.0,0.0,0.0,0.0,0.0,0.0,0.0,-0.0085,-0.021,0.0,0.0,0.0,0.0,0.0,0.0,0.0,0.0,1.8751,1.8947,0.0,1.7967,0.0,0.0,0.0,0.0,1.5667,1.7097,0.0,0.0,1.9687,2.0176,1.9911,1.9714,1.9476,1.9245,1.9458,1.9773,2.008,1.854,0.0,0.0,0.0,0.0,0.0,0.0,1.7357,1.7784,1.8026,1.8223,1.8327,1.761,1.6835,1.6005,1.3747,1.1971,1.0784,1.0283,0.9992,0.9895,0.9038,0.0,0.0,0.0,0.0,0.0,0.0,0.0,0.0,0.0,0.0,0.0,0.0,0.0,0.0,0.0,0.0,0.0,0.0,0.0,0.0,0.5796,0.0,0.0,0.0,0.0,0.0,0.0,0.0,0.0,0.0,0.0,0.6067,0.6235,0.6386,0.6316,0.0,0.0,0.0,0.0,0.5113,0.5134,0.4907,0.4597,0.4206,0.3722,0.3218,0.2553,0.0,0.0,0.1325,0.1242,0.1124,0.0876,0.0602,0.0332,0.0093,0.0,0.0,0.0,0.0,0.0,0.0,0.0,-0.0064,2.0124,0.0,0.0,0.0,0.0,1.9139,1.9405,1.9664,1.9861,1.9776,1.9462,1.8709,0.0,0.0,0.0,0.0,0.0,0.0,1.892,1.948,2.0475,2.0802,2.0555,2.0544,2.0202,1.963,1.9712,1.9904,2.0143,1.9516,1.9276,1.9416,0.0,0.0,0.0,0.0,1.7879,1.8035,1.8339,1.8337,1.7902,1.7527,1.6493,1.4801,1.3336,1.2058,1.0959,1.0699,1.0411,1.0053,0.9743,0.0,0.0,0.0,0.0,0.0,0.0,0.0,0.0,0.0,0.0,0.0,0.0,0.0,0.0,0.0,0.0,0.0,0.0,0.0,0.5964,0.5942,0.6062,0.0,0.0,0.0,0.0,0.0,0.0,0.0,0.0,0.0,0.7262,0.6919,0.6686,0.0,0.0,0.6132,0.6169,0.5809,0.552,0.5541,0.5348,0.0,0.4654,0.4257,0.3823,0.3384,0.2878,0.2468,0.2354,0.2039,0.1683,0.1417,0.1138,0.0899,0.0629,0.0267,0.0,0.0,0.0,0.0,0.0,0.0,0.0,2.1837,2.0701,2.0372,2.0335,2.0521,2.0747,2.0949,2.1061,2.11,2.0761,2.0164,1.956,1.8844,1.8071,1.797,0.0,0.0,0.0,2.0045,2.0522,2.1315,2.1556,2.1342,2.1418,2.1158,2.0575,2.0553,2.0721,2.1009,2.0625,2.0627,2.092,0.0,0.0,1.8853,1.8515,1.8267,1.8136,1.8488,1.8382,1.7712,1.6932,1.5707,1.402,1.2961,1.1922,1.0929,1.081,1.0617,1.0317,1.0135,0.9791,0.0,0.0,0.0,0.0,0.0,0.0,0.0,0.0,0.0,0.0,0.0,0.6835,0.6912,0.0,0.0,0.0,0.6371,0.6372,0.6424,0.6447,0.0,0.0,0.0,0.0,0.0,0.0,0.0,0.7881,0.7942,0.8029,0.8198,0.788,0.7504,0.7158,0.6844,0.6656,0.6656,0.0,0.6183,0.6183,0.5983,0.572,0.537,0.4954,0.4557,0.4164,0.382,0.3525,0.343,0.3069,0.2679,0.2294,0.1945,0.1539,0.1192,0.077,0.0397,0.0198,0.0073,0.0,0.0,0.0,0.0,2.3096,2.3032,2.2291,2.214,2.235,2.235,2.257,2.2853,2.226,2.1769,2.1299,2.0442,1.9737,1.9224,1.9469,0.0,1.9899,2.0769,2.1302,2.1558,2.2238,2.2425,2.2244,2.2425,2.2279,2.1819,2.181,2.198,2.2263,2.1736,2.1674,2.2056,2.0136,1.9346,1.9622,1.9086,1.8594,1.8206,1.8532,1.8342,1.759,1.6034,1.4667,1.3575,1.2629,1.1708,1.0785,1.0737,1.0712,1.0626,1.0337,1.0093,0.9957,0.0,0.0,0.0,0.0,0.0,0.0,0.0,0.0,0.0,0.0,0.0,0.0,0.0,0.0,0.0,0.6754,0.0,0.7148,0.7169,0.0,0.0,0.0,0.7924,0.8285,0.831,0.844,0.875,0.0,0.0,0.895,0.8941,0.8635,0.7849,0.7479,0.7294,0.727,0.7089,0.6954,0.6929,0.6694,0.6455,0.614,0.5737,0.5351,0.4953,0.4832,0.4761,0.4553,0.4273,0.3902,0.3369,0.2847,0.2323,0.1797,0.1441,0.1087,0.0607,0.0299,0.0,0.0,0.0,0.0,2.4819,2.4801,2.4583,2.3849,2.2767,2.2757,2.2812,2.2838,2.2362,2.209,2.1908,2.0963,2.0346,2.0022,2.0316,2.0766,2.1418,2.2175,2.2672,2.295,2.3457,2.3572,2.3342,2.3572,2.3342,2.2718,2.2695,2.2624,2.2525,2.2085,2.1985,2.2194,2.1136,2.0492,2.029,1.9842,1.941,1.9025,1.8798,1.806,1.6735,1.5816,1.462,1.3094,1.2673,1.2022,1.1045,1.0996,1.1009,1.0979,1.0713,1.0327,0.9785,0.9342,0.0,0.0,0.0,0.0,0.0,0.0,0.0,0.0,0.0,0.6835,0.6756,0.0,0.7097,0.0,0.7282,0.7535,0.77,0.7693,0.0,0.0,0.855,0.8741,0.9216,0.9288,0.9356,0.9573,0.9434,0.9377,0.9547,0.9419,0.9212,0.8977,0.8525,0.8101,0.7831,0.7544,0.7358,0.7334,0.7063,0.6759,0.657,0.6347,0.6111,0.6016,0.5996,0.5907,0.5659,0.5215,0.4761,0.4185,0.3506,0.2943,0.2622,0.2015,0.155,0.1385,0.099,0.0627,0.0602,0.0599,0.0598,2.5398,2.5398,2.5398,2.4849,2.3999,2.3816,2.3642,2.3449,2.3003,2.2745,2.2601,2.1686,2.1184,2.1095,2.149,2.2057,2.2715,2.3368,2.3708,2.3843,2.4211,2.4199,2.3891,2.4123,2.3961,2.3495,2.3495,2.3448,2.3337,2.2935,2.2755,2.2737,2.2118,2.15,2.0901,2.0227,1.975,1.9435,1.8745,1.7777,1.6558,1.5788,1.4658,1.3127,1.2684,1.2044,1.1135,1.1117,1.1117,1.1111,1.0972,1.0605,1.0037,0.9702,0.9198,0.0,0.0,0.0,0.0,0.0,0.0,0.0,0.0,0.0,0.0,0.0,0.7718,0.7701,0.7971,0.825,0.849,0.8525,0.8726,0.924,0.9296,0.9432,0.9839,0.9864,0.9933,1.0107,0.9998,0.9965,1.0162,1.0056,0.9946,0.9812,0.9519,0.9083,0.851,0.8211,0.8088,0.7959,0.7616,0.7254,0.6984,0.6842,0.6764,0.6761,0.6764,0.6711,0.6564,0.6089,0.5575,0.5088,0.4465,0.3826,0.329,0.2692,0.2181,0.1856,0.1483,0.1113,0.0859,0.0783,0.0783,2.5597,2.5623,2.5649,2.5621,2.5557,2.5207,2.482,2.438,2.4039,2.3678,2.3342,2.267,2.2357,2.2325,2.2843,2.3375,2.39,2.4375,2.4523,2.4435,2.4675,2.4569,2.4227,2.4371,2.4347,2.4147,2.4203,2.4221,2.431,2.3942,2.3631,2.3355,2.2973,2.2331,2.1491,2.0552,1.9913,1.9599,1.8544,1.7589,1.6699,1.5855,1.4708,1.3293,1.2664,1.1966,1.1141,1.1124,1.1149,1.1149,1.1105,1.0898,1.0436,1.0049,0.9654,0.0,0.8321,0.0,0.0,0.0,0.0,0.0,0.0,0.0,0.0,0.8073,0.8378,0.8614,0.8775,0.9026,0.9393,0.9434,0.9613,1.0002,1.0052,1.0121,1.03,1.0325,1.0359,1.049,1.0511,1.059,1.07,1.0752,1.0642,1.0374,1.0292,0.9958,0.9284,0.9035,0.8876,0.8615,0.8228,0.7811,0.75,0.74,0.7381,0.7372,0.7384,0.7337,0.7305,0.6846,0.6369,0.592,0.5352,0.4702,0.377,0.3252,0.2801,0.2254,0.1841,0.1415,0.1061,0.0934,0.0909,2.6712,2.6739,2.6927,2.6855,2.6545,2.6434,2.6066,2.5503,2.5426,2.497,2.437,2.4395,2.4188,2.38,2.3957,2.4323,2.4844,2.5058,2.5148,2.5096,2.5169,2.5024,2.4777,2.4802,2.4671,2.4467,2.4637,2.4635,2.4457,2.4281,2.406,2.3778,2.3392,2.2751,2.1907,0.0,0.0,0.0,1.8586,1.7608,1.6632,1.5932,1.4671,1.2822,1.277,0.0,1.1166,1.126,1.1335,1.1335,1.1192,0.0,0.0,0.0,0.0,0.0,0.0,0.0,0.0,0.0,0.0,0.0,0.8453,0.8617,0.794,0.8467,0.9134,0.9777,0.9729,0.9819,1.0174,1.0176,1.0358,1.0748,1.0789,1.0858,1.1001,1.1013,1.1013,1.1037,1.1041,1.1029,1.0928,1.0943,1.0858,1.0646,1.0614,1.0476,1.0077,0.9704,0.9388,0.911,0.8688,0.8383,0.8245,0.8228,0.8186,0.8242,0.8238,0.8131,0.7917,0.7423,0.6879,0.639,0.5661,0.4978,0.4284,0.3545,0.293,0.2515,0.1994,0.1566,0.1465,0.144,0.144,2.7215,2.7206,2.735,2.7281,0.0,2.7279,2.7155,2.6795,2.6378,2.5975,2.5578,2.5733,2.5474,2.5015,2.515,2.5305,2.5433,2.5424,2.5334,2.52,2.5002,2.476,2.4514,2.4514,2.4504,2.4514,2.4637,2.4686,2.4677,2.4626,2.4355,2.3908,2.3566,2.2915,2.1907,2.1018,2.0148,1.932,1.8594,1.7835,1.6992,1.6166,1.5036,1.3613,1.3251,0.0,0.0,0.0,0.0,0.0,0.0,0.0,0.0,0.0,0.0,0.9632,0.9269,0.8933,0.8628,0.8617,0.8644,0.8591,0.9228,0.9446,0.9055,0.9378,0.9777,1.0253,1.0286,1.0396,1.0664,1.0746,1.0871,1.107,1.1094,1.1131,1.1175,1.1191,1.1191,1.1191,1.1191,1.1187,1.1106,1.1041,1.0968,1.0866,1.0772,1.0665,1.0496,1.0183,0.983,0.9474,0.924,0.8961,0.8732,0.8689,0.864,0.8561,0.8509,0.8456,0.8299,0.7799,0.7249,0.6851,0.6138,0.5373,0.4623,0.3908,0.3241,0.2796,0.2326,0.2021,0.1994,0.1894,0.1844,2.7485,2.7512,2.753,2.7566,2.7584,2.7853,2.796,2.7938,2.72,0.0,0.0,2.6762,2.6435,2.5966,2.609,2.6001,2.5732,2.547,2.521,2.4939,2.4541,2.4208,2.3985,2.3985,2.4084,2.4316,2.4341,2.448,2.4686,2.4726,2.4468,2.3884,2.3648,2.2964,2.182,2.0427,1.9576,1.9233,1.8647,1.801,1.7317,1.6432,1.5469,1.448,1.3831,1.3265,1.2771,1.2778,1.2818,1.2798,1.2576,1.2247,1.1894,1.1532,1.1055,1.0384,0.9943,0.9622,0.9456,0.9363,0.9443,0.9702,0.9991,1.0204,1.0343,1.0272,1.031,1.0527,1.0676,1.0826,1.1037,1.1183,1.1285,1.1284,1.1292,1.1321,1.1375,1.1375,1.1421,1.1463,1.1508,1.1479,1.1475,1.1302,1.1146,1.1077,1.0898,1.0748,1.0673,1.0441,1.0143,0.9811,0.9642,0.9455,0.9186,0.9077,0.8954,0.8777,0.8683,0.864,0.8507,0.8067,0.7575,0.7157,0.6526,0.5682,0.4869,0.4184,0.3625,0.3073,0.2679,0.2422,0.2447,0.2297,0.2197,2.7826,2.7826,2.8067,2.8184,2.8174,2.8211,2.8237,2.8228,2.8101,2.7929,2.7697,2.7412,2.6983,2.647,2.612,2.5814,2.5521,2.5028,2.4656,2.4399,2.3992,2.3712,2.3497,2.3506,2.3522,2.3571,2.3746,2.3836,2.3911,2.4084,2.4048,2.3755,2.3696,2.3088,2.1934,2.0524,1.9757,1.967,1.866,1.7758,1.698,1.6431,1.5542,1.4315,1.4314,1.4027,1.3408,1.3549,1.3626,1.3626,1.322,1.294,1.2868,1.2056,1.1356,1.0887,1.0357,0.9914,0.9702,0.9965,1.0404,1.0954,1.1072,1.1066,1.0897,1.057,1.0567,1.1013,1.1057,1.1098,1.1374,1.1473,1.1546,1.1692,1.1721,1.1781,1.2021,1.2051,1.2132,1.2401,1.2487,1.2413,1.2249,1.2013,1.1723,1.1418,1.114,1.0899,1.0701,1.0472,1.0304,1.0198,0.9944,0.9768,0.9661,0.966,0.9525,0.9311,0.9239,0.9135,0.889,0.8314,0.7726,0.7128,0.6456,0.5663,0.478,0.4181,0.3655,0.3209,0.2781,0.2548,0.27,0.27,0.2623,2.8094,2.813,2.8264,2.8301,2.8301,2.8301,2.8301,2.8291,2.8157,2.8014,2.7879,2.7539,2.7098,2.6581,2.619,2.5766,2.5305,2.4695,2.4184,2.3757,2.3331,2.291,2.2493,2.2485,2.2672,2.3022,2.3285,2.3534,2.3847,2.3814,2.3717,2.3538,2.2941,2.2198,2.1377,2.0262,1.9625,1.9453,1.8791,1.8143,1.7626,1.6836,1.6047,1.5295,1.5109,1.4847,1.4559,1.4771,1.4872,1.4872,1.4579,1.4278,1.3967,1.3123,1.2339,1.1731,1.1153,1.0697,1.0413,1.0673,1.1006,1.1414,1.1569,1.1595,1.1485,1.1317,1.1368,1.1708,1.1783,1.1873,1.2018,1.2116,1.2183,1.2268,1.2277,1.2337,1.2449,1.2449,1.2535,1.2689,1.2685,1.2684,1.2605,1.242,1.2227,1.199,1.157,1.1103,1.078,1.061,1.0531,1.0504,1.039,1.0225,1.0091,1.0064,0.9954,0.9678,0.9627,0.9489,0.9185,0.8639,0.7977,0.7252,0.643,0.5525,0.4655,0.4062,0.3612,0.3295,0.3054,0.2901,0.2978,0.3029,0.2978,2.8398,2.8398,2.8451,2.8451,2.8381,2.8318,2.8237,2.805,2.7745,2.7574,2.7485,2.7287,2.6908,2.6391,2.6008,2.5477,2.4874,2.4265,2.3736,2.3297,2.2918,2.2394,2.1882,2.1832,2.2067,2.2473,2.2704,2.3054,2.3415,2.3253,2.3116,2.2936,2.2015,2.1304,2.0789,2.0028,1.9509,1.9309,1.9009,1.8597,1.8117,1.7309,1.6781,1.6493,1.6121,1.5863,1.5806,1.5983,1.6104,1.608,1.5833,1.5454,1.4977,1.4154,1.3285,1.2445,1.1843,1.1468,1.126,1.1411,1.1643,1.1845,1.207,1.22,1.2217,1.2225,1.2227,1.2292,1.2375,1.2485,1.2522,1.2602,1.2685,1.2685,1.2685,1.2719,1.281,1.281,1.284,1.29,1.293,1.293,1.2903,1.2775,1.2613,1.2399,1.1913,1.1363,1.1058,1.0894,1.081,1.0855,1.0808,1.0654,1.0437,1.0441,1.0299,0.9969,0.984,0.9678,0.9368,0.8827,0.8123,0.7289,0.6312,0.5415,0.4606,0.4016,0.3606,0.3365,0.3205,0.3205,0.3282,0.3356,0.3306,2.8684,2.8701,2.8903,2.8913,2.8621,2.8381,2.797,2.7458,2.6962,2.6545,2.6336,2.6554,2.6336,2.5761,2.5202,2.4629,2.4047,2.358,2.3362,2.326,2.2947,2.2592,2.2236,2.2211,2.208,2.1881,2.1955,2.2123,2.2231,2.2161,2.1935,2.1594,2.1233,2.0911,2.0527,1.9993,1.9661,1.9635,1.938,1.8822,1.7991,1.7821,1.7686,1.7468,1.7404,1.727,1.6932,1.6975,1.6989,1.6939,1.649,1.609,1.5733,1.48,1.3738,1.2705,1.2233,1.1999,1.1937,1.2119,1.2349,1.2664,1.2871,1.3035,1.3204,1.3232,1.3013,1.266,1.2497,1.2615,1.2671,1.2711,1.2749,1.281,1.2779,1.2814,1.3084,1.314,1.3264,1.3599,1.3539,1.3594,1.3504,1.3292,1.2976,1.2578,1.2195,1.1846,1.1666,1.1355,1.116,1.125,1.1164,1.0926,1.0758,1.0818,1.0683,1.0327,1.0009,0.9761,0.9412,0.8671,0.7759,0.711,0.6146,0.5262,0.464,0.4109,0.3677,0.3558,0.3417,0.3307,0.3534,0.3734,0.3707,2.9196,2.894,2.8877,2.8611,2.8237,2.813,2.7718,2.7152,2.6772,2.6309,2.5852,2.5642,2.5469,2.5376,2.4823,2.4303,2.3876,2.3358,2.3033,2.282,2.2667,2.2471,2.2147,2.2123,2.2113,2.2194,2.2366,2.257,2.274,2.2588,2.2154,2.1515,2.1343,2.0966,2.0369,2.0103,1.9829,1.9461,1.9357,1.9096,1.872,1.8372,1.806,1.7811,1.7813,1.7785,1.768,1.7793,1.7872,1.7846,1.7493,1.7086,1.6691,1.5612,1.4558,1.3604,1.2903,1.249,1.2492,1.266,1.2833,1.2975,1.3169,1.3296,1.3381,1.3529,1.3447,1.3269,1.3205,1.3246,1.3285,1.3299,1.3294,1.3294,1.3294,1.3359,1.3479,1.3474,1.3564,1.3688,1.3688,1.3688,1.3688,1.3599,1.3301,1.287,1.2574,1.2364,1.2004,1.1709,1.1621,1.1662,1.1644,1.1455,1.1122,1.0964,1.0912,1.0755,1.0512,1.0233,0.9623,0.8896,0.7968,0.6972,0.5899,0.4978,0.4227,0.3872,0.3539,0.3586,0.3753,0.3734,0.381,0.3909,0.3858,2.9625,2.927,2.8937,2.8478,2.7996,2.7951,2.7445,2.6664,2.6363,2.5887,2.5191,2.474,2.4648,2.4759,2.4368,2.3977,2.3632,2.3211,2.2879,2.2649,2.2633,2.2442,2.2186,2.2127,2.2215,2.2366,2.2528,2.2803,2.3063,2.2823,2.2285,2.1631,2.153,2.1144,2.0425,2.0334,2.007,1.961,1.9488,1.9437,1.936,1.8916,1.8513,1.8318,1.8339,1.8367,1.8363,1.8548,1.8703,1.8773,1.8449,1.8023,1.7541,1.6447,1.5344,1.4215,1.3366,1.288,1.2885,1.307,1.3183,1.3202,1.3377,1.3471,1.3495,1.3603,1.3679,1.3684,1.3688,1.3684,1.3688,1.3688,1.3688,1.3688,1.3688,1.3688,1.3688,1.3688,1.3688,1.3688,1.3688,1.3688,1.3688,1.3688,1.3542,1.3209,1.3062,1.2898,1.2434,1.2221,1.2101,1.2158,1.2206,1.2006,1.1578,1.1516,1.1387,1.1247,1.1096,1.0623,0.9975,0.9136,0.8149,0.7003,0.5789,0.4991,0.4583,0.4115,0.3726,0.3861,0.4035,0.4181,0.4217,0.4254,0.4303,2.9786,2.9698,2.927,2.8737,2.825,2.8002,2.7123,2.5805,2.5565,2.4941,2.413,2.3993,2.3949,2.3949,2.3669,2.3388,2.3098,2.3042,2.2998,2.2958,2.2966,2.2799,2.2501,2.2485,2.2342,2.2164,2.219,2.2215,2.2271,2.2199,2.1946,2.1625,2.1637,2.1331,2.0778,2.0706,2.0528,2.0187,1.9959,1.9793,1.9757,1.9459,1.9264,1.9242,1.9224,1.9205,1.9241,1.9245,1.9408,1.9707,1.916,1.8734,1.8348,1.7222,1.5765,1.4215,1.3445,1.3084,1.3107,1.3283,1.3377,1.3395,1.3572,1.3665,1.3676,1.367,1.3688,1.3688,1.3688,1.3688,1.3688,1.3688,1.3688,1.3688,1.3688,1.3688,1.3688,1.3688,1.3688,1.3688,1.3688,1.3688,1.3688,1.3688,1.3684,1.3597,1.3479,1.3309,1.3189,1.2838,1.268,1.2727,1.2644,1.2397,1.2219,1.212,1.2176,1.1916,1.14,1.0987,1.0152,0.9264,0.8168,0.7143,0.612,0.5418,0.5091,0.4762,0.444,0.4415,0.4548,0.4648,0.4776,0.4935,0.5002,3.0414,2.9563,2.8966,2.8274,2.7546,2.683,2.6102,2.5444,2.5179,2.4676,2.4065,2.3955,2.3719,2.3324,2.3211,2.3239,2.3296,2.3098,2.3014,2.3014,2.3014,2.2942,2.2847,2.2823,2.2768,2.2645,2.2648,2.2634,2.2652,2.2675,2.2536,2.2273,2.2242,2.1925,2.138,2.1256,2.111,2.0783,2.0674,2.0656,2.0595,2.0348,2.0181,2.0166,1.9822,1.9713,1.9892,1.9879,1.993,2.0032,1.9518,1.9078,1.8602,1.6888,1.527,1.4135,1.3548,1.3302,1.3325,1.3462,1.3584,1.3589,1.3671,1.3688,1.3688,1.3688,1.3688,1.3688,1.3688,1.3688,1.3688,1.3688,1.3688,1.3688,1.3688,1.3688,1.3688,1.3688,1.3688,1.3688,1.3688,1.3688,1.3688,1.3688,1.3688,1.3714,1.3652,1.3528,1.341,1.3194,1.3136,1.3187,1.3156,1.3082,1.3199,1.2711,1.2403,1.2037,1.1587,1.1017,1.0283,0.923,0.8134,0.7186,0.626,0.5598,0.5184,0.5131,0.4889,0.4912,0.5046,0.5282,0.5414,0.5509,0.5608,3.0403,2.9224,2.8628,2.7874,2.7034,2.6365,2.5752,2.5242,2.5035,2.4601,2.409,2.3891,2.3575,2.3189,2.3041,2.3135,2.3304,2.3098,2.3014,2.3014,2.3014,2.3014,2.3014,2.3014,2.3014,2.3014,2.3014,2.3014,2.3014,2.3014,2.2909,2.2732,2.274,2.2453,2.1999,2.1912,2.1754,2.148,2.133,2.1261,2.1226,2.0964,2.0897,2.0923,2.0579,2.0362,2.0384,2.0371,2.0422,2.0419,1.9989,1.9312,1.8357,1.6605,1.5164,1.4278,1.3756,1.3515,1.3499,1.3613,1.3718,1.3688,1.3688,1.3688,1.3688,1.3688,1.3688,1.3688,1.3688,1.3688,1.3723,1.3813,1.3813,1.3748,1.3688,1.3688,1.3688,1.3688,1.3688,1.3688,1.3688,1.3688,1.3688,1.3688,1.3688,1.3688,1.3688,1.3657,1.3518,1.3485,1.3485,1.3485,1.3499,1.3522,1.3539,1.3195,1.2867,1.2534,1.2014,1.1323,1.0299,0.9222,0.8228,0.7264,0.6435,0.5774,0.5418,0.5401,0.5424,0.5421,0.5659,0.5917,0.5984,0.6039,0.6128,2.9602,2.8653,2.8314,2.7622,2.6789,2.6603,2.6053,2.5127,2.5044,2.4674,2.4156,2.3774,2.3618,2.3454,2.324,2.3077,2.3146,2.3101,2.3017,2.3014,2.3014,2.3014,2.3014,2.3014,2.3014,2.3014,2.3014,2.3014,2.3014,2.3014,2.2986,2.2986,2.2958,2.2801,2.2575,2.2543,2.2389,2.212,2.1854,2.166,2.1574,2.1365,2.1357,2.1574,2.1546,2.1276,2.0776,2.0756,2.0873,2.108,2.0565,1.9412,1.7792,1.6616,1.5647,1.4708,1.4063,1.3769,1.3734,1.3744,1.3753,1.3748,1.3718,1.3688,1.3688,1.3688,1.3688,1.3688,1.3688,1.3718,1.3778,1.3992,1.4052,1.3778,1.3778,1.3808,1.3778,1.3718,1.3688,1.3688,1.3688,1.3688,1.3688,1.3688,1.3688,1.3688,1.3688,1.3684,1.3676,1.3641,1.3704,1.367,1.3641,1.3676,1.3674,1.3654,1.3439,1.3122,1.2581,1.1919,1.0539,0.9393,0.8392,0.7464,0.6707,0.6064,0.6002,0.5986,0.6056,0.6141,0.6368,0.6491,0.6565,0.6604,0.6623,2.9433,2.8456,2.7676,2.6956,2.6188,2.5541,2.5099,2.4987,2.4847,2.4635,2.4434,2.4301,2.4126,2.3912,2.3798,2.375,2.3742,2.3462,2.3224,2.307,2.303,2.303,2.303,2.3022,2.3014,2.3014,2.3014,2.3014,2.3014,2.3014,2.3014,2.3014,2.3014,2.2958,2.2873,2.2881,2.2788,2.2716,2.263,2.2567,2.2539,2.2269,2.2185,2.225,2.2068,2.1843,2.1673,2.1483,2.1442,2.1525,2.0766,1.9455,1.7772,1.6803,1.5941,1.5056,1.456,1.4321,1.4291,1.4142,1.4052,1.3992,1.3843,1.3718,1.3688,1.3688,1.3688,1.3688,1.3718,1.3783,1.4022,1.4147,1.4182,1.4057,1.4202,1.4306,1.4301,1.4161,1.3928,1.3748,1.3688,1.3688,1.3698,1.3733,1.3756,1.3751,1.3712,1.3703,1.3728,1.3698,1.3688,1.3688,1.3688,1.3688,1.3688,1.3539,1.3269,1.2874,1.2419,1.1756,1.0516,0.9454,0.8482,0.7661,0.6926,0.658,0.6548,0.6584,0.6612,0.6682,0.6749,0.6895,0.7085,0.7115,0.7095,2.8788,2.8065,2.7188,2.6465,2.5832,2.5131,2.4954,2.5004,2.4869,2.4785,2.4754,2.4635,2.449,2.4283,2.4177,2.4106,2.409,2.3816,2.3618,2.3395,2.3224,2.3184,2.3216,2.3356,2.3316,2.3192,2.3184,2.3141,2.3014,2.3014,2.3014,2.3014,2.3014,2.3014,2.3014,2.3014,2.3014,2.3014,2.2986,2.3014,2.2958,2.2845,2.2768,2.2711,2.2541,2.2392,2.2286,2.2116,2.1974,2.1689,2.0874,1.9484,1.7795,1.692,1.6124,1.5413,1.4888,1.459,1.456,1.4411,1.4291,1.4202,1.3992,1.3808,1.3748,1.3688,1.3688,1.3688,1.3813,1.3958,1.4182,1.456,1.4646,1.4686,1.4696,1.4811,1.4837,1.4746,1.4508,1.4248,1.4122,1.4046,1.395,1.392,1.392,1.3946,1.3859,1.3811,1.3823,1.377,1.3717,1.3693,1.3688,1.3688,1.3688,1.3419,1.3054,1.2539,1.1997,1.1152,1.0095,0.9211,0.833,0.76,0.687,0.6778,0.6721,0.6938,0.7045,0.711,0.7146,0.7362,0.7539,0.7529,0.752,2.7827,2.7431,2.6861,2.6275,2.57,2.5584,2.5385,2.5187,2.5087,2.5071,2.4985,2.4785,2.4665,2.4569,2.4378,2.4251,2.4177,2.4124,2.41,2.3997,2.3785,2.3605,2.361,2.3845,2.3785,2.3573,2.3541,2.3359,2.3089,2.3073,2.303,2.3022,2.3014,2.3014,2.3014,2.3014,2.3014,2.3014,2.3014,2.3014,2.3014,2.2986,2.2986,2.2958,2.2929,2.2816,2.2655,2.2598,2.24,2.1966,2.0902,1.9622,1.8104,1.7032,1.6266,1.5661,1.5047,1.4819,1.4695,1.4725,1.4595,1.4386,1.4262,1.4082,1.3843,1.3778,1.3778,1.3718,1.3963,1.4177,1.4361,1.4922,1.5384,1.5543,1.536,1.5268,1.5385,1.5396,1.5169,1.4888,1.4808,1.4714,1.4375,1.4318,1.4318,1.4232,1.4114,1.4038,1.3944,1.3854,1.3731,1.3698,1.3688,1.3599,1.3569,1.3234,1.2784,1.1877,1.1329,1.0516,0.97,0.8909,0.8327,0.76,0.7146,0.7023,0.7054,0.7294,0.7416,0.7447,0.76,0.7841,0.7861,0.7781,0.7743,2.7974,2.7189,2.7027,2.6577,2.5978,2.5694,2.5541,2.5457,2.5203,2.5134,2.5079,2.5016,2.4983,2.496,2.4865,2.4833,2.4746,2.4577,2.4474,2.4466,2.4364,2.4142,2.3997,2.4036,2.4052,2.3957,2.3941,2.3766,2.3398,2.3375,2.3263,2.3022,2.3054,2.303,2.3014,2.303,2.3014,2.3014,2.3014,2.3014,2.3014,2.3014,2.3014,2.3014,2.3014,2.2958,2.2873,2.2901,2.24,2.1489,2.0931,1.9881,1.8402,1.7408,1.6626,1.6068,1.5777,1.5528,1.5368,1.5272,1.5137,1.4874,1.462,1.4381,1.4112,1.4052,1.3963,1.3843,1.3992,1.4296,1.4535,1.5134,1.581,1.6543,1.625,1.5913,1.5784,1.5685,1.5592,1.5281,1.5264,1.5066,1.4794,1.4668,1.4601,1.4394,1.4279,1.418,1.4045,1.3937,1.3854,1.3726,1.3688,1.3539,1.3359,1.3024,1.2389,1.1273,1.0547,0.9849,0.9122,0.8482,0.8116,0.7689,0.7569,0.7447,0.7569,0.775,0.778,0.7691,0.778,0.7903,0.7903,0.7858,0.7858,2.75,2.709,2.6812,2.6557,2.6282,2.5966,2.5809,2.5786,2.5625,2.5533,2.5502,2.5388,2.5326,2.5296,2.5173,2.5072,2.5079,2.4897,2.4809,2.4832,2.4793,2.4682,2.4569,2.4522,2.445,2.4307,2.4307,2.4108,2.3808,2.3761,2.3634,2.3483,2.3271,2.3208,2.3216,2.3049,2.3022,2.3014,2.3014,2.3014,2.3014,2.3014,2.3014,2.3014,2.3014,2.3014,2.3014,2.3014,2.2534,2.171,2.1131,2.0256,1.8897,1.79,1.7126,1.6536,1.6304,1.6089,1.5875,1.5771,1.5532,1.5177,1.4883,1.4679,1.4446,1.4356,1.4262,1.4177,1.4376,1.4615,1.4909,1.5534,1.6402,1.7104,1.7035,1.6746,1.6518,1.6556,1.6318,1.6034,1.5849,1.5653,1.5182,1.5081,1.4918,1.4658,1.4479,1.4323,1.4194,1.4085,1.3953,1.3807,1.3608,1.3449,1.2994,1.2569,1.1696,1.0607,0.9694,0.9001,0.8696,0.8147,0.8025,0.7869,0.7903,0.7903,0.7903,0.7903,0.7872,0.7841,0.7903,0.7903,0.7903,0.7903,0.7903,2.6853,2.71,2.6552,2.6473,2.6728,2.639,2.6235,2.6194,2.6092,2.6045,2.5984,2.5786,2.5633,2.5633,2.5357,2.5173,2.5173,2.5102,2.5049,2.5063,2.5033,2.5024,2.4992,2.4968,2.4857,2.4666,2.4665,2.4458,2.4219,2.414,2.41,2.3949,2.3689,2.3581,2.3501,2.3248,2.3065,2.3065,2.3046,2.3022,2.3014,2.3014,2.3014,2.3014,2.3014,2.3014,2.3014,2.2986,2.2675,2.2116,2.1524,2.0537,1.9348,1.8389,1.7619,1.7044,1.6665,1.6415,1.6192,1.6107,1.5888,1.5399,1.5235,1.4997,1.4734,1.4679,1.462,1.45,1.4913,1.5128,1.5514,1.6275,1.7043,1.7642,1.7728,1.7681,1.7584,1.7506,1.7205,1.6689,1.6544,1.6208,1.5854,1.5533,1.5411,1.5019,1.4796,1.4535,1.4342,1.4186,1.4038,1.383,1.3595,1.3329,1.2724,1.2088,1.1001,0.9879,0.8906,0.8269,0.8269,0.7994,0.7964,0.7903,0.7903,0.7903,0.7903,0.7903,0.7903,0.7903,0.7903,0.7903,0.7903,0.7903,0.7903,2.7451,2.7506,2.7673,2.7809,2.7755,2.7168,2.6884,2.6851,2.6344,2.6191,2.6106,2.6014,2.5984,2.5961,2.5664,2.551,2.5426,2.5234,2.5072,2.5072,2.5072,2.5072,2.5072,2.5072,2.5063,2.4968,2.4984,2.4801,2.4577,2.4474,2.4354,2.4124,2.4068,2.3973,2.3925,2.3589,2.337,2.333,2.3144,2.3017,2.3017,2.3022,2.3014,2.3014,2.3014,2.3014,2.3014,2.3014,2.2703,2.2108,2.1467,2.0565,1.9406,1.8425,1.7678,1.718,1.6934,1.6707,1.6504,1.6392,1.6221,1.5904,1.5661,1.5359,1.5026,1.5028,1.4874,1.4739,1.4923,1.5514,1.6306,1.7052,1.7677,1.816,1.8372,1.8303,1.8012,1.742,1.7048,1.6927,1.6764,1.6557,1.6311,1.5974,1.5714,1.5416,1.5092,1.4766,1.454,1.4323,1.4071,1.384,1.3419,1.3029,1.2088,1.1299,1.0152,0.9335,0.8449,0.7903,0.7903,0.7903,0.7903,0.7903,0.7903,0.7903,0.7903,0.7903,0.7903,0.7903,0.7903,0.7903,0.7903,0.7903,0.7903,2.7887,2.807,2.8154,2.8251,2.834,2.7855,2.7503,2.7295,2.6977,2.6722,2.6565,2.6419,2.6319,2.6288,2.5992,2.5755,2.5549,2.5265,2.5072,2.5072,2.5072,2.5072,2.5072,2.5072,2.5072,2.5072,2.5072,2.4976,2.4865,2.4809,2.4746,2.4577,2.4426,2.4339,2.4275,2.3959,2.38,2.3713,2.3414,2.3232,2.3232,2.3065,2.3014,2.3014,2.3014,2.3014,2.3014,2.2853,2.2456,2.1881,2.116,2.0342,1.9383,1.8438,1.7749,1.735,1.7339,1.7218,1.7015,1.6992,1.6888,1.6455,1.6263,1.6026,1.5778,1.5657,1.5596,1.548,1.5633,1.6086,1.7111,1.7616,1.8139,1.8502,1.8682,1.8533,1.8088,1.7568,1.7171,1.7128,1.6963,1.6743,1.6502,1.6246,1.5909,1.5523,1.5122,1.4827,1.4592,1.4348,1.4057,1.372,1.3223,1.2578,1.1514,1.0482,0.9271,0.8665,0.8177,0.7903,0.7903,0.7903,0.7903,0.7903,0.7903,0.7903,0.7903,0.7903,0.7903,0.7903,0.7903,0.7903,0.7903,0.7903,0.7903,2.8362,2.8681,2.8395,2.8499,2.8782,2.8441,2.8103,2.7928,2.7715,2.7448,2.7171,2.6868,2.6763,2.6618,2.6319,2.5961,2.5602,2.5265,2.5072,2.5072,2.5072,2.5072,2.5072,2.5072,2.5072,2.5072,2.5072,2.5049,2.5049,2.5072,2.5016,2.4993,2.4817,2.4674,2.4609,2.4354,2.4172,2.4124,2.3792,2.3589,2.3533,2.3279,2.3125,2.3014,2.3014,2.3014,2.2958,2.274,2.2315,2.1567,2.0716,1.9986,1.9231,1.8537,1.7947,1.7641,1.7811,1.7775,1.7593,1.7607,1.7478,1.6988,1.6873,1.6749,1.6491,1.6438,1.6391,1.6435,1.6549,1.684,1.7671,1.8058,1.838,1.867,1.8734,1.8494,1.8142,1.7935,1.763,1.7218,1.7011,1.682,1.6615,1.6396,1.6012,1.5621,1.5225,1.4907,1.4685,1.4352,1.4022,1.3465,1.2939,1.1719,1.0587,0.9951,0.8722,0.8308,0.7941,0.7933,0.7903,0.7903,0.7903,0.7903,0.7903,0.7903,0.7903,0.7903,0.7903,0.7903,0.7903,0.7903,0.7903,0.7903,0.7903,2.9039,2.9101,2.9039,2.9251,2.9494,2.8909,2.8751,2.8908,2.8286,2.7869,2.7518,2.7439,2.7204,2.6989,2.667,2.6183,2.5725,2.5357,2.5142,2.5134,2.5103,2.5072,2.5072,2.5072,2.5072,2.5072,2.5072,2.5072,2.5072,2.5072,2.5072,2.5095,2.5032,2.4992,2.4889,2.472,2.4529,2.4474,2.4187,2.4012,2.3896,2.3634,2.3308,2.3117,2.3049,2.3046,2.2937,2.2711,2.2194,2.1318,2.0596,1.9791,1.9098,1.8575,1.8298,1.8149,1.8161,1.8191,1.8117,1.7932,1.7802,1.7599,1.7441,1.725,1.7151,1.712,1.7083,1.7168,1.7332,1.7634,1.804,1.8379,1.8669,1.8862,1.885,1.8687,1.8523,1.8291,1.7978,1.7457,1.7156,1.6921,1.6786,1.6591,1.6174,1.5849,1.5491,1.5094,1.4804,1.4396,1.3938,1.3268,1.2554,1.1064,0.957,0.9106,0.8428,0.8192,0.7922,0.7903,0.7903,0.7903,0.7903,0.7903,0.7903,0.7903,0.7903,0.7903,0.7903,0.7903,0.7903,0.7903,0.7903,0.7903,0.7903,2.9738,2.9716,2.9767,2.9892,2.9945,2.9494,2.9158,2.8898,2.8371,2.7844,2.7454,2.7321,2.7274,2.7107,2.6952,2.6549,2.6092,2.5572,2.5388,2.5357,2.5203,2.5072,2.5072,2.5072,2.5072,2.5072,2.5072,2.5072,2.5072,2.5072,2.5072,2.5072,2.5072,2.5072,2.5049,2.4944,2.4857,2.477,2.4553,2.4354,2.4323,2.3983,2.3642,2.3359,2.324,2.3176,2.2981,2.274,2.2165,2.1297,2.0557,1.9826,1.9189,1.8758,1.8478,1.8391,1.8426,1.8493,1.8535,1.8433,1.8427,1.8232,1.8026,1.7848,1.7717,1.7665,1.7688,1.7734,1.7975,1.8224,1.8389,1.8692,1.8906,1.9028,1.8983,1.8825,1.8698,1.8565,1.8237,1.7803,1.7522,1.7323,1.715,1.685,1.6396,1.6044,1.5691,1.5332,1.4936,1.4326,1.3734,1.2596,1.1739,1.0393,0.906,0.8659,0.8302,0.8071,0.7927,0.7908,0.7903,0.7903,0.7903,0.7903,0.7903,0.7903,0.7903,0.7903,0.7903,0.7903,0.7903,0.7903,0.7903,0.7903,0.7903,3.0387,3.031,3.0379,3.042,3.0348,2.9923,2.9518,2.8993,2.8534,2.7969,2.7362,2.7323,2.7267,2.7146,2.7059,2.6885,2.6574,2.5996,2.5753,2.5519,2.5365,2.5203,2.5111,2.5072,2.5072,2.5072,2.5072,2.5072,2.5072,2.5072,2.5072,2.5072,2.5072,2.5072,2.5057,2.5071,2.5072,2.5016,2.4857,2.4712,2.4553,2.4331,2.402,2.366,2.362,2.3486,2.3311,2.303,2.2469,2.1678,2.0929,2.0201,1.9521,1.9075,1.875,1.856,1.8662,1.8734,1.8807,1.8903,1.886,1.8669,1.867,1.8483,1.8337,1.8247,1.825,1.8296,1.8451,1.8676,1.8748,1.8944,1.9046,1.9104,1.9092,1.9044,1.8899,1.8776,1.8713,1.8317,1.7964,1.7637,1.7431,1.7044,1.6591,1.6136,1.5784,1.5262,1.4824,1.4033,1.3246,1.1856,1.0708,0.9572,0.8698,0.8437,0.8185,0.8038,0.793,0.7905,0.7903,0.7903,0.7903,0.7903,0.7903,0.7903,0.7903,0.7903,0.7903,0.7903,0.7903,0.7903,0.7903,0.7903,0.7903,3.107,3.0726,3.075,3.0737,3.0628,3.0026,2.9888,2.9932,2.9199,2.8619,2.7887,2.79,2.7596,2.7223,2.7139,2.6949,2.6672,2.6568,2.6253,2.5935,2.5732,2.5547,2.522,2.5072,2.5283,2.5314,2.5212,2.5072,2.5103,2.5134,2.5072,2.5072,2.5072,2.5072,2.5072,2.5072,2.5072,2.5095,2.5056,2.4897,2.465,2.4577,2.4362,2.4124,2.402,2.3965,2.3816,2.353,2.3085,2.2468,2.1781,2.1009,2.0209,1.9701,1.9338,1.9121,1.905,1.903,1.9012,1.9074,1.9104,1.8982,1.9008,1.8982,1.888,1.8848,1.8842,1.8982,1.9014,1.8982,1.8982,1.9072,1.9104,1.9104,1.9098,1.9098,1.9026,1.8953,1.8901,1.8723,1.8311,1.7899,1.7561,1.7168,1.6748,1.6294,1.5839,1.5323,1.4553,1.3678,1.2546,1.113,1.0091,0.8986,0.8567,0.8247,0.8108,0.7984,0.7935,0.7903,0.7903,0.7903,0.7903,0.7903,0.7903,0.7903,0.7903,0.7903,0.7903,0.7903,0.7903,0.7903,0.7903,0.7903,0.7903,3.1497,3.1162,3.1121,3.1121,3.1038,3.0304,2.9966,2.9788,2.9108,2.8497,2.8113,2.8034,2.7778,2.7423,2.7542,2.7465,2.7221,2.7189,2.711,2.675,2.6553,2.6413,2.6352,2.628,2.6208,2.5918,2.5901,2.5703,2.5499,2.5211,2.5072,2.5111,2.5072,2.5072,2.5072,2.5072,2.5072,2.5072,2.5057,2.5032,2.4921,2.4849,2.4706,2.4402,2.4378,2.4313,2.4126,2.3958,2.3545,2.2975,2.2417,2.1727,2.089,2.0231,1.9724,1.938,1.9194,1.9098,1.9098,1.9104,1.9104,1.9104,1.9104,1.9072,1.9104,1.9104,1.9104,1.9104,1.9104,1.9104,1.9104,1.9104,1.9104,1.9104,1.9104,1.9104,1.9104,1.9104,1.9016,1.8874,1.8655,1.8173,1.7723,1.7297,1.6877,1.6429,1.5941,1.5416,1.4301,1.2964,1.171,1.027,0.941,0.8589,0.8425,0.823,0.8173,0.8076,0.7966,0.7941,0.7903,0.7903,0.7903,0.7903,0.7903,0.7903,0.7903,0.7903,0.7903,0.7903,0.7903,0.7933,0.7964,0.7964,0.7994,3.1827,3.1566,3.1465,3.141,3.1327,3.0534,3.004,2.9754,2.8998,2.8466,2.817,2.8037,2.7848,2.7812,2.8071,2.8134,2.7753,2.7966,2.7856,2.7714,2.7459,2.7235,2.7059,2.7075,2.6968,2.676,2.6643,2.6361,2.5946,2.5617,2.5446,2.515,2.5072,2.5072,2.5072,2.5072,2.5072,2.5072,2.5072,2.5065,2.5049,2.5049,2.4944,2.4785,2.4682,2.4587,2.4394,2.4378,2.4042,2.3444,2.2943,2.2205,2.1199,2.0428,1.9833,1.9488,1.92,1.9104,1.9104,1.9104,1.9104,1.9104,1.9104,1.9104,1.9104,1.9104,1.9104,1.9104,1.9104,1.9104,1.9104,1.9104,1.9104,1.9104,1.9104,1.9104,1.9104,1.9104,1.9072,1.8982,1.872,1.8366,1.7916,1.7459,1.7012,1.6596,1.6077,1.5518,1.4132,1.2553,1.1306,0.9987,0.9258,0.861,0.8478,0.8352,0.8246,0.8189,0.8108,0.8069,0.8091,0.7994,0.7903,0.7903,0.7933,0.7903,0.7903,0.7903,0.7903,0.7903,0.7933,0.7994,0.8025,0.8027,0.815,3.2001,3.1928,3.1575,3.1419,3.1355,3.0534,3.0213,3.0114,2.93,2.8783,2.8457,2.8178,2.8059,2.8163,2.865,2.8716,2.8161,2.8844,2.8581,2.8054,2.7657,2.7639,2.7553,2.7481,2.7335,2.7252,2.7299,2.7036,2.6638,2.6494,2.5925,2.5243,2.5227,2.5142,2.5072,2.5072,2.5072,2.5072,2.5072,2.5072,2.5072,2.5072,2.5071,2.5063,2.5017,2.5048,2.5024,2.4906,2.4522,2.384,2.3245,2.2443,2.1362,2.0531,1.9871,1.9424,1.92,1.9104,1.9104,1.9104,1.9104,1.9104,1.9104,1.9104,1.9104,1.9104,1.9104,1.9104,1.9104,1.9104,1.9104,1.9104,1.9104,1.9104,1.9104,1.9104,1.9104,1.9104,1.9072,1.9046,1.8758,1.8372,1.7878,1.7394,1.7141,1.6726,1.5974,1.5383,1.3777,1.2264,1.1181,1.0072,0.931,0.8817,0.8675,0.8566,0.8485,0.85,0.8451,0.8403,0.8366,0.8211,0.8027,0.7964,0.7994,0.7964,0.7903,0.7903,0.7903,0.7903,0.7964,0.8089,0.8214,0.8305,0.8458,3.2459,3.2001,3.1827,3.1648,3.1364,3.08,3.0561,3.0424,2.973,2.9174,2.8803,2.8666,2.8643,2.8846,2.9197,2.9386,2.9187,2.9407,2.9251,2.9043,2.8806,2.8612,2.8491,2.8415,2.8398,2.8221,2.8162,2.7849,2.7338,2.7305,2.679,2.6201,2.5695,2.5281,2.5173,2.5103,2.5072,2.5072,2.5072,2.5072,2.5072,2.5072,2.5072,2.5072,2.5072,2.498,2.481,2.4787,2.4386,2.3798,2.3113,2.2237,2.1355,2.0539,1.9903,1.9392,1.92,1.9104,1.9104,1.9104,1.9104,1.9104,1.9104,1.9104,1.9104,1.9104,1.9104,1.9104,1.9104,1.9104,1.9104,1.9104,1.9104,1.9104,1.9104,1.9104,1.9072,1.9072,1.8982,1.886,1.8603,1.8276,1.7755,1.726,1.7071,1.6818,1.6034,1.5085,1.351,1.2169,1.1152,1.0224,0.9437,0.8962,0.8823,0.8781,0.8744,0.8796,0.8827,0.8735,0.8671,0.843,0.8244,0.8183,0.8058,0.7964,0.7933,0.7903,0.7903,0.7903,0.8058,0.8244,0.84,0.8534,0.8588,3.2634,3.201,3.1873,3.1653,3.1373,3.0956,3.0781,3.0662,3.0088,2.9626,2.9342,2.936,2.9398,2.9521,2.9853,2.9946,2.9949,3.0071,3.0054,2.9876,2.9705,2.9643,2.9643,2.9583,2.9436,2.9265,2.9067,2.8725,2.8239,2.8103,2.7582,2.6966,2.6444,2.6018,2.5296,2.5134,2.5072,2.5072,2.5072,2.5072,2.5072,2.5072,2.498,2.4949,2.4919,2.4641,2.4355,2.4108,2.3736,2.3113,2.2456,2.1796,2.1096,2.0462,1.9858,1.952,1.9264,1.9104,1.9104,1.9104,1.9104,1.9104,1.9104,1.9104,1.9104,1.9104,1.9104,1.9104,1.9104,1.9104,1.9104,1.9104,1.9104,1.9104,1.9104,1.9104,1.9008,1.8976,1.8828,1.8673,1.8314,1.7857,1.7104,1.6548,1.6196,1.6071,1.5676,1.4693,1.3346,1.2165,1.1317,1.0425,0.9582,0.9229,0.895,0.9004,0.904,0.9217,0.9217,0.9068,0.8915,0.8674,0.8461,0.8308,0.8183,0.8027,0.7933,0.7903,0.7903,0.7903,0.8119,0.8339,0.8413,0.8495,0.84,3.2404,3.1964,3.1598,3.1446,3.1341,3.0997,3.0818,3.0831,3.0387,3.014,3.0048,3.0066,3.0112,3.0188,3.0458,3.0501,3.0442,3.0653,3.0644,3.0393,3.0239,3.0313,3.0272,3.0222,3.0098,3.0222,2.993,2.9511,2.92,2.8912,2.836,2.7834,2.7338,2.6719,2.5675,2.5265,2.5111,2.5072,2.5072,2.5072,2.5072,2.5072,2.4949,2.4764,2.4641,2.4355,2.3736,2.3362,2.2887,2.2174,2.1538,2.0938,2.0303,1.9896,1.9482,1.92,1.9136,1.9104,1.9104,1.9104,1.9104,1.9104,1.9104,1.9104,1.9104,1.9104,1.9104,1.9104,1.9104,1.9104,1.9104,1.9104,1.9104,1.9104,1.9104,1.904,1.895,1.872,1.8533,1.8115,1.7696,1.7238,1.6418,1.5704,1.5323,1.5099,1.5029,1.424,1.2955,1.2099,1.1218,1.0524,0.9727,0.9514,0.9269,0.9277,0.9379,0.9552,0.9579,0.9396,0.9186,0.8976,0.8732,0.8491,0.8244,0.8027,0.7964,0.7903,0.7994,0.8089,0.8214,0.8389,0.8445,0.8355,0.8153,3.2771,3.2368,3.1964,3.1634,3.1419,3.1272,3.1208,3.1112,3.0772,3.0451,3.0231,3.0204,3.0378,3.0571,3.0736,3.0874,3.1025,3.0799,3.0782,3.0717,3.0564,3.0411,3.0411,3.0467,3.0434,3.0369,3.0222,3.0154,3.0013,2.958,2.9219,2.875,2.7775,2.6894,2.607,2.5495,2.5072,2.5072,2.5072,2.5072,2.5072,2.5072,2.4919,2.461,2.4386,2.3829,2.2981,2.2613,2.1985,2.1229,2.0627,2.024,1.9794,1.9456,1.9264,1.9104,1.9104,1.9104,1.9104,1.9104,1.9104,1.9104,1.9104,1.9104,1.9104,1.9104,1.9104,1.9104,1.9104,1.9104,1.9104,1.9104,1.9104,1.9104,1.9072,1.8918,1.8758,1.8393,1.8039,1.7427,1.691,1.5899,1.4987,1.4296,1.3875,1.3748,1.3645,1.3354,1.2301,1.174,1.1045,1.0491,0.9879,0.9713,0.9586,0.9536,0.9538,0.967,0.9727,0.967,0.9457,0.9186,0.8915,0.8641,0.8336,0.8027,0.8027,0.8089,0.8183,0.8308,0.843,0.8396,0.8347,0.8079,0.7655,3.2771,3.2359,3.1955,3.1643,3.1428,3.141,3.141,3.1364,3.1102,3.0868,3.0662,3.0626,3.0745,3.0947,3.102,3.1107,3.1377,3.1184,3.1064,3.1032,3.0879,3.0815,3.0782,3.0759,3.0847,3.0726,3.0597,3.0514,3.0293,2.9976,2.9576,2.897,2.8027,2.7329,2.6595,2.5949,2.5295,2.5263,2.5215,2.5072,2.5072,2.5042,2.4857,2.4448,2.4015,2.3425,2.2487,2.1765,2.1204,2.0437,1.996,1.9699,1.9418,1.9264,1.9104,1.9104,1.9104,1.9104,1.9104,1.9104,1.9104,1.9104,1.9104,1.9104,1.9104,1.9104,1.9104,1.9104,1.9104,1.9104,1.9104,1.9104,1.9104,1.9104,1.895,1.879,1.8334,1.7975,1.726,1.6645,1.5769,1.4693,1.3645,1.2886,1.2297,1.2264,1.2227,1.1971,1.174,1.1299,1.0842,1.032,0.9974,0.9819,0.9729,0.968,0.971,0.9795,0.9788,0.9788,0.9548,0.9214,0.9004,0.8793,0.8427,0.8214,0.8214,0.8275,0.8488,0.861,0.8671,0.8545,0.8298,0.7807,0.7321,3.2386,3.1983,3.1593,3.1419,3.141,3.141,3.141,3.141,3.1391,3.1341,3.1364,3.1309,3.13,3.1355,3.135,3.135,3.1368,3.1345,3.1345,3.1345,3.1258,3.1281,3.1281,3.1281,3.1226,3.1193,3.1032,3.0653,3.0402,2.9896,2.9535,2.9041,2.8094,2.7636,2.7092,2.6447,2.5762,2.5501,2.5326,2.5176,2.5104,2.5011,2.4703,2.4263,2.3673,2.2894,2.1954,2.1109,2.0443,1.9807,1.936,1.92,1.9104,1.9104,1.9104,1.9104,1.9104,1.9104,1.9104,1.9104,1.9104,1.9104,1.9104,1.9104,1.9104,1.9104,1.9104,1.9104,1.9104,1.9104,1.9104,1.9104,1.9104,1.8982,1.8822,1.8431,1.7878,1.726,1.6483,1.5671,1.4726,1.3678,1.2626,1.1802,1.1409,1.131,1.1343,1.1244,1.1071,1.092,1.0484,1.0162,0.9903,0.9937,0.9848,0.9774,0.9771,0.9792,0.9788,0.9758,0.9488,0.9214,0.8943,0.8671,0.8491,0.8369,0.8308,0.8549,0.8912,0.8943,0.879,0.8481,0.8164,0.7505,0.7018,3.2533,3.2349,3.1671,3.141,3.141,3.141,3.141,3.141,3.141,3.141,3.141,3.141,3.141,3.141,3.141,3.141,3.141,3.141,3.141,3.141,3.141,3.141,3.141,3.141,3.141,3.1281,3.1055,3.0741,3.049,2.9929,2.9078,2.851,2.7908,2.7695,2.7368,2.6809,2.6184,2.5715,2.5517,2.5374,2.5115,2.4982,2.4564,2.4106,2.3388,2.2549,2.1721,2.0769,2.0119,1.9666,1.9308,1.911,1.9104,1.9104,1.9104,1.9104,1.9104,1.9104,1.9104,1.9104,1.9104,1.9104,1.9104,1.9104,1.9104,1.9104,1.9104,1.9104,1.9104,1.9104,1.9104,1.9104,1.9104,1.9008,1.8726,1.8141,1.7523,1.6645,1.5801,1.453,1.3584,1.2725,1.1674,1.1244,1.0916,1.0684,1.0555,1.0522,1.0525,1.0471,1.0287,0.9964,0.9854,0.9883,0.9884,0.9852,0.9802,0.9788,0.9788,0.967,0.9366,0.9095,0.8824,0.8583,0.84,0.8369,0.8369,0.8702,0.9126,0.8909,0.8705,0.8369,0.7963,0.7363,0.6887,3.2597,3.2478,3.1749,3.141,3.141,3.141,3.141,3.141,3.141,3.141,3.141,3.141,3.141,3.141,3.141,3.141,3.141,3.141,3.141,3.141,3.1377,3.141,3.141,3.1377,3.1281,3.112,3.0829,3.0417,3.0059,2.9233,2.8353,2.7898,2.7484,2.7451,2.7263,2.6881,2.6393,2.6015,2.5755,2.5597,2.5298,2.5015,2.4662,2.4002,2.3203,2.2536,2.1776,2.0851,2.027,1.9796,1.9455,1.9201,1.9159,1.9104,1.9104,1.9104,1.9104,1.9104,1.9104,1.9104,1.9104,1.9104,1.9104,1.9104,1.9104,1.9104,1.9104,1.9104,1.9104,1.9104,1.9104,1.9104,1.9104,1.9104,1.8495,1.7884,1.7007,1.6066,1.4824,1.3453,1.2499,1.171,1.1082,1.0717,1.0422,1.0223,1.016,1.0226,1.031,1.0366,1.0195,0.9922,0.9829,0.9825,0.9841,0.9869,0.9825,0.9788,0.9788,0.964,0.9278,0.8976,0.8732,0.8519,0.8339,0.84,0.8583,0.8912,0.9244,0.9031,0.8848,0.8532,0.8073,0.7372,0.6967,3.2625,3.2533,3.1717,3.141,3.141,3.141,3.141,3.141,3.141,3.141,3.141,3.141,3.141,3.141,3.141,3.141,3.141,3.141,3.141,3.1377,3.1281,3.1281,3.1281,3.1281,3.1032,3.0773,3.0319,2.9733,2.8905,2.8006,2.7243,2.7,2.6625,2.6458,2.6501,2.6453,2.6047,2.5776,2.5652,2.5539,2.5367,2.527,2.4994,2.4053,2.3421,2.2841,2.2062,2.1352,2.068,2.017,1.9791,1.951,1.9255,1.911,1.911,1.9104,1.9104,1.9104,1.9104,1.9104,1.9104,1.9104,1.9104,1.9104,1.9104,1.9104,1.9104,1.9104,1.9104,1.9104,1.9104,1.9104,1.9104,1.8912,1.8463,1.7615,1.6608,1.5341,1.3715,1.2536,1.1876,1.1118,1.0916,1.0618,1.0518,1.0093,1.0027,1.0127,1.0158,1.0303,1.0181,0.995,0.9857,0.9807,0.9811,0.9819,0.9808,0.9788,0.9788,0.9609,0.9278,0.8943,0.8641,0.8488,0.84,0.8644,0.8885,0.9217,0.9457,0.9488,0.9244,0.8848,0.8265,0.7608,0.7181,3.2881,3.2524,3.1717,3.141,3.141,3.141,3.141,3.141,3.141,3.141,3.141,3.141,3.141,3.141,3.141,3.141,3.141,3.141,3.141,3.1249,3.1161,3.0967,3.0903,3.0709,3.0588,3.0328,2.9765,2.8675,2.7409,2.6509,2.5805,2.524,2.5071,2.5172,2.5315,2.5315,2.5334,2.5208,2.5026,2.487,2.4667,2.4238,2.3771,2.3343,2.2899,2.2572,2.2011,2.172,2.1185,2.0699,2.0375,1.9963,1.9437,1.9231,1.9128,1.9104,1.9116,1.9104,1.9104,1.9104,1.9104,1.9104,1.9104,1.9104,1.9104,1.9104,1.9104,1.9104,1.9104,1.9104,1.9104,1.9104,1.9072,1.8784,1.8393,1.7351,1.6241,1.4455,1.2667,1.1945,1.1284,1.0953,1.075,1.0651,1.0552,1.0522,1.0522,1.0531,1.0422,1.0433,1.0334,1.0116,0.9881,0.9808,0.9798,0.9788,0.9788,0.9788,0.9788,0.9548,0.9247,0.8912,0.8641,0.8583,0.8583,0.8824,0.9129,0.946,0.967,0.9731,0.9518,0.9062,0.8787,0.8251,0.7744,3.3058,3.278,3.2001,3.1543,3.1428,3.141,3.141,3.141,3.141,3.141,3.141,3.141,3.141,3.141,3.141,3.141,3.141,3.141,3.1281,3.1097,3.0773,3.0546,3.0352,3.0026,2.9798,2.9504,2.8477,2.7243,2.5839,2.5124,2.4522,2.3884,2.3782,2.385,2.3952,2.419,2.4292,2.4285,2.4054,2.3836,2.3691,2.3406,2.316,2.2867,2.2626,2.2345,2.2197,2.1989,2.1756,2.1205,2.0737,2.0198,1.9714,1.9449,1.9316,1.9249,1.9201,1.9104,1.9104,1.9104,1.9104,1.9104,1.9104,1.9104,1.9104,1.9104,1.9104,1.9104,1.9104,1.9104,1.9104,1.9104,1.9104,1.8944,1.8232,1.7324,1.5596,1.3645,1.2503,1.1879,1.1317,1.0853,1.0684,1.0684,1.0618,1.0618,1.0684,1.0684,1.0633,1.051,1.0403,1.0247,1.0002,0.9829,0.9795,0.9788,0.9788,0.9788,0.9788,0.9579,0.9305,0.8912,0.8641,0.8671,0.8793,0.9065,0.9369,0.9609,0.9731,0.9761,0.9518,0.9217,0.9007,0.8857,0.85,3.3205,3.3037,3.2313,3.1763,3.1446,3.141,3.141,3.141,3.141,3.141,3.141,3.141,3.141,3.141,3.141,3.141,3.1377,3.1281,3.1129,3.0741,3.0287,2.9855,2.9463,2.9168,2.8741,2.8039,2.7069,2.5831,2.4488,2.3877,2.3297,2.2797,2.2729,2.2825,2.3065,2.3167,2.3201,2.3167,2.2962,2.2722,2.2702,2.2825,2.2662,2.2539,2.2482,2.2523,2.2372,2.2258,2.2134,2.1687,2.1013,2.0431,1.9954,1.9648,1.9503,1.94,1.9213,1.9134,1.9104,1.9104,1.9104,1.9104,1.9104,1.9104,1.9104,1.9104,1.9104,1.9104,1.9104,1.9104,1.9104,1.9104,1.9104,1.8714,1.7942,1.7001,1.4982,1.3058,1.2338,1.1747,1.1317,1.082,1.0721,1.0721,1.0721,1.0721,1.0721,1.0721,1.0677,1.0527,1.0417,1.0236,1.0028,0.991,0.9815,0.9788,0.9788,0.9788,0.9758,0.9579,0.9366,0.9004,0.8824,0.8854,0.9034,0.9156,0.9366,0.9576,0.9697,0.9788,0.967,0.9457,0.9403,0.9258,0.9189,3.3303,3.267,3.2203,3.1772,3.1405,3.1377,3.141,3.141,3.1377,3.141,3.1345,3.1377,3.141,3.141,3.141,3.1377,3.1281,3.1097,3.0741,3.0384,2.9528,2.8929,2.8444,2.7948,2.7251,2.6509,2.5689,2.4711,2.357,2.2681,2.2035,2.1628,2.1593,2.1628,2.1656,2.1863,2.2138,2.2104,2.1904,2.1662,2.1691,2.1829,2.2007,2.1869,2.1628,2.1938,2.2104,2.2304,2.2278,2.1962,2.1306,2.0678,2.0197,1.9854,1.9648,1.9509,1.9316,1.9165,1.9134,1.911,1.9104,1.9104,1.9104,1.9104,1.9104,1.9104,1.9104,1.9104,1.9104,1.9104,1.9104,1.9046,1.8982,1.8071,1.7265,1.5991,1.4366,1.2992,1.1945,1.1549,1.1185,1.0853,1.0721,1.0721,1.0721,1.0721,1.0721,1.0684,1.0604,1.0493,1.037,1.0174,0.9967,0.9937,0.9819,0.9795,0.9788,0.9788,0.9758,0.964,0.9427,0.9095,0.8976,0.9004,0.9004,0.9065,0.9305,0.9576,0.9697,0.9788,0.9788,0.9731,0.9667,0.9622,0.9492]},{"header":{"parameterUnit":"m.s-1","parameterCategory":1,"la1":31.0,"la2":29.5877,"lo1":-88.7671,"lo2":-86.6584,"dy":0.0162,"dx":0.0185,"nx":115,"ny":88,"refTime":"2024-09-01T06:00:00:Z","depth":0,"parameterNumber":3,"parameterNumberName":"V-component_of_WINDS"},"data":[0.0,0.0,0.0,0.0,0.0,0.0,0.0,0.0,0.0,0.0,0.0,0.0,0.0,0.0,0.0,0.0,0.0,0.0,0.0,0.0,0.0,0.0,0.0,0.0,0.0,0.0,0.0,0.0,0.0,0.0,0.0,0.0,0.0,0.0,0.0,0.0,0.0,0.0,0.0,0.0,0.0,0.0,0.0,0.0,0.0,0.0,0.0,0.0,0.0,0.0,0.0,0.0,0.0,0.0,0.0,0.0,0.0,0.0,0.0,0.0,0.0,0.0,0.0,0.0,0.0,0.0,0.0,0.0,0.0,0.0,0.0,0.0,0.0,0.0,0.0,0.0,0.0,0.0,0.0,0.0,0.0,0.0,0.0,0.0,0.0,0.0,0.0,0.0,0.0,0.0,0.0,0.0,0.0,0.0,0.0,0.0,0.0,0.0,0.0,0.0,0.0,0.0,0.0,0.0,0.0,0.0,0.0,0.0,0.0,0.0,0.0,0.0,0.0,0.0,0.0,0.0,0.0,0.0,0.0,0.0,0.0,0.0,0.0,0.0,0.0,0.0,0.0,0.0,0.0,0.0,0.0,0.0,0.0,0.0,0.0,0.0,0.0,0.0,0.0,0.0,0.0,0.0,0.0,0.0,0.0,0.0,0.0,0.0,0.0,0.0,0.0,0.0,0.0,0.0,0.0,0.0,0.0,0.0,0.0,0.0,0.0,0.0,0.0,0.0,0.0,0.0,0.0,0.0,0.0,0.0,0.0,0.0,0.0,0.0,0.0,0.0,0.0,0.0,0.0,0.0,0.0,0.0,0.0,0.0,0.0,0.0,0.0,0.0,0.0,0.0,0.0,0.0,0.0,0.0,0.0,0.0,0.0,0.0,0.0,0.0,0.0,0.0,0.0,0.0,0.0,0.0,0.0,0.0,0.0,0.0,0.0,0.0,0.0,0.0,0.0,0.0,0.0,0.0,0.0,0.0,0.0,0.0,0.0,0.0,0.0,0.0,0.0,0.0,0.0,0.0,0.0,0.0,0.0,0.0,0.0,0.0,0.0,0.0,0.0,0.0,0.0,0.0,0.0,0.0,0.0,0.0,0.0,0.0,0.0,0.0,0.0,0.0,0.0,0.0,0.0,0.0,0.0,0.0,0.0,0.0,0.0,0.0,0.0,0.0,0.0,0.0,0.0,0.0,0.0,0.0,0.0,0.0,0.0,0.0,0.0,0.0,0.0,0.0,0.0,0.0,0.0,0.0,0.0,0.0,0.0,0.0,0.0,0.0,0.0,0.0,0.0,0.0,0.0,0.0,0.0,0.0,0.0,0.0,0.0,0.0,0.0,0.0,0.0,0.0,0.0,0.0,0.0,0.0,0.0,0.0,0.0,0.0,0.0,0.0,0.0,0.0,0.0,0.0,0.0,0.0,0.0,0.0,0.0,0.0,0.0,0.0,0.0,0.0,0.0,0.0,0.0,0.0,0.0,0.0,0.0,0.0,0.0,0.0,0.0,0.0,0.0,0.0,0.0,0.0,0.0,0.0,0.0,0.0,0.0,0.0,0.0,0.0,0.0,0.0,0.0,0.0,0.0,0.0,0.0,0.0,0.0,0.0,0.0,0.0,0.0,0.0,0.0,0.0,0.0,0.0,0.0,0.0,0.0,0.0,0.0,0.0,0.0,0.0,0.0,0.0,0.0,0.0,0.0,0.0,0.0,0.0,0.0,0.0,0.0,0.0,0.0,0.0,0.0,0.0,0.0,0.0,0.0,0.0,0.0,0.0,0.0,0.0,0.0,0.0,0.0,0.0,0.0,0.0,0.0,0.0,0.0,0.0,0.0,0.0,0.0,0.0,0.0,0.0,0.0,0.0,0.0,0.0,0.0,0.0,0.0,0.0,0.0,0.0,0.0,0.0,0.0,0.0,0.0,0.0,0.0,0.0,0.0,0.0,0.0,0.0,0.0,0.0,0.0,0.0,0.0,0.0,0.0,0.0,0.0,0.0,0.0,0.0,0.0,0.0,0.0,0.0,0.0,0.0,0.0,0.0,0.0,0.0,0.0,0.0,0.0,0.0,0.0,0.0,0.0,0.0,0.0,0.0,0.0,0.0,0.0,0.0,0.0,0.0,0.0,0.0,0.0,0.0,0.0,0.0,0.0,0.0,0.0,0.0,0.0,0.0,0.0,0.0,0.0,0.0,0.0,0.0,0.0,0.0,0.0,0.0,0.0,0.0,0.0,0.0,0.0,0.0,0.0,0.0,0.0,0.0,0.0,0.0,0.0,0.0,0.0,0.0,0.0,0.0,0.0,0.0,0.0,0.0,0.0,0.0,0.0,0.0,0.0,0.0,0.0,0.0,0.0,0.0,0.0,0.0,0.0,0.0,0.0,0.0,0.0,0.0,0.0,0.0,0.0,0.0,0.0,0.0,0.0,0.0,0.0,0.0,0.0,0.0,0.0,0.0,0.0,0.0,0.0,0.0,0.0,0.0,0.0,0.0,0.0,0.0,0.0,0.0,0.0,0.0,0.0,0.0,0.0,0.0,0.0,0.0,0.0,0.0,0.0,0.0,0.0,0.0,0.0,0.0,0.0,0.0,0.0,0.0,0.0,0.0,0.0,0.0,0.0,0.0,0.0,0.0,0.0,0.0,0.0,0.0,0.0,0.0,0.0,0.0,0.0,0.0,0.0,0.0,0.0,0.0,0.0,0.0,0.0,0.0,0.0,0.0,0.0,0.0,0.0,0.0,0.0,0.0,0.0,0.0,0.0,0.0,0.0,0.0,0.0,0.0,0.0,0.0,0.0,0.0,0.0,0.0,0.0,0.0,0.0,0.0,0.0,0.0,0.0,0.0,0.0,0.0,0.0,0.0,0.0,0.0,0.0,0.0,0.0,0.0,0.0,0.0,0.0,0.0,0.0,0.0,0.0,0.0,0.0,0.0,0.0,0.0,0.0,0.0,0.0,0.0,0.0,0.0,0.0,0.0,0.0,0.0,0.0,0.0,0.0,0.0,0.0,0.0,0.0,0.0,0.0,0.0,0.0,0.0,0.0,0.0,0.0,0.0,0.0,0.0,0.0,0.0,0.0,0.0,0.0,0.0,0.0,0.0,0.0,0.0,0.0,0.0,0.0,0.0,0.0,0.0,0.0,0.0,0.0,0.0,0.0,0.0,0.0,0.0,0.0,0.0,0.0,0.0,0.0,0.0,0.0,0.0,0.0,0.0,0.0,0.0,0.0,0.0,0.0,0.0,0.0,0.0,0.0,0.0,0.0,0.0,0.0,0.0,0.0,0.0,0.0,0.0,0.0,0.0,0.0,0.0,0.0,0.0,0.0,0.0,0.0,0.0,0.0,0.0,0.0,0.0,0.0,0.0,0.0,0.0,0.0,0.0,0.0,0.0,0.0,0.0,0.0,0.0,0.0,0.0,0.0,0.0,0.0,0.0,0.0,0.0,0.0,0.0,0.0,0.0,0.0,0.0,0.0,0.0,0.0,0.0,0.0,0.0,0.0,0.0,0.0,0.0,0.0,0.0,0.0,0.0,0.0,0.0,0.0,0.0,0.0,0.0,0.0,0.0,0.0,0.0,0.0,0.0,0.0,0.0,0.0,0.0,0.0,0.0,0.0,0.0,0.0,0.0,0.0,0.0,0.0,0.0,0.0,0.0,0.0,0.0,0.0,0.0,0.0,0.0,0.0,0.0,0.0,0.0,0.0,0.0,0.0,0.0,0.0,0.0,0.0,0.0,0.0,0.0,0.0,0.0,0.0,0.0,0.0,0.0,0.0,0.0,0.0,0.0,0.0,0.0,0.0,0.0,0.0,0.0,0.0,0.0,0.0,0.0,0.0,0.0,0.0,0.0,0.0,0.0,0.0,0.0,0.0,0.0,0.0,0.0,0.0,0.0,0.0,0.0,0.0,0.0,0.0,0.0,0.0,0.0,0.0,0.0,0.0,0.0,0.0,0.0,0.0,0.0,0.0,0.0,0.0,0.0,0.0,0.0,0.0,0.0,0.0,0.0,0.0,0.0,0.0,0.0,0.0,0.0,0.0,0.0,0.0,0.0,0.0,0.0,0.0,0.0,0.0,0.0,0.0,0.0,0.0,0.0,0.0,0.0,0.0,0.0,0.0,0.0,0.0,0.0,0.0,0.0,0.0,0.0,0.0,0.0,0.0,0.0,0.0,0.0,0.0,0.0,0.0,0.0,0.0,0.0,0.0,0.0,0.0,0.0,0.0,0.0,0.0,0.0,0.0,0.0,0.0,0.0,0.0,0.0,0.0,0.0,1.9228,0.0,0.0,0.0,0.0,0.0,0.0,0.0,0.0,0.0,0.0,0.0,0.0,0.0,0.0,0.0,0.0,0.0,0.0,0.0,0.0,0.0,0.0,0.0,0.0,0.0,0.0,0.0,0.0,0.0,0.0,0.0,0.0,0.0,0.0,0.0,0.0,0.0,0.0,0.0,0.0,0.0,0.0,0.0,0.0,0.0,0.0,0.0,0.0,0.0,0.0,0.0,0.0,0.0,0.0,0.0,0.0,0.0,0.0,0.0,0.0,0.0,0.0,0.0,0.0,0.0,0.0,0.0,0.0,0.0,0.0,0.0,0.0,0.0,0.0,0.0,0.0,0.0,0.0,0.0,0.0,0.0,0.0,0.0,0.0,0.0,0.0,0.0,0.0,0.0,0.0,0.0,0.0,0.0,0.0,0.0,0.0,0.0,0.0,0.0,0.0,0.0,0.0,0.0,0.0,0.0,0.0,0.0,0.0,0.0,0.0,1.8649,1.8755,1.8969,1.9383,2.0046,0.0,0.0,0.0,0.0,0.0,0.0,0.0,0.0,0.0,0.0,0.0,0.0,0.0,0.0,0.0,0.0,0.0,0.0,0.0,0.0,0.0,0.0,0.0,0.0,0.0,0.0,0.0,0.0,0.0,0.0,0.0,0.0,0.0,0.0,0.0,0.0,0.0,0.0,0.0,0.0,0.0,0.0,0.0,0.0,0.0,0.0,0.0,0.0,0.0,0.0,0.0,0.0,0.0,0.0,0.0,0.0,0.0,0.0,0.0,0.0,0.0,0.0,0.0,0.0,0.0,0.0,0.0,0.0,0.0,0.0,0.0,0.0,0.0,0.0,0.0,0.0,0.0,0.0,0.0,0.0,0.0,0.0,0.0,0.0,0.0,0.0,0.0,0.0,0.0,0.0,0.0,0.0,0.0,0.0,0.0,0.0,0.0,0.0,0.0,0.0,0.0,0.0,0.0,0.0,0.0,0.0,0.0,0.0,0.0,0.0,0.0,0.0,1.9176,1.9773,2.0673,0.0,0.0,0.0,0.0,0.0,0.0,0.0,0.0,0.0,0.0,0.0,0.0,0.0,0.0,0.0,0.0,0.0,0.0,0.0,0.0,0.0,0.0,0.0,0.0,0.0,0.0,0.0,0.0,0.0,0.0,0.0,0.0,0.0,0.0,0.0,0.0,0.0,0.0,0.0,0.0,0.0,0.0,0.0,0.0,0.0,0.0,0.0,0.0,0.0,0.0,0.0,0.0,0.0,0.0,0.0,0.0,0.0,0.0,0.0,0.0,0.0,0.0,0.0,0.0,0.0,0.0,0.0,0.0,0.0,0.0,0.0,0.0,0.0,0.0,0.0,0.0,0.0,0.0,0.0,0.0,0.0,0.0,0.0,0.0,0.0,0.0,0.0,0.0,0.0,0.0,0.0,0.0,0.0,0.0,0.0,0.0,0.0,0.0,0.0,0.0,0.0,0.0,0.0,0.0,0.0,0.0,0.0,0.0,0.0,0.0,1.8817,1.9073,1.9338,0.0,2.0645,0.0,0.0,0.0,0.0,0.0,0.0,0.0,0.0,0.0,0.0,0.0,0.0,0.0,0.0,0.0,0.0,0.0,0.0,0.0,0.0,0.0,0.0,0.0,0.0,0.0,0.0,0.0,0.0,0.0,0.0,0.0,0.0,0.0,0.0,0.0,0.0,0.0,0.0,0.0,0.0,0.0,0.0,0.0,0.0,0.0,0.0,0.0,0.0,0.0,0.0,0.0,0.0,0.0,0.0,0.0,0.0,0.0,0.0,0.0,0.0,0.0,0.0,0.0,0.0,0.0,0.0,0.0,0.0,0.0,0.0,0.0,0.0,0.0,0.0,0.0,0.0,0.0,0.0,0.0,0.0,0.0,0.0,0.0,0.0,0.0,0.0,0.0,0.0,0.0,0.0,0.0,0.0,0.0,0.0,0.0,0.0,0.0,0.0,0.0,0.0,0.0,0.0,0.0,0.0,0.0,0.0,0.0,0.0,0.0,0.0,1.9031,1.9204,2.0131,2.0683,0.0,0.0,0.0,0.0,0.0,0.0,0.0,0.0,0.0,0.0,0.0,0.0,0.0,0.0,0.0,0.0,0.0,0.0,0.0,0.0,0.0,0.0,0.0,0.0,0.0,0.0,0.0,0.0,0.0,0.0,0.0,0.0,0.0,0.0,0.0,0.0,0.0,0.0,0.0,0.0,0.0,0.0,0.0,0.0,0.0,0.0,0.0,0.0,0.0,0.0,0.0,0.0,0.0,0.0,0.0,0.0,0.0,0.0,0.0,0.0,0.0,0.0,0.0,0.0,0.0,0.0,0.0,0.0,0.0,0.0,0.0,0.0,0.0,0.0,0.0,0.0,0.0,0.0,0.0,0.0,0.0,0.0,0.0,0.0,0.0,0.0,0.0,0.0,0.0,0.0,0.0,0.0,0.0,0.0,0.0,0.0,0.0,0.0,0.0,0.0,0.0,0.0,0.0,0.0,0.0,0.0,0.0,0.0,0.0,0.0,1.9026,1.9241,1.9565,2.0787,2.1215,2.0679,0.0,0.0,0.0,0.0,0.0,0.0,0.0,0.0,0.0,0.0,0.0,0.0,0.0,0.0,0.0,0.0,0.0,0.0,0.0,0.0,0.0,0.0,0.0,0.0,0.0,0.0,0.0,0.0,0.0,0.0,0.0,0.0,0.0,0.0,0.0,0.0,0.0,0.0,0.0,0.0,0.0,0.0,0.0,0.0,0.0,0.0,0.0,0.0,0.0,0.0,0.0,0.0,0.0,0.0,0.0,0.0,0.0,0.0,0.0,0.0,0.0,0.0,0.0,0.0,0.0,0.0,0.0,0.0,0.0,0.0,0.0,0.0,0.0,0.0,0.0,0.0,0.0,0.0,0.0,0.0,0.0,0.0,0.0,0.0,0.0,0.0,0.0,0.0,0.0,0.0,0.0,0.0,0.0,0.0,0.0,0.0,0.0,0.0,0.0,0.0,0.0,0.0,0.0,0.0,0.0,0.0,0.0,0.0,1.9068,1.9101,1.9411,2.0045,2.1099,2.1165,0.0,0.0,0.0,0.0,0.0,0.0,0.0,0.0,0.0,0.0,0.0,0.0,0.0,0.0,0.0,0.0,0.0,0.0,0.0,0.0,0.0,0.0,0.0,0.0,0.0,0.0,0.0,0.0,0.0,0.0,0.0,0.0,0.0,0.0,0.0,0.0,0.0,0.0,0.0,0.0,0.0,0.0,0.0,0.0,0.0,0.0,0.0,0.0,0.0,0.0,0.0,0.0,0.0,0.0,0.0,0.0,0.0,0.0,0.0,0.0,0.0,0.0,0.0,0.0,0.0,0.0,0.0,0.0,0.0,0.0,0.0,0.0,0.0,0.0,0.0,0.0,0.0,0.0,0.0,0.0,0.0,0.0,0.0,0.0,0.0,0.0,0.0,0.0,0.0,0.0,0.0,0.0,0.0,0.0,0.0,0.0,0.0,0.0,0.0,0.0,0.0,0.0,0.0,0.0,0.0,0.0,0.0,0.0,0.0,1.9293,1.9551,1.986,2.0278,2.0845,2.0773,0.0,0.0,0.0,0.0,0.0,0.0,0.0,0.0,0.0,0.0,0.0,0.0,0.0,0.0,0.0,0.0,0.0,0.0,0.0,0.0,0.0,0.0,0.0,0.0,0.0,0.0,0.0,0.0,0.0,0.0,0.0,0.0,0.0,0.0,0.0,0.0,0.0,0.0,0.0,0.0,0.0,0.0,0.0,0.0,0.0,0.0,0.0,0.0,0.0,0.0,0.0,0.0,0.0,0.0,0.0,0.0,0.0,0.0,0.0,0.0,0.0,0.0,0.0,0.0,0.0,0.0,0.0,0.0,0.0,0.0,0.0,0.0,0.0,0.0,0.0,0.0,0.0,0.0,0.0,0.0,0.0,0.0,0.0,0.0,0.0,0.0,0.0,0.0,0.0,0.0,0.0,0.0,0.0,0.0,0.0,0.0,0.0,0.0,0.0,0.0,0.0,0.0,0.0,0.0,0.0,0.0,0.0,0.0,0.0,1.9545,0.0,2.0242,0.0,2.0956,2.0814,0.0,0.0,0.0,0.0,0.0,0.0,0.0,0.0,0.0,0.0,0.0,0.0,0.0,0.0,0.0,0.0,0.0,0.0,0.0,0.0,0.0,0.0,0.0,0.0,0.0,0.0,0.0,0.0,0.0,0.0,0.0,0.0,0.0,0.0,0.0,0.0,0.0,0.0,0.0,0.0,0.0,0.0,0.0,0.0,0.0,0.0,0.0,0.0,0.0,0.0,0.0,0.0,0.0,0.0,0.0,0.0,0.0,0.0,0.0,0.0,0.0,0.0,0.0,0.0,0.0,0.0,0.0,0.0,0.0,0.0,0.0,0.0,0.0,0.0,0.0,0.0,0.0,0.0,0.0,0.0,0.0,0.0,0.0,0.0,0.0,0.0,0.0,0.0,0.0,0.0,0.0,0.0,0.0,0.0,0.0,0.0,0.0,0.0,0.0,0.0,0.0,0.0,0.0,0.0,0.0,0.0,0.0,0.0,1.9569,1.9845,2.0224,2.057,2.074,2.155,2.1398,0.0,0.0,0.0,0.0,0.0,0.0,0.0,0.0,0.0,0.0,0.0,0.0,0.0,0.0,0.0,0.0,0.0,0.0,0.0,0.0,0.0,0.0,0.0,0.0,0.0,0.0,0.0,0.0,0.0,0.0,0.0,0.0,0.0,0.0,0.0,0.0,0.0,0.0,0.0,0.0,0.0,0.0,0.0,0.0,0.0,0.0,0.0,0.0,0.0,0.0,0.0,0.0,0.0,0.0,0.0,0.0,0.0,0.0,0.0,0.0,0.0,0.0,0.0,0.0,0.0,0.0,0.0,0.0,0.0,0.0,0.0,0.0,0.0,0.0,0.0,0.0,0.0,0.0,0.0,0.0,0.0,0.0,0.0,0.0,0.0,0.0,0.0,0.0,0.0,0.0,0.0,0.0,0.0,0.0,0.0,0.0,0.0,0.0,0.0,0.0,0.0,0.0,0.0,0.0,0.0,0.0,0.0,0.0,0.0,2.0987,2.1287,2.1724,2.2311,2.2254,2.1785,0.0,0.0,0.0,0.0,0.0,0.0,0.0,0.0,0.0,0.0,0.0,0.0,0.0,0.0,0.0,0.0,0.0,0.0,0.0,0.0,0.0,0.0,0.0,0.0,0.0,0.0,0.0,0.0,0.0,0.0,0.0,0.0,0.0,0.0,0.0,0.0,0.0,0.0,0.0,0.0,0.0,0.0,0.0,0.0,0.0,0.0,0.0,0.0,0.0,0.0,0.0,0.0,0.0,0.0,0.0,0.0,0.0,0.0,0.0,0.0,0.0,0.0,0.0,0.0,0.0,0.0,0.0,0.0,0.0,0.0,0.0,0.0,0.0,0.0,0.0,0.0,0.0,0.0,0.0,0.0,0.0,0.0,0.0,0.0,0.0,0.0,0.0,0.0,0.0,0.0,0.0,0.0,0.0,0.0,0.0,0.0,0.0,0.0,0.0,0.0,0.0,0.0,0.0,0.0,0.0,0.0,0.0,0.0,0.0,2.3004,2.2899,2.3111,2.3692,2.3102,2.2442,2.1778,0.0,0.0,0.0,0.0,0.0,0.0,0.0,0.0,0.0,0.0,0.0,0.0,0.0,0.0,0.0,0.0,0.0,0.0,0.0,0.0,0.0,0.0,0.0,0.0,0.0,0.0,0.0,0.0,0.0,0.0,0.0,0.0,0.0,0.0,0.0,0.0,0.0,0.0,0.0,0.0,0.0,0.0,0.0,0.0,0.0,0.0,0.0,0.0,0.0,0.0,0.0,0.0,0.0,0.0,0.0,0.0,0.0,0.0,0.0,0.0,0.0,0.0,0.0,0.0,0.0,0.0,0.0,0.0,0.0,0.0,0.0,0.0,0.0,0.0,0.0,0.0,0.0,0.0,0.0,0.0,0.0,0.0,0.0,0.0,0.0,0.0,0.0,0.0,0.0,0.0,0.0,0.0,0.0,0.0,0.0,0.0,0.0,0.0,0.0,0.0,0.0,0.0,0.0,0.0,0.0,0.0,0.0,0.0,2.5719,2.5042,2.4755,2.49,2.4164,2.3447,0.0,0.0,0.0,0.0,0.0,0.0,0.0,0.0,0.0,0.0,0.0,0.0,0.0,0.0,0.0,0.0,0.0,0.0,0.0,0.0,0.0,0.0,0.0,0.0,0.0,0.0,0.0,0.0,0.0,0.0,0.0,0.0,0.0,0.0,0.0,0.0,0.0,0.0,0.0,0.0,0.0,0.0,0.0,0.0,0.0,0.0,0.0,0.0,0.0,0.0,0.0,0.0,0.0,0.0,0.0,0.0,0.0,0.0,0.0,0.0,0.0,0.0,0.0,0.0,0.0,0.0,0.0,0.0,0.0,0.0,0.0,0.0,0.0,0.0,0.0,0.0,0.0,0.0,0.0,0.0,0.0,0.0,0.0,0.0,0.0,0.0,0.0,0.0,0.0,0.0,0.0,0.0,0.0,0.0,0.0,0.0,0.0,0.0,0.0,0.0,0.0,0.0,0.0,0.0,0.0,0.0,0.0,0.0,0.0,2.7442,2.785,2.7745,2.7208,2.5977,2.4971,0.0,0.0,0.0,0.0,0.0,0.0,0.0,0.0,0.0,0.0,0.0,0.0,0.0,0.0,0.0,0.0,0.0,0.0,0.0,0.0,0.0,0.0,0.0,0.0,0.0,0.0,0.0,0.0,0.0,0.0,0.0,0.0,0.0,0.0,0.0,0.0,0.0,0.0,0.0,0.0,0.0,0.0,0.0,0.0,0.0,0.0,0.0,0.0,0.0,0.0,0.0,0.0,0.0,0.0,0.0,0.0,0.0,0.0,0.0,0.0,0.0,0.0,0.0,0.0,0.0,0.0,0.0,0.0,0.0,0.0,0.0,0.0,0.0,0.0,0.0,0.0,0.0,0.0,0.0,0.0,0.0,0.0,0.0,0.0,0.0,0.0,0.0,0.0,0.0,0.0,0.0,0.0,0.0,0.0,0.0,0.0,0.0,0.0,0.0,0.0,0.0,0.0,0.0,0.0,0.0,0.0,0.0,0.0,2.6935,2.9121,2.9881,3.0048,2.9574,2.7565,2.6001,0.0,0.0,0.0,0.0,0.0,0.0,0.0,0.0,0.0,0.0,0.0,0.0,0.0,0.0,0.0,0.0,0.0,0.0,0.0,0.0,0.0,0.0,0.0,0.0,0.0,0.0,0.0,0.0,0.0,0.0,0.0,0.0,0.0,0.0,0.0,0.0,0.0,0.0,0.0,0.0,0.0,0.0,0.0,0.0,0.0,0.0,0.0,0.0,0.0,0.0,0.0,0.0,0.0,0.0,0.0,0.0,0.0,0.0,0.0,0.0,0.0,0.0,0.0,0.0,0.0,0.0,0.0,0.0,0.0,0.0,0.0,0.0,0.0,0.0,0.0,0.0,0.0,0.0,0.0,0.0,0.0,0.0,0.0,0.0,0.0,0.0,0.0,0.0,0.0,0.0,0.0,0.0,0.0,0.0,0.0,0.0,0.0,0.0,0.0,0.0,0.0,0.0,0.0,0.0,0.0,0.0,0.0,0.0,2.8383,3.0566,3.1184,3.1548,3.1615,2.8996,2.6801,0.0,0.0,0.0,0.0,0.0,0.0,0.0,0.0,0.0,0.0,0.0,0.0,0.0,0.0,0.0,0.0,0.0,0.0,0.0,0.0,0.0,0.0,0.0,0.0,0.0,0.0,0.0,0.0,0.0,0.0,0.0,0.0,0.0,0.0,0.0,0.0,0.0,0.0,0.0,0.0,0.0,0.0,0.0,0.0,0.0,0.0,0.0,0.0,0.0,0.0,0.0,0.0,0.0,0.0,0.0,0.0,0.0,0.0,0.0,0.0,0.0,0.0,0.0,0.0,0.0,0.0,0.0,0.0,0.0,0.0,0.0,0.0,0.0,0.0,0.0,0.0,0.0,0.0,0.0,0.0,0.0,0.0,0.0,0.0,0.0,0.0,0.0,0.0,0.0,0.0,0.0,0.0,0.0,0.0,0.0,0.0,0.0,0.0,0.0,0.0,0.0,0.0,0.0,0.0,0.0,0.0,0.0,0.0,2.8615,3.1267,3.0952,3.1294,3.2431,3.0195,2.8028,0.0,0.0,0.0,0.0,0.0,0.0,0.0,0.0,0.0,0.0,0.0,0.0,0.0,0.0,0.0,0.0,0.0,0.0,0.0,0.0,0.0,0.0,0.0,0.0,0.0,0.0,0.0,0.0,0.0,0.0,0.0,0.0,0.0,0.0,0.0,0.0,0.0,0.0,0.0,0.0,0.0,0.0,0.0,0.0,0.0,0.0,0.0,0.0,2.9344,0.0,0.0,0.0,0.0,0.0,0.0,0.0,0.0,0.0,0.0,0.0,0.0,0.0,0.0,0.0,0.0,0.0,0.0,0.0,0.0,0.0,0.0,0.0,0.0,0.0,0.0,0.0,0.0,0.0,0.0,0.0,0.0,0.0,0.0,0.0,0.0,0.0,0.0,0.0,0.0,0.0,0.0,0.0,0.0,0.0,0.0,0.0,0.0,0.0,0.0,0.0,0.0,0.0,0.0,0.0,0.0,0.0,0.0,0.0,2.9709,3.2186,3.186,3.1988,3.2663,3.0591,2.8426,0.0,0.0,0.0,0.0,0.0,0.0,0.0,0.0,0.0,0.0,0.0,0.0,0.0,0.0,0.0,0.0,0.0,0.0,0.0,0.0,0.0,0.0,0.0,0.0,0.0,0.0,0.0,0.0,0.0,0.0,0.0,0.0,0.0,0.0,0.0,0.0,0.0,0.0,0.0,0.0,0.0,0.0,0.0,0.0,0.0,0.0,0.0,0.0,0.0,0.0,0.0,0.0,0.0,0.0,0.0,0.0,0.0,0.0,0.0,0.0,0.0,0.0,0.0,0.0,0.0,0.0,0.0,0.0,0.0,0.0,0.0,0.0,0.0,0.0,0.0,0.0,0.0,0.0,0.0,0.0,0.0,0.0,0.0,0.0,0.0,0.0,0.0,0.0,0.0,0.0,0.0,0.0,0.0,0.0,0.0,0.0,0.0,0.0,0.0,0.0,0.0,0.0,0.0,0.0,0.0,0.0,0.0,2.8665,3.0871,3.2987,3.2888,3.2761,3.2728,3.0514,2.8317,2.6245,0.0,0.0,0.0,0.0,0.0,0.0,0.0,0.0,0.0,0.0,0.0,0.0,0.0,0.0,0.0,0.0,0.0,0.0,0.0,0.0,0.0,0.0,0.0,0.0,0.0,0.0,0.0,0.0,0.0,0.0,0.0,0.0,0.0,0.0,0.0,0.0,0.0,0.0,2.8634,2.9036,0.0,0.0,0.0,0.0,0.0,0.0,0.0,0.0,2.8871,0.0,0.0,0.0,0.0,0.0,0.0,0.0,0.0,0.0,0.0,0.0,0.0,0.0,0.0,0.0,0.0,0.0,0.0,0.0,0.0,0.0,0.0,0.0,0.0,0.0,0.0,0.0,0.0,0.0,0.0,0.0,0.0,0.0,0.0,0.0,0.0,0.0,0.0,0.0,0.0,0.0,0.0,0.0,0.0,0.0,0.0,0.0,0.0,0.0,0.0,0.0,0.0,0.0,0.0,0.0,0.0,2.7194,2.8932,3.0871,3.302,3.2468,3.2139,3.21,2.9971,2.7815,2.5749,0.0,0.0,0.0,0.0,0.0,0.0,0.0,0.0,0.0,0.0,0.0,0.0,0.0,0.0,0.0,0.0,0.0,0.0,0.0,0.0,0.0,0.0,0.0,0.0,0.0,0.0,0.0,0.0,0.0,0.0,0.0,0.0,0.0,0.0,0.0,0.0,0.0,0.0,0.0,2.8728,2.8837,0.0,0.0,0.0,0.0,0.0,0.0,0.0,0.0,3.1431,0.0,0.0,0.0,0.0,0.0,0.0,0.0,0.0,0.0,0.0,0.0,0.0,0.0,0.0,0.0,0.0,0.0,0.0,0.0,0.0,0.0,0.0,0.0,0.0,0.0,0.0,0.0,0.0,0.0,0.0,0.0,0.0,0.0,0.0,0.0,0.0,0.0,0.0,0.0,0.0,0.0,0.0,0.0,0.0,0.0,0.0,0.0,0.0,0.0,0.0,0.0,0.0,0.0,0.0,0.0,2.7575,2.9892,3.1608,3.2641,3.2673,3.2288,3.1479,2.9681,2.7694,0.0,0.0,0.0,0.0,0.0,0.0,0.0,0.0,0.0,0.0,0.0,0.0,0.0,0.0,0.0,0.0,0.0,0.0,0.0,0.0,0.0,0.0,0.0,0.0,0.0,0.0,0.0,0.0,0.0,0.0,0.0,0.0,0.0,0.0,0.0,0.0,0.0,0.0,0.0,0.0,3.0025,3.045,3.0025,0.0,0.0,0.0,0.0,0.0,0.0,3.1776,3.1728,0.0,0.0,0.0,0.0,0.0,0.0,0.0,0.0,0.0,0.0,0.0,0.0,0.0,0.0,0.0,0.0,0.0,0.0,0.0,0.0,0.0,0.0,0.0,0.0,0.0,0.0,0.0,0.0,0.0,0.0,0.0,0.0,0.0,0.0,0.0,0.0,0.0,0.0,0.0,0.0,0.0,0.0,0.0,0.0,0.0,0.0,0.0,0.0,0.0,0.0,0.0,0.0,0.0,0.0,0.0,2.8163,3.0881,3.2368,3.2537,3.3045,3.2527,3.0884,2.9489,2.7699,0.0,0.0,0.0,0.0,0.0,0.0,0.0,0.0,0.0,0.0,0.0,0.0,0.0,0.0,0.0,0.0,0.0,0.0,0.0,0.0,0.0,0.0,0.0,0.0,0.0,0.0,0.0,0.0,0.0,0.0,0.0,0.0,0.0,0.0,0.0,0.0,0.0,0.0,0.0,0.0,0.0,3.2166,3.2166,3.1728,0.0,0.0,0.0,0.0,3.2232,3.2048,0.0,0.0,0.0,0.0,0.0,0.0,0.0,0.0,0.0,0.0,0.0,0.0,0.0,0.0,0.0,0.0,0.0,0.0,0.0,0.0,0.0,0.0,0.0,0.0,0.0,0.0,0.0,0.0,0.0,0.0,0.0,0.0,0.0,0.0,0.0,0.0,0.0,0.0,0.0,0.0,0.0,0.0,0.0,0.0,0.0,0.0,0.0,0.0,0.0,0.0,0.0,0.0,0.0,0.0,0.0,0.0,2.9594,3.1388,3.2615,3.3237,3.3334,3.2378,3.0265,2.9396,2.763,0.0,0.0,0.0,0.0,0.0,0.0,0.0,0.0,0.0,0.0,0.0,0.0,0.0,0.0,0.0,0.0,0.0,0.0,0.0,0.0,0.0,0.0,0.0,0.0,0.0,0.0,0.0,0.0,0.0,0.0,0.0,0.0,0.0,0.0,0.0,0.0,0.0,0.0,0.0,0.0,0.0,3.3042,3.3062,3.3643,3.3766,0.0,0.0,3.3199,3.4051,3.2908,0.0,0.0,0.0,0.0,0.0,0.0,0.0,0.0,0.0,0.0,0.0,0.0,0.0,0.0,0.0,0.0,0.0,0.0,0.0,0.0,0.0,0.0,0.0,0.0,0.0,0.0,0.0,0.0,0.0,0.0,0.0,0.0,0.0,0.0,0.0,0.0,0.0,0.0,0.0,0.0,0.0,0.0,0.0,0.0,0.0,0.0,0.0,0.0,0.0,0.0,0.0,0.0,0.0,0.0,0.0,2.7425,3.0037,3.2042,3.3022,3.2971,3.3356,3.2291,2.9673,2.9282,2.7743,0.0,0.0,0.0,0.0,0.0,0.0,0.0,0.0,0.0,0.0,0.0,0.0,0.0,0.0,0.0,0.0,0.0,0.0,0.0,0.0,0.0,0.0,0.0,0.0,0.0,0.0,0.0,0.0,0.0,0.0,0.0,0.0,0.0,0.0,0.0,0.0,0.0,0.0,0.0,0.0,0.0,0.0,3.4495,3.4553,0.0,0.0,0.0,3.4058,3.4427,0.0,0.0,0.0,0.0,0.0,0.0,0.0,0.0,0.0,0.0,0.0,0.0,0.0,0.0,0.0,0.0,0.0,0.0,0.0,0.0,0.0,0.0,0.0,0.0,0.0,0.0,0.0,0.0,0.0,0.0,0.0,0.0,0.0,0.0,0.0,0.0,0.0,0.0,0.0,0.0,0.0,0.0,0.0,0.0,0.0,0.0,0.0,0.0,0.0,0.0,0.0,0.0,0.0,0.0,0.0,0.0,0.0,3.0483,3.2546,3.337,3.2898,3.342,3.2252,2.9322,2.9246,0.0,0.0,0.0,0.0,0.0,0.0,0.0,0.0,0.0,0.0,0.0,0.0,0.0,0.0,0.0,0.0,0.0,0.0,0.0,0.0,0.0,0.0,0.0,0.0,0.0,0.0,0.0,2.1472,0.0,0.0,0.0,0.0,0.0,0.0,0.0,0.0,0.0,0.0,0.0,0.0,0.0,0.0,3.4116,3.5786,3.5512,3.5138,0.0,0.0,3.4814,3.481,3.447,3.3984,0.0,0.0,0.0,0.0,0.0,0.0,0.0,0.0,0.0,0.0,0.0,0.0,0.0,0.0,0.0,0.0,0.0,0.0,0.0,0.0,0.0,0.0,0.0,0.0,0.0,0.0,0.0,0.0,0.0,0.0,0.0,0.0,0.0,0.0,0.0,0.0,0.0,0.0,0.0,0.0,0.0,0.0,0.0,0.0,0.0,0.0,0.0,0.0,0.0,0.0,0.0,0.0,0.0,0.0,2.8901,3.1264,3.2818,3.3601,3.3642,3.3676,3.2259,2.9322,2.9333,2.8012,0.0,0.0,0.0,0.0,0.0,0.0,0.0,0.0,0.0,0.0,0.0,0.0,0.0,0.0,0.0,0.0,0.0,0.0,0.0,0.0,0.0,0.0,0.0,0.0,0.0,0.0,0.0,0.0,0.0,0.0,0.0,0.0,0.0,0.0,0.0,0.0,0.0,0.0,0.0,0.0,0.0,3.495,3.6661,3.6871,3.6836,0.0,3.6242,3.572,3.5702,3.4411,3.3364,3.3299,0.0,0.0,0.0,0.0,0.0,0.0,0.0,0.0,0.0,0.0,0.0,0.0,0.0,0.0,0.0,0.0,0.0,0.0,0.0,0.0,0.0,0.0,0.0,0.0,0.0,0.0,0.0,0.0,0.0,0.0,0.0,0.0,0.0,0.0,0.0,0.0,0.0,0.0,0.0,0.0,0.0,0.0,0.0,0.0,0.0,0.0,0.0,0.0,0.0,0.0,0.0,0.0,0.0,2.8626,3.1428,3.2989,3.411,3.4711,3.427,3.3034,3.1044,3.0127,2.8712,0.0,0.0,0.0,0.0,0.0,0.0,0.0,0.0,0.0,0.0,0.0,0.0,0.0,0.0,0.0,0.0,0.0,0.0,0.0,0.0,0.0,0.0,0.0,0.0,0.0,0.0,0.0,0.0,2.8006,2.9707,2.9931,0.0,0.0,0.0,0.0,0.0,0.0,0.0,0.0,0.0,0.0,3.5635,3.6824,3.6993,0.0,0.0,3.6366,3.5813,3.5855,3.5316,3.4715,3.4186,3.3595,0.0,0.0,0.0,0.0,0.0,0.0,0.0,0.0,0.0,0.0,0.0,0.0,0.0,0.0,0.0,0.0,0.0,0.0,0.0,0.0,0.0,0.0,0.0,0.0,0.0,0.0,0.0,0.0,0.0,0.0,0.0,0.0,0.0,0.0,0.0,0.0,0.0,0.0,0.0,0.0,0.0,0.0,0.0,0.0,0.0,0.0,0.0,0.0,0.0,0.0,0.0,0.0,2.8987,3.1867,3.324,3.4418,3.5359,3.4653,3.3592,3.217,3.0669,2.9236,0.0,0.0,0.0,0.0,0.0,0.0,0.0,0.0,0.0,0.0,0.0,0.0,0.0,0.0,0.0,0.0,0.0,0.0,0.0,0.0,0.0,0.0,0.0,0.0,0.0,0.0,0.0,0.0,2.9931,3.1602,3.0861,0.0,0.0,0.0,0.0,0.0,0.0,0.0,0.0,0.0,0.0,3.6106,3.7215,3.7174,3.7017,3.7085,3.636,3.5836,3.5866,3.5681,3.532,3.4703,0.0,0.0,0.0,0.0,0.0,0.0,0.0,0.0,0.0,0.0,0.0,0.0,0.0,0.0,0.0,0.0,0.0,0.0,0.0,0.0,0.0,0.0,0.0,0.0,0.0,0.0,0.0,2.7561,0.0,0.0,2.4372,0.0,0.0,0.0,0.0,0.0,0.0,0.0,0.0,0.0,0.0,0.0,0.0,0.0,0.0,0.0,0.0,0.0,0.0,0.0,0.0,0.0,0.0,3.0244,3.2737,3.3667,3.4543,3.5379,3.4739,3.3712,3.2275,3.085,2.9473,2.8133,0.0,0.0,0.0,0.0,0.0,0.0,0.0,0.0,0.0,0.0,0.0,0.0,0.0,0.0,0.0,0.0,0.0,0.0,0.0,0.0,0.0,0.0,0.0,0.0,0.0,0.0,2.8902,2.9768,3.0088,0.0,0.0,0.0,0.0,0.0,0.0,0.0,0.0,0.0,3.5256,3.5687,3.6336,3.8012,3.7529,3.7015,3.7082,3.6362,3.5803,3.5807,3.5175,3.4633,0.0,0.0,0.0,0.0,0.0,0.0,0.0,0.0,0.0,0.0,0.0,0.0,0.0,0.0,0.0,0.0,0.0,0.0,0.0,0.0,0.0,0.0,0.0,0.0,0.0,0.0,0.0,2.843,2.8531,0.0,0.0,0.0,0.0,0.0,0.0,0.0,0.0,0.0,0.0,0.0,2.9849,2.9933,0.0,0.0,0.0,0.0,0.0,0.0,0.0,0.0,0.0,0.0,0.0,0.0,3.0493,3.2879,3.4259,3.5416,3.6272,3.5632,3.4856,3.3952,3.2556,3.0795,2.8564,0.0,0.0,0.0,0.0,0.0,0.0,0.0,0.0,0.0,0.0,0.0,0.0,0.0,0.0,0.0,0.0,0.0,0.0,0.0,0.0,0.0,0.0,0.0,0.0,0.0,3.1072,0.0,0.0,0.0,0.0,0.0,0.0,0.0,0.0,0.0,0.0,0.0,3.5507,3.6391,3.6985,3.758,3.8155,3.752,3.7018,0.0,0.0,0.0,0.0,0.0,0.0,0.0,0.0,0.0,0.0,0.0,0.0,0.0,0.0,3.8672,3.8965,3.8555,3.8242,3.8535,0.0,0.0,0.0,0.0,0.0,0.0,0.0,0.0,0.0,0.0,0.0,0.0,0.0,0.0,3.1052,3.1397,2.9836,0.0,0.0,0.0,0.0,0.0,0.0,0.0,0.0,3.2988,3.3421,3.3018,3.3111,3.3461,0.0,3.4349,3.3871,0.0,0.0,0.0,0.0,0.0,0.0,0.0,0.0,3.1263,3.3379,3.4755,3.5881,3.6711,3.6136,3.5515,3.4898,3.3411,3.1556,2.9314,2.8096,2.6835,0.0,0.0,0.0,0.0,0.0,0.0,0.0,0.0,0.0,0.0,0.0,0.0,0.0,0.0,0.0,0.0,0.0,0.0,0.0,0.0,0.0,0.0,0.0,3.2454,0.0,0.0,0.0,0.0,0.0,0.0,0.0,0.0,0.0,3.4799,3.6174,3.7405,3.7742,3.8024,3.8294,3.8587,0.0,0.0,0.0,0.0,0.0,0.0,0.0,3.6965,3.7554,3.8188,3.9006,4.0188,4.0113,4.0291,4.1483,0.0,0.0,4.166,4.1406,4.1211,4.123,4.0312,3.9512,3.9492,3.9023,3.8437,0.0,0.0,0.0,0.0,0.0,0.0,0.0,0.0,3.4268,3.4761,0.0,3.3049,0.0,0.0,0.0,0.0,2.9937,3.1987,0.0,0.0,3.529,3.5934,3.6059,3.6167,3.6341,3.653,3.7278,3.7532,3.708,3.3447,0.0,0.0,0.0,0.0,0.0,0.0,3.2601,3.4208,3.5094,3.5958,3.6759,3.6306,3.5746,3.5119,3.3394,3.1806,3.0452,2.9654,2.8866,2.799,2.5745,0.0,0.0,0.0,0.0,0.0,0.0,0.0,0.0,0.0,0.0,0.0,0.0,0.0,0.0,0.0,0.0,0.0,0.0,0.0,0.0,3.2455,0.0,0.0,0.0,0.0,0.0,0.0,0.0,0.0,0.0,0.0,3.6016,3.7136,3.8418,3.932,0.0,0.0,0.0,0.0,3.8194,3.8192,3.8241,3.8299,3.8403,3.8433,3.8479,3.8627,0.0,0.0,4.3378,4.297,4.2915,4.4601,4.4175,4.3456,4.2676,4.3144,4.3633,4.3652,4.2344,4.1328,4.1172,4.0137,3.9004,3.7898,0.0,0.0,0.0,0.0,3.5901,3.64,3.6838,3.7109,3.7243,3.7188,3.5796,0.0,0.0,0.0,0.0,0.0,0.0,3.5818,3.6493,3.7176,3.7575,3.7711,3.7739,3.7945,3.8267,3.8532,3.8543,3.8286,3.6607,3.5227,3.4143,0.0,0.0,0.0,0.0,3.3982,3.5111,3.5943,3.6579,3.7011,3.6953,3.6506,3.5622,3.4127,3.2961,3.2169,3.135,3.056,2.9774,2.8498,0.0,0.0,0.0,0.0,0.0,0.0,0.0,0.0,0.0,0.0,0.0,0.0,0.0,0.0,0.0,0.0,0.0,0.0,0.0,3.3397,3.3699,3.4054,0.0,0.0,0.0,0.0,0.0,0.0,0.0,0.0,0.0,3.9911,3.9873,3.9952,0.0,0.0,3.9132,3.9363,3.8727,3.8217,3.8214,3.8202,0.0,3.9138,3.9262,3.9699,4.0993,4.2148,4.3054,4.355,4.3429,4.3444,4.402,4.4399,4.4522,4.4351,4.4433,4.4629,4.4551,4.375,4.3008,4.293,4.2539,4.2187,4.1124,3.8985,3.8364,3.8295,3.8594,3.9071,3.9451,3.9767,3.9945,3.9881,3.9573,3.8544,3.8159,3.8316,3.778,0.0,0.0,0.0,3.8558,3.8903,3.9054,3.9189,3.9306,3.9243,3.9428,3.9735,3.9746,3.9857,4.0037,3.8893,3.8139,3.7644,0.0,0.0,3.4768,3.4639,3.4859,3.5499,3.6284,3.6819,3.7081,3.71,3.6723,3.5936,3.4897,3.3902,3.2962,3.2425,3.1789,3.1004,3.018,2.8894,0.0,0.0,0.0,0.0,0.0,0.0,0.0,0.0,0.0,0.0,0.0,2.9532,3.1257,0.0,0.0,0.0,3.4375,3.513,3.5636,3.5652,0.0,0.0,0.0,0.0,0.0,0.0,0.0,3.9734,4.1095,4.2291,4.3054,4.2776,4.2288,4.1655,4.1173,4.0868,4.0868,0.0,4.0171,4.0171,4.0182,4.0378,4.0958,4.1089,4.1607,4.3002,4.3661,4.4176,4.4516,4.4582,4.4607,4.4707,4.5114,4.5482,4.5512,4.5521,4.5526,4.5488,4.4805,4.4258,4.4219,4.3965,4.3711,4.3552,4.3431,4.2033,4.1693,4.209,4.209,4.2504,4.315,4.2535,4.2438,4.2544,4.1226,4.1265,4.2366,4.2232,0.0,4.0687,4.1149,4.125,4.1139,4.0798,4.0717,4.0861,4.0717,4.082,4.109,4.1072,4.1447,4.1981,4.0558,4.0126,4.0674,3.7183,3.5723,3.6328,3.5707,3.5482,3.5682,3.6371,3.6839,3.7139,3.6986,3.6647,3.6127,3.5662,3.4678,3.3194,3.3107,3.2725,3.1931,3.1121,3.0276,2.9333,0.0,0.0,0.0,0.0,0.0,0.0,0.0,0.0,0.0,0.0,0.0,0.0,0.0,0.0,0.0,3.7582,0.0,3.8105,3.8101,0.0,0.0,0.0,3.9725,4.0609,4.1421,4.2191,4.3006,0.0,0.0,4.5515,4.5596,4.5079,4.3675,4.3383,4.3296,4.33,4.3231,4.3293,4.3138,4.3176,4.3192,4.3179,4.3392,4.3776,4.455,4.4799,4.5062,4.5711,4.5954,4.6046,4.601,4.6143,4.625,4.6371,4.6325,4.6335,4.6363,4.5702,4.5098,4.5078,4.4551,4.4082,4.6617,4.6583,4.6234,4.4854,4.293,4.2913,4.3017,4.318,4.3187,4.3238,4.3288,4.3341,4.3569,4.3934,4.3755,4.3414,4.29,4.2712,4.2583,4.2434,4.2155,4.2091,4.2219,4.2091,4.2219,4.2558,4.257,4.2719,4.2926,4.2032,4.1621,4.1576,3.9595,3.8388,3.8009,3.7318,3.7039,3.7238,3.6893,3.6978,3.7532,3.7716,3.7295,3.6284,3.6226,3.5479,3.3993,3.3906,3.382,3.3603,3.2848,3.1782,3.0397,2.9186,0.0,0.0,0.0,0.0,0.0,0.0,0.0,0.0,0.0,3.4266,3.5376,0.0,3.6942,0.0,3.8358,3.9105,3.9729,3.981,0.0,0.0,4.191,4.2489,4.3946,4.429,4.4735,4.5528,4.5856,4.6346,4.7188,4.7353,4.7255,4.6863,4.5716,4.494,4.4987,4.4482,4.4117,4.4121,4.3671,4.3442,4.4123,4.4806,4.5273,4.5502,4.5544,4.5635,4.5883,4.5994,4.6024,4.6099,4.6156,4.645,4.7075,4.6734,4.6576,4.7011,4.6552,4.5992,4.5992,4.5777,4.566,4.7703,4.7703,4.7703,4.6734,4.5195,4.485,4.4522,4.416,4.3954,4.3868,4.3942,4.4401,4.4664,4.4728,4.4929,4.485,4.452,4.4181,4.3778,4.3348,4.3121,4.2881,4.2606,4.2475,4.2567,4.2826,4.2826,4.3074,4.3489,4.2796,4.2405,4.2371,4.1218,4.033,3.9675,3.8242,3.7588,3.7686,3.7139,3.7114,3.7631,3.794,3.7511,3.6313,3.645,3.5802,3.4271,3.4216,3.4216,3.4197,3.377,3.3006,3.1834,3.1366,3.0804,0.0,0.0,0.0,0.0,0.0,0.0,0.0,0.0,0.0,0.0,0.0,3.9706,4.0087,4.089,4.1711,4.256,4.2613,4.313,4.43,4.4448,4.4979,4.629,4.6405,4.6729,4.7551,4.7674,4.804,4.8857,4.9018,4.9021,4.9048,4.8269,4.7419,4.6771,4.6269,4.6013,4.6016,4.5361,4.4847,4.5048,4.5445,4.5772,4.5753,4.5772,4.576,4.5801,4.5867,4.6031,4.646,4.6642,4.6973,4.7797,4.7404,4.702,4.7229,4.6851,4.6354,4.6301,4.6302,4.6302,4.7951,4.7937,4.7923,4.7871,4.7751,4.7097,4.6373,4.5612,4.4974,4.4768,4.49,4.5222,4.5399,4.5458,4.5878,4.5938,4.5667,4.5304,4.4757,4.4025,4.3891,4.348,4.2821,4.2694,4.2707,4.2843,4.2834,4.325,4.4027,4.3249,4.2907,4.3014,4.231,4.1724,4.1174,3.9064,3.7899,3.7799,3.7501,3.7506,3.7783,3.8102,3.7638,3.6336,3.6457,3.5828,3.429,3.4172,3.4185,3.4185,3.4179,3.3855,3.3162,3.3322,3.3459,0.0,3.2466,0.0,0.0,0.0,0.0,0.0,0.0,0.0,0.0,4.0472,4.2363,4.3431,4.4116,4.4863,4.5785,4.5856,4.6218,4.7054,4.7163,4.7488,4.8329,4.8443,4.8735,4.9486,4.9582,4.9824,5.034,5.0449,5.0472,5.0289,5.0166,4.9636,4.8613,4.8164,4.8034,4.8241,4.7575,4.6675,4.6212,4.607,4.6112,4.6054,4.6131,4.6,4.6124,4.6155,4.642,4.7149,4.7433,4.7738,4.8584,4.8015,4.7495,4.7466,4.6858,4.6326,4.6296,4.6299,4.63,4.9325,4.9311,4.9208,4.8824,4.8259,4.812,4.7697,4.7093,4.689,4.7024,4.7381,4.7302,4.7408,4.7605,4.6891,4.6415,4.6116,4.5265,4.479,4.464,4.4599,4.4569,4.4527,4.4514,4.4564,4.4654,4.4561,4.4673,4.4927,4.4088,4.3742,4.3851,4.3083,4.2452,4.197,0.0,0.0,0.0,3.9131,3.9088,3.877,3.9064,3.8344,3.6526,3.644,0.0,3.4302,3.4148,3.4124,3.4124,3.4191,0.0,0.0,0.0,0.0,0.0,0.0,0.0,0.0,0.0,0.0,0.0,4.1432,4.2833,4.026,4.2206,4.4522,4.6622,4.6393,4.6694,4.8255,4.8395,4.8995,5.043,5.0621,5.0946,5.1754,5.1811,5.1951,5.2066,5.2085,5.1888,5.141,5.1347,5.1085,5.0491,5.0338,5.0228,4.995,4.9348,4.9011,4.9004,4.8347,4.7845,4.7671,4.7575,4.7483,4.7652,4.7633,4.7631,4.7628,4.7707,4.7808,4.8132,4.8282,4.8377,4.8659,4.8053,4.7488,4.7492,4.6852,4.6302,4.6305,4.6306,4.6306,4.9607,4.959,4.9532,4.928,0.0,4.8835,4.8613,4.8277,4.7526,4.7347,4.754,4.7456,4.7596,4.7861,4.7238,4.6911,4.6842,4.5866,4.5469,4.5521,4.5162,4.5073,4.5207,4.5207,4.519,4.5207,4.514,4.5113,4.5096,4.4656,4.4337,4.4091,4.3743,4.3382,4.2937,4.2444,4.1196,3.9231,3.9537,3.965,3.9551,3.9453,3.8789,3.7529,3.7161,0.0,0.0,0.0,0.0,0.0,0.0,0.0,0.0,0.0,0.0,3.6666,3.7967,3.8789,3.8918,4.054,4.1332,4.0964,4.4004,4.5415,4.4139,4.5209,4.6622,4.8239,4.8391,4.8907,5.0168,5.069,5.1282,5.2079,5.2193,5.2365,5.2715,5.2792,5.2792,5.2792,5.2792,5.2633,5.2251,5.1805,5.1461,5.0984,5.0544,5.0308,5.0323,5.0049,4.9701,4.9313,4.896,4.8495,4.814,4.8049,4.8077,4.8091,4.8101,4.811,4.8137,4.8221,4.8326,4.8365,4.846,4.8571,4.8569,4.7986,4.7467,4.7418,4.6817,4.6284,4.6246,4.627,4.6291,4.9458,4.9443,4.9411,4.9413,4.9381,4.9229,4.9168,4.9068,4.7893,0.0,0.0,4.7423,4.7628,4.7886,4.7618,4.7578,4.7701,4.6666,4.6251,4.6353,4.5614,4.5349,4.5468,4.5468,4.5415,4.5314,4.53,4.5203,4.5113,4.5069,4.4832,4.4393,4.4475,4.4349,4.3943,4.3682,4.2463,4.038,4.0159,4.0214,4.0368,3.9977,3.9459,3.8792,3.826,3.7654,3.6957,3.6913,3.6899,3.6906,3.6983,3.7072,3.7228,3.8852,3.9863,4.0063,4.1119,4.2098,4.2876,4.3236,4.3838,4.4801,4.6138,4.737,4.8399,4.8195,4.8506,4.9658,5.0225,5.0932,5.1926,5.2614,5.3091,5.3231,5.3269,5.3263,5.3232,5.3232,5.3302,5.3213,5.3283,5.3149,5.299,5.2468,5.1882,5.1558,5.0997,5.043,5.0346,5.0335,5.0136,4.9605,4.9459,4.9217,4.8672,4.8533,4.8457,4.8688,4.8625,4.8534,4.8557,4.8533,4.8514,4.8616,4.8548,4.8457,4.8349,4.7825,4.7381,4.7283,4.672,4.6206,4.6205,4.6251,4.6256,4.9245,4.9245,4.9107,4.9063,4.9046,4.9048,4.9032,4.9015,4.8795,4.8804,4.8891,4.9074,4.9311,4.9522,4.8867,4.8676,4.8765,4.7258,4.6615,4.6684,4.5905,4.5611,4.5744,4.5761,4.5731,4.5705,4.5615,4.5546,4.5507,4.5415,4.5346,4.539,4.5399,4.5251,4.491,4.4649,4.431,4.3921,4.2788,4.1963,4.1505,4.1578,4.1022,3.9871,3.9664,3.9269,3.8597,3.8527,3.8479,3.8479,3.8599,3.8674,3.8739,3.9979,4.0691,4.09,4.2526,4.3594,4.3762,4.5064,4.6567,4.8044,4.8438,4.928,5.0857,4.9729,4.9849,5.1951,5.1742,5.2073,5.3511,5.383,5.4174,5.4861,5.4995,5.4982,5.479,5.4784,5.4726,5.4666,5.4766,5.4443,5.3859,5.3632,5.3016,5.1903,5.1444,5.1137,5.048,5.0348,5.0363,5.0265,5.0276,5.0251,4.9993,5.0132,5.0019,5.0238,5.0152,5.0052,5.0096,4.968,4.9301,4.9351,4.8833,4.8302,4.773,4.7492,4.7104,4.6628,4.6303,4.6199,4.621,4.621,4.6195,4.9092,4.9094,4.9017,4.9018,4.9018,4.9018,4.9018,4.9001,4.9078,4.9138,4.9214,4.9428,4.9649,4.9861,4.9648,4.9694,4.9865,4.8794,4.8111,4.7779,4.7052,4.652,4.6246,4.6228,4.6419,4.6748,4.6639,4.6755,4.7056,4.6613,4.6421,4.6446,4.6265,4.615,4.6105,4.571,4.5541,4.5551,4.4538,4.3666,4.295,4.2741,4.2146,4.1114,4.1162,4.1071,4.0759,4.114,4.1352,4.1352,4.1456,4.154,4.1667,4.2758,4.3478,4.3687,4.5046,4.5879,4.5904,4.7047,4.8273,4.9442,4.9987,5.0602,5.1408,5.0785,5.1014,5.2539,5.2743,5.3143,5.3931,5.4369,5.4815,5.5196,5.5234,5.5221,5.5155,5.5155,5.5116,5.5101,5.5082,5.4941,5.4599,5.4201,5.3764,5.2856,5.219,5.1272,5.0443,5.0319,5.0356,5.0361,5.0365,5.0399,5.0446,5.0451,5.0473,5.0527,5.0556,5.0582,5.0638,5.0279,4.9834,4.9076,4.8639,4.8023,4.6997,4.6718,4.654,4.6387,4.6208,4.6198,4.6213,4.6209,4.6213,4.894,4.894,4.8909,4.8909,4.8972,4.8986,4.9032,4.914,4.929,4.9364,4.9458,4.9545,4.9752,5.0028,5.0228,5.0478,5.0647,5.0097,4.9485,4.898,4.8252,4.7549,4.6926,4.6885,4.7055,4.7382,4.7467,4.7797,4.8208,4.7874,4.7593,4.742,4.7144,4.702,4.7037,4.6686,4.6524,4.6544,4.6034,4.5317,4.4353,4.394,4.3433,4.2895,4.2974,4.307,4.3133,4.3692,4.4022,4.403,4.4099,4.4254,4.4439,4.5322,4.595,4.6245,4.7169,4.7884,4.8174,4.8941,4.9689,5.0304,5.1134,5.1685,5.1882,5.192,5.218,5.2847,5.3469,5.3945,5.4237,5.472,5.5082,5.5082,5.5082,5.5094,5.5073,5.5073,5.5066,5.5052,5.5045,5.5045,5.4931,5.4519,5.4096,5.3704,5.2513,5.1255,5.0663,5.0438,5.0317,5.0527,5.0577,5.053,5.0455,5.0614,5.0623,5.055,5.0475,5.0527,5.0545,5.0543,5.0048,4.8952,4.8556,4.7996,4.6766,4.6487,4.6462,4.6304,4.6197,4.6197,4.6212,4.6187,4.619,4.8818,4.8785,4.8643,4.8659,4.8832,4.8972,4.9185,4.9473,4.9723,4.9924,5.0057,4.9942,5.0057,5.0355,5.0616,5.0919,5.1131,5.0423,5.0029,4.9882,4.921,4.8448,4.7752,4.7699,4.7351,4.6991,4.7624,4.8127,4.8293,4.884,4.8835,4.8217,4.8185,4.7879,4.7279,4.7316,4.7392,4.7403,4.7444,4.6806,4.5456,4.5313,4.5261,4.5283,4.5265,4.5359,4.5361,4.5553,4.559,4.5608,4.5772,4.5915,4.6018,4.6408,4.6754,4.7106,4.8057,4.8921,4.972,5.06,5.1067,5.1151,5.1864,5.2648,5.3331,5.3445,5.3559,5.3764,5.3862,5.4236,5.4884,5.5056,5.5087,5.5073,5.508,5.5092,5.5028,5.4995,5.4985,5.4923,5.4938,5.4905,5.4927,5.4838,5.4572,5.3944,5.2689,5.1567,5.1167,5.0697,5.06,5.114,5.1419,5.1131,5.0747,5.1034,5.1082,5.0617,5.0462,5.0511,5.0477,5.0134,4.9513,4.9413,4.8951,4.8288,4.7646,4.7263,4.7044,4.6505,4.6319,4.621,4.6193,4.6158,4.614,4.9014,4.8644,4.8658,4.8815,4.9032,4.9094,4.9305,4.9619,4.9825,5.0071,5.0331,5.0394,5.046,5.0551,5.0824,5.1097,5.1276,5.1106,5.0761,5.0364,5.0026,4.945,4.8739,4.8686,4.8733,4.8911,4.9219,4.9598,4.9971,4.9998,4.9614,4.9043,4.9012,4.8727,4.8133,4.816,4.802,4.7643,4.7686,4.7412,4.6847,4.6418,4.5995,4.5653,4.6029,4.6332,4.6436,4.681,4.7094,4.7104,4.7257,4.7426,4.7546,4.787,4.8181,4.854,4.9559,5.0329,5.069,5.1494,5.1954,5.1919,5.2696,5.3328,5.3669,5.4136,5.4438,5.4482,5.4477,5.4648,5.494,5.4997,5.4978,5.4978,5.4978,5.4982,5.4953,5.4934,5.4912,5.4901,5.4901,5.4901,5.4901,5.4923,5.4614,5.3995,5.3142,5.2509,5.1611,5.1097,5.1097,5.1409,5.1853,5.2075,5.1768,5.1582,5.1473,5.1147,5.0679,5.0437,5.0537,5.0452,5.0132,4.9807,4.9611,4.9163,4.8311,4.8184,4.7975,4.7208,4.6391,4.6158,4.6152,4.6124,4.6128,4.9304,4.8833,4.8759,4.8893,4.917,4.9466,4.9703,4.995,5.0308,5.0533,5.0665,5.0865,5.0888,5.0834,5.1088,5.1272,5.141,5.1602,5.1387,5.0869,5.0834,5.0405,4.9685,4.9626,4.9822,5.0161,5.0303,5.0843,5.1497,5.1112,5.0497,4.9972,4.9888,4.9586,4.9084,4.9016,4.8829,4.8384,4.8159,4.8033,4.7916,4.7337,4.6699,4.6208,4.6704,4.7155,4.745,4.8006,4.8407,4.8589,4.8776,4.8935,4.911,4.9425,4.9799,5.0194,5.0992,5.154,5.1559,5.2298,5.2753,5.2828,5.3529,5.4029,5.4124,5.456,5.4863,5.4882,5.4901,5.4882,5.4901,5.4901,5.4901,5.4901,5.4901,5.4901,5.4901,5.4901,5.4901,5.4901,5.4901,5.4901,5.4901,5.4901,5.4696,5.4235,5.3889,5.3466,5.2292,5.1901,5.1769,5.2016,5.2606,5.2792,5.2768,5.2622,5.217,5.1801,5.1374,5.1214,5.1166,5.1322,5.1448,5.1459,5.1059,5.0673,5.0182,4.985,4.9058,4.8048,4.7309,4.6904,4.7018,4.6858,4.6834,4.9572,4.9487,4.8833,4.8786,4.9115,5.0064,5.0479,5.0509,5.1417,5.1636,5.1308,5.1308,5.1285,5.1285,5.1415,5.1543,5.1652,5.1678,5.1654,5.1565,5.1583,5.1208,5.0465,5.0429,5.0108,4.9781,5.0431,5.1167,5.1993,5.1982,5.1622,5.0868,5.082,5.0483,4.9931,4.9834,4.9866,4.9731,4.917,4.8837,4.8746,4.8087,4.7681,4.7627,4.7655,4.8063,4.8847,4.9013,4.9348,5.0028,5.024,5.0442,5.0583,5.0916,5.1365,5.1917,5.2223,5.2355,5.2449,5.315,5.365,5.3726,5.4306,5.4806,5.4723,5.4825,5.4901,5.4901,5.4901,5.4901,5.4901,5.4901,5.4901,5.4901,5.4901,5.4901,5.4901,5.4901,5.4901,5.4901,5.4901,5.4901,5.4901,5.4901,5.4882,5.4662,5.4188,5.3627,5.3395,5.2838,5.2816,5.3266,5.3567,5.3564,5.2924,5.3027,5.3134,5.2793,5.2507,5.2535,5.2842,5.3045,5.3066,5.3135,5.2948,5.2652,5.2272,5.1519,5.043,4.953,4.891,4.8547,4.8496,4.848,4.8355,5.0743,5.0566,4.9919,4.9911,5.0339,5.0459,5.0817,5.1455,5.1911,5.2173,5.22,5.2186,5.1972,5.1551,5.1602,5.1589,5.1564,5.1652,5.169,5.169,5.169,5.153,5.1315,5.1262,5.1137,5.0935,5.1169,5.1516,5.1786,5.184,5.1751,5.161,5.1538,5.1185,5.0674,5.0536,5.0343,4.9866,4.953,4.9411,4.9415,4.92,4.91,4.9064,4.8677,4.8869,4.9702,4.9749,4.9876,5.013,5.0353,5.0522,5.0678,5.1213,5.1759,5.2182,5.2862,5.3226,5.3321,5.3992,5.4484,5.4503,5.4704,5.4901,5.4901,5.4901,5.4901,5.4901,5.4901,5.4901,5.4901,5.4901,5.4901,5.4901,5.4901,5.4901,5.4901,5.4901,5.4901,5.4901,5.4901,5.4901,5.4901,5.4901,5.4901,5.4875,5.4628,5.4257,5.3783,5.3414,5.3428,5.3637,5.3765,5.3844,5.4197,5.3852,5.3723,5.3466,5.3226,5.2968,5.3056,5.3368,5.3427,5.3681,5.3895,5.3831,5.3225,5.268,5.1664,5.1308,5.0667,5.025,5.0197,5.0049,4.9704,5.1613,5.1326,5.0989,5.1139,5.1588,5.1604,5.1934,5.2553,5.2933,5.3136,5.3091,5.2881,5.2488,5.2083,5.1828,5.1658,5.1582,5.1652,5.169,5.169,5.169,5.169,5.169,5.169,5.169,5.169,5.169,5.169,5.169,5.169,5.1758,5.1815,5.1833,5.1638,5.1281,5.1233,5.094,5.0526,5.025,5.0088,5.0082,4.9917,4.9987,5.0125,4.976,4.9849,5.0452,5.0499,5.0626,5.0859,5.1071,5.131,5.1659,5.2167,5.2665,5.3054,5.3675,5.4079,5.4143,5.4598,5.4894,5.4901,5.4901,5.4901,5.4901,5.4901,5.4901,5.4901,5.4901,5.4901,5.4913,5.489,5.489,5.4886,5.4901,5.4901,5.4901,5.4901,5.4901,5.4901,5.4901,5.4901,5.4901,5.4901,5.4901,5.4901,5.4901,5.4647,5.4219,5.4086,5.4086,5.4086,5.4143,5.4359,5.4556,5.4439,5.4377,5.4154,5.4052,5.3702,5.3609,5.3845,5.4045,5.4262,5.4366,5.4362,5.4104,5.3635,5.3279,5.2965,5.2469,5.193,5.1765,5.1503,5.1295,5.2122,5.1892,5.1945,5.2293,5.2791,5.3431,5.3788,5.3731,5.448,5.4456,5.3939,5.3319,5.3046,5.2756,5.2274,5.1833,5.1909,5.1886,5.1774,5.169,5.169,5.169,5.169,5.169,5.169,5.169,5.169,5.169,5.169,5.169,5.1703,5.1703,5.1715,5.1742,5.1841,5.1769,5.1879,5.1718,5.1173,5.0874,5.0825,5.0256,5.0238,5.0825,5.0837,5.0972,5.1262,5.1292,5.1581,5.2256,5.2544,5.3064,5.3465,5.3822,5.4233,5.4414,5.4746,5.4841,5.4829,5.4867,5.4905,5.4886,5.4894,5.4901,5.4901,5.4901,5.4901,5.4901,5.4901,5.4894,5.4879,5.4845,5.4829,5.4879,5.4879,5.4871,5.4879,5.4894,5.4901,5.4901,5.4901,5.4901,5.4901,5.4901,5.4901,5.4901,5.4901,5.4882,5.4723,5.4712,5.4837,5.4825,5.4712,5.4723,5.4844,5.489,5.4922,5.4919,5.4905,5.4753,5.4856,5.5024,5.5126,5.5299,5.5376,5.5372,5.5084,5.4654,5.4469,5.4165,5.3804,5.3593,5.3466,5.3303,5.3222,5.3581,5.373,5.3521,5.3625,5.3918,5.3925,5.4132,5.4592,5.4999,5.5009,5.4799,5.4581,5.4188,5.3706,5.3372,5.3265,5.3247,5.2774,5.2238,5.1815,5.1726,5.1726,5.1726,5.1708,5.169,5.169,5.169,5.169,5.169,5.169,5.169,5.169,5.169,5.1715,5.1753,5.1771,5.179,5.1779,5.1582,5.1439,5.1452,5.1292,5.1329,5.1556,5.1676,5.1772,5.1843,5.1944,5.2087,5.237,5.2633,5.3091,5.3698,5.4009,5.4249,5.4522,5.4697,5.476,5.4767,5.4806,5.4829,5.4845,5.4883,5.4894,5.4901,5.4901,5.4901,5.4901,5.4894,5.4898,5.4837,5.4825,5.4836,5.4848,5.4791,5.4824,5.4926,5.4882,5.4841,5.4886,5.4901,5.4901,5.4939,5.4951,5.5045,5.5026,5.4996,5.4958,5.4932,5.4939,5.4901,5.4901,5.4901,5.4901,5.4901,5.4938,5.5004,5.5078,5.5162,5.5307,5.5556,5.5747,5.5923,5.6061,5.6156,5.6119,5.5848,5.5627,5.5348,5.5419,5.5214,5.5157,5.5211,5.4971,5.458,5.4572,5.4859,5.4754,5.4869,5.5083,5.4827,5.4994,5.5507,5.5611,5.5669,5.5598,5.533,5.4924,5.446,5.4144,5.3983,5.3948,5.3492,5.3046,5.2547,5.2238,5.2149,5.222,5.2457,5.2368,5.2167,5.2149,5.1976,5.169,5.169,5.169,5.169,5.169,5.169,5.169,5.169,5.169,5.169,5.1703,5.169,5.1715,5.1765,5.182,5.1845,5.1919,5.1963,5.2029,5.2102,5.2162,5.2281,5.257,5.308,5.367,5.3972,5.4216,5.4422,5.4608,5.4689,5.4697,5.4736,5.4767,5.4791,5.4845,5.4871,5.4886,5.4901,5.4901,5.4901,5.489,5.4833,5.4836,5.506,5.5139,5.5169,5.5206,5.5276,5.5492,5.5638,5.572,5.5848,5.586,5.5818,5.5822,5.583,5.583,5.5803,5.5583,5.5394,5.5311,5.5102,5.5015,5.492,5.4901,5.4901,5.4901,5.4968,5.5035,5.5135,5.5255,5.5432,5.5654,5.5788,5.5946,5.6069,5.6203,5.6214,5.6004,5.5998,5.5866,5.6133,5.6168,5.5924,5.5624,5.5547,5.5252,5.5133,5.5244,5.561,5.5868,5.607,5.6059,5.6107,5.6324,5.6347,5.6311,5.62,5.5669,5.5317,5.5103,5.4674,5.4389,5.4144,5.4104,5.405,5.3818,5.3421,5.3095,5.3028,5.3479,5.3421,5.3023,5.2952,5.2541,5.1935,5.1899,5.1726,5.1708,5.169,5.169,5.169,5.169,5.169,5.169,5.169,5.169,5.169,5.1703,5.1703,5.1715,5.1728,5.1778,5.187,5.1895,5.198,5.2144,5.2559,5.3008,5.3525,5.3917,5.4153,5.4392,5.4605,5.4708,5.4721,5.4835,5.4829,5.4763,5.4775,5.4822,5.4883,5.4879,5.4879,5.4894,5.4852,5.4817,5.4911,5.5328,5.5708,5.5927,5.5978,5.6246,5.6922,5.696,5.6859,5.7054,5.7257,5.7281,5.7125,5.716,5.716,5.7081,5.6607,5.6304,5.5925,5.5564,5.5072,5.4939,5.4901,5.4923,5.4931,5.4992,5.5099,5.5281,5.5376,5.5556,5.5724,5.5856,5.5926,5.6069,5.6168,5.6184,5.618,5.611,5.6094,5.609,5.6069,5.6016,5.5935,5.5808,5.5754,5.565,5.5516,5.6267,5.6352,5.6028,5.6137,5.6207,5.6267,5.6359,5.6369,5.6329,5.6186,5.603,5.6062,5.5847,5.5776,5.558,5.512,5.4888,5.4871,5.4723,5.4224,5.3818,5.3907,5.3943,5.3729,5.3693,5.3301,5.2631,5.2577,5.2327,5.1708,5.1779,5.1726,5.169,5.1726,5.169,5.169,5.169,5.169,5.169,5.169,5.169,5.169,5.169,5.1715,5.1753,5.174,5.198,5.2364,5.2547,5.2911,5.3444,5.3776,5.4064,5.4354,5.4907,5.5059,5.4719,5.507,5.5168,5.4673,5.4681,5.4744,5.4814,5.4829,5.4852,5.4883,5.4845,5.4786,5.4845,5.5392,5.6177,5.7105,5.6905,5.6777,5.7036,5.7043,5.7068,5.7153,5.7217,5.7351,5.7462,5.7494,5.7491,5.7463,5.727,5.6872,5.6463,5.6027,5.5564,5.5053,5.4901,5.4938,5.4982,5.5042,5.5169,5.5408,5.5551,5.5678,5.5822,5.5923,5.5977,5.6037,5.6073,5.609,5.6073,5.6029,5.6025,5.6057,5.6025,5.6008,5.6008,5.5915,5.5915,5.5994,5.6085,5.637,5.6469,5.6361,5.6163,5.6063,5.6095,5.6148,5.6189,5.6203,5.6277,5.6304,5.6318,5.6373,5.6396,5.6329,5.5919,5.5723,5.5691,5.5687,5.5437,5.5103,5.4996,5.4835,5.4514,5.4514,5.4068,5.3474,5.3367,5.3082,5.2743,5.2345,5.2202,5.222,5.1845,5.1708,5.169,5.169,5.169,5.169,5.169,5.169,5.169,5.169,5.169,5.169,5.169,5.1901,5.2251,5.2467,5.2769,5.3271,5.3594,5.3907,5.4193,5.4712,5.4755,5.4574,5.4888,5.4957,5.461,5.459,5.4665,5.4747,5.4771,5.4775,5.4817,5.4725,5.4662,5.4805,5.5544,5.6617,5.751,5.751,5.7453,5.7844,5.7975,5.7982,5.8061,5.8132,5.8165,5.831,5.8316,5.8338,5.8383,5.8207,5.7581,5.6929,5.6493,5.5962,5.5375,5.4961,5.496,5.505,5.5128,5.532,5.5539,5.5686,5.5842,5.589,5.5973,5.599,5.5993,5.6008,5.6008,5.6008,5.6008,5.6012,5.6016,5.6008,5.6008,5.6008,5.6008,5.6008,5.6221,5.6817,5.6299,5.653,5.6993,5.6353,5.6102,5.6014,5.5954,5.5933,5.5961,5.6095,5.6165,5.6165,5.629,5.6373,5.6373,5.6298,5.6343,5.6294,5.6307,5.6204,5.6133,5.6079,5.583,5.5401,5.5317,5.4853,5.4318,5.4139,5.405,5.3711,5.3207,5.3041,5.2863,5.2292,5.1881,5.1881,5.1762,5.1708,5.169,5.169,5.169,5.169,5.169,5.169,5.169,5.1703,5.184,5.2102,5.2286,5.264,5.3067,5.3407,5.3728,5.4056,5.4297,5.4434,5.4338,5.4485,5.4509,5.4487,5.4472,5.4538,5.463,5.4665,5.4681,5.4713,5.4581,5.4664,5.5124,5.6064,5.708,5.7817,5.7873,5.8173,5.8773,5.898,5.9028,5.9298,5.9278,5.9451,5.9688,5.9793,5.9723,5.9138,5.8933,5.8434,5.7657,5.7031,5.6304,5.547,5.5166,5.499,5.5113,5.5236,5.5462,5.5673,5.5837,5.5955,5.5955,5.5995,5.5999,5.6008,5.6008,5.6008,5.6008,5.6008,5.6008,5.6008,5.6008,5.6008,5.6008,5.6008,5.6008,5.6518,5.6709,5.7213,5.7495,5.7543,5.6958,5.6682,5.6611,5.6095,5.5929,5.5904,5.5947,5.5961,5.5993,5.6151,5.6221,5.6281,5.6346,5.6396,5.6396,5.6396,5.6396,5.6396,5.6396,5.6294,5.6079,5.6115,5.5705,5.512,5.4888,5.4621,5.4104,5.3979,5.3765,5.3658,5.3059,5.2643,5.2554,5.206,5.1774,5.1774,5.1708,5.169,5.169,5.169,5.169,5.169,5.169,5.1827,5.2084,5.2309,5.2628,5.3046,5.3415,5.3708,5.4075,5.4643,5.4754,5.4407,5.4788,5.4981,5.4565,5.4615,5.4458,5.453,5.4651,5.4673,5.4649,5.4619,5.5124,5.6055,5.6996,5.7705,5.8148,5.7938,5.7612,5.7785,5.7538,5.7669,5.8193,5.8464,5.8706,5.9443,5.9616,5.9685,5.9742,5.9563,5.9222,5.8453,5.7581,5.6698,5.5769,5.5229,5.5061,5.5236,5.5382,5.5624,5.5787,5.5908,5.6008,5.6008,5.6008,5.6008,5.6008,5.6008,5.6008,5.6008,5.6008,5.6008,5.6008,5.6008,5.6008,5.6008,5.6008,5.6008,5.6086,5.6453,5.6935,5.7366,5.7627,5.7429,5.71,5.6746,5.64,5.6024,5.5774,5.5779,5.5804,5.5818,5.5979,5.6109,5.6225,5.6332,5.6396,5.6396,5.6396,5.6396,5.6396,5.6396,5.6396,5.6396,5.6396,5.6097,5.5847,5.5723,5.558,5.512,5.4781,5.4585,5.4443,5.3813,5.3457,5.326,5.2666,5.2256,5.2256,5.1881,5.169,5.169,5.169,5.169,5.169,5.1783,5.1956,5.218,5.2455,5.2736,5.3075,5.3452,5.3726,5.4,5.468,5.5025,5.4904,5.5361,5.5781,5.5441,5.5457,5.5547,5.5597,5.5632,5.5649,5.5701,5.578,5.6099,5.708,5.7396,5.797,5.8019,5.7818,5.7251,5.6614,5.6471,5.694,5.7707,5.8081,5.8633,5.9127,5.9461,5.9633,5.9755,5.9817,5.9468,5.8661,5.7816,5.7043,5.6201,5.5477,5.5166,5.5358,5.5543,5.5778,5.5895,5.5968,5.6008,5.6008,5.6008,5.6008,5.6008,5.6008,5.6008,5.6008,5.6008,5.6008,5.6008,5.6008,5.6008,5.6008,5.6008,5.6008,5.5738,5.6365,5.6487,5.7003,5.7648,5.7752,5.746,5.7024,5.6824,5.6433,5.5786,5.578,5.5874,5.5727,5.5804,5.5993,5.6179,5.6332,5.6396,5.6396,5.6396,5.6396,5.6396,5.6396,5.6396,5.6396,5.6396,5.6343,5.6343,5.6396,5.6186,5.6218,5.574,5.5419,5.5192,5.4621,5.4211,5.4104,5.3439,5.3059,5.2934,5.2363,5.194,5.169,5.169,5.169,5.1715,5.1833,5.2017,5.231,5.2758,5.3102,5.338,5.3645,5.4031,5.4193,5.5021,5.532,5.548,5.5947,5.6397,5.6669,5.6621,5.6658,5.6693,5.6627,5.658,5.673,5.6778,5.7079,5.7686,5.7934,5.7854,5.7781,5.7658,5.6812,5.594,5.6028,5.6779,5.7436,5.766,5.8062,5.8913,5.9501,5.9626,5.9729,5.9811,5.965,5.89,5.8238,5.7575,5.7186,5.6606,5.6034,5.6099,5.6077,5.6261,5.6008,5.6061,5.6003,5.6008,5.6008,5.6008,5.6008,5.6008,5.6008,5.6008,5.6008,5.6008,5.6008,5.6008,5.6008,5.6008,5.6008,5.6008,5.6993,5.7115,5.7146,5.7564,5.812,5.7824,5.7903,5.8218,5.7675,5.714,5.642,5.6415,5.6008,5.5722,5.568,5.5911,5.6123,5.629,5.6387,5.6369,5.6383,5.6396,5.6396,5.6396,5.6396,5.6396,5.6396,5.6396,5.6396,5.6396,5.6396,5.6365,5.6222,5.6133,5.5901,5.5441,5.5013,5.4888,5.4246,5.3854,5.3671,5.3082,5.235,5.1922,5.1845,5.1762,5.1746,5.1845,5.2048,5.2434,5.3392,5.4008,5.4401,5.4623,5.5087,5.5548,5.5893,5.6089,5.6174,5.6336,5.6459,5.6461,5.6715,5.6753,5.6762,5.6772,5.6987,5.7043,5.736,5.7677,5.7654,5.8181,5.8541,5.8376,5.7907,5.7406,5.7008,5.6713,5.6588,5.7098,5.723,5.7585,5.8661,5.9447,5.9582,5.9669,5.9763,5.9844,5.9514,5.8971,5.8479,5.8194,5.7973,5.742,5.6995,5.6893,5.682,5.6282,5.6143,5.6008,5.6008,5.6008,5.6008,5.6008,5.6008,5.6008,5.6008,5.6008,5.6008,5.6008,5.6008,5.6008,5.6008,5.6008,5.6008,5.705,5.7084,5.7564,5.7961,5.8219,5.812,5.8006,5.7961,5.7372,5.6696,5.6212,5.6017,5.5844,5.5578,5.5566,5.5738,5.5954,5.6193,5.6277,5.629,5.6359,5.6396,5.6396,5.6396,5.6396,5.6396,5.6396,5.6396,5.6396,5.6396,5.6396,5.6396,5.6396,5.6396,5.6343,5.6026,5.583,5.5633,5.5067,5.4621,5.455,5.3867,5.31,5.2541,5.2274,5.2131,5.1769,5.1833,5.206,5.2547,5.3553,5.4473,5.5238,5.586,5.6242,5.6393,5.671,5.6915,5.7045,5.7262,5.7675,5.7716,5.7719,5.7815,5.7835,5.7892,5.7742,5.7891,5.8001,5.8353,5.8322,5.8615,5.8731,5.8671,5.8316,5.7936,5.7546,5.7138,5.7079,5.7114,5.7425,5.8016,5.884,5.9374,5.9501,5.9617,5.9731,5.9824,5.9904,5.9531,5.9049,5.8942,5.8681,5.82,5.7612,5.7298,5.7036,5.6536,5.6182,5.6046,5.6008,5.6008,5.6008,5.6008,5.6008,5.6008,5.6008,5.6008,5.6008,5.6008,5.6008,5.6008,5.6008,5.6008,5.6008,5.715,5.708,5.7817,5.8126,5.8142,5.8099,5.7933,5.752,5.692,5.6329,5.5714,5.5711,5.5674,5.558,5.571,5.5816,5.5791,5.6149,5.6347,5.6239,5.6308,5.6359,5.6401,5.6396,5.6396,5.6396,5.6396,5.6396,5.6396,5.6396,5.6396,5.6396,5.6396,5.6396,5.6361,5.6311,5.6396,5.6186,5.583,5.5424,5.5067,5.4567,5.3872,5.322,5.313,5.2827,5.2434,5.2495,5.2694,5.3236,5.408,5.5126,5.6095,5.7113,5.7386,5.7016,5.7435,5.7658,5.7881,5.8178,5.8479,5.8541,5.8766,5.8845,5.8829,5.8653,5.8775,5.8924,5.8855,5.8784,5.8679,5.8739,5.8727,5.8687,5.865,5.8502,5.8056,5.7788,5.7808,5.7874,5.7964,5.837,5.9084,5.9318,5.9447,5.9572,5.9686,5.9822,5.9872,5.9741,5.944,5.9434,5.9215,5.8776,5.8201,5.7529,5.7112,5.6521,5.6201,5.6027,5.6008,5.6008,5.6008,5.6008,5.6008,5.6008,5.6008,5.6008,5.6008,5.6008,5.6008,5.6008,5.6008,5.6008,5.6008,5.8357,5.7788,5.7908,5.796,5.7907,5.7451,5.7567,5.7962,5.7306,5.6856,5.6086,5.6189,5.5882,5.5738,5.6344,5.6262,5.6155,5.6572,5.6783,5.65,5.6464,5.6548,5.648,5.6396,5.6538,5.6524,5.6462,5.6396,5.6383,5.6369,5.6396,5.6396,5.6396,5.6396,5.6396,5.6396,5.6396,5.6365,5.6276,5.5919,5.5366,5.512,5.4639,5.4104,5.3872,5.3747,5.3492,5.3555,5.3812,5.4242,5.5383,5.6285,5.6971,5.783,5.8323,5.8415,5.852,5.8568,5.8512,5.8595,5.8687,5.8748,5.8719,5.8748,5.876,5.877,5.8752,5.8748,5.8737,5.8748,5.8748,5.8698,5.8687,5.8687,5.8669,5.8669,5.8446,5.8223,5.8281,5.838,5.8408,5.8658,5.9167,5.9262,5.9383,5.9509,5.9631,5.9786,5.9898,5.9843,5.9991,6.0051,5.97,5.9244,5.8635,5.7991,5.7241,5.6588,5.624,5.6008,5.6008,5.6008,5.6008,5.6008,5.6008,5.6008,5.6008,5.6008,5.6008,5.6008,5.6008,5.6008,5.6008,5.6008,5.6008,5.9237,5.853,5.853,5.853,5.8374,5.7371,5.7107,5.7222,5.6365,5.5779,5.5623,5.5619,5.5486,5.5531,5.6235,5.6468,5.6434,5.7164,5.7482,5.7284,5.7269,5.7376,5.749,5.7416,5.7342,5.6872,5.6752,5.6563,5.6441,5.6377,5.6396,5.6401,5.6396,5.6396,5.6396,5.6396,5.6396,5.6396,5.6361,5.6222,5.5972,5.5812,5.5491,5.4728,5.4674,5.4447,5.4188,5.4049,5.423,5.4622,5.5571,5.6326,5.6912,5.773,5.842,5.8556,5.8638,5.8669,5.8669,5.8687,5.8687,5.8687,5.8687,5.8698,5.8687,5.8687,5.8687,5.8687,5.8687,5.8687,5.8687,5.8687,5.8687,5.8687,5.8687,5.8687,5.8687,5.8687,5.8634,5.8741,5.8832,5.8982,5.9119,5.9225,5.9346,5.9492,5.9624,5.9742,5.9999,6.0182,6.0419,6.0759,6.0266,5.9698,5.9011,5.8328,5.7469,5.6792,5.6235,5.6061,5.6008,5.6008,5.6008,5.6008,5.6008,5.6008,5.6008,5.6008,5.6008,5.6008,5.6008,5.6003,5.5999,5.5999,5.5995,5.9858,5.9288,5.9099,5.8995,5.884,5.7426,5.687,5.6778,5.541,5.4828,5.4915,5.5026,5.5101,5.5403,5.6147,5.6661,5.6588,5.7658,5.7993,5.8104,5.8139,5.8157,5.811,5.8146,5.7916,5.7388,5.7464,5.7099,5.6688,5.6537,5.6571,5.6405,5.6396,5.6396,5.6396,5.6396,5.6396,5.6396,5.6396,5.6379,5.6343,5.6343,5.6026,5.5669,5.5437,5.5223,5.471,5.4674,5.4802,5.523,5.5905,5.6643,5.7173,5.7888,5.8425,5.8561,5.8656,5.8687,5.8687,5.8687,5.8687,5.8687,5.8687,5.8687,5.8687,5.8687,5.8687,5.8687,5.8687,5.8687,5.8687,5.8687,5.8687,5.8687,5.8687,5.8687,5.8687,5.8687,5.8698,5.8748,5.8811,5.8922,5.9061,5.9177,5.9328,5.9466,5.9608,5.9736,6.0019,6.0349,6.0634,6.0905,5.9934,5.9379,5.8924,5.8272,5.7537,5.6914,5.6353,5.6083,5.602,5.5995,5.6008,5.6008,5.6003,5.6008,5.6008,5.6008,5.6008,5.6008,5.6003,5.5995,5.599,5.601,5.5992,6.0185,6.0047,5.9306,5.9013,5.8892,5.7426,5.6822,5.6786,5.5251,5.4707,5.4811,5.4932,5.4994,5.5423,5.638,5.6894,5.656,5.801,5.8357,5.8244,5.8066,5.8356,5.8504,5.8517,5.837,5.8193,5.8128,5.7733,5.7207,5.7059,5.6805,5.6449,5.6413,5.6387,5.6396,5.6396,5.6396,5.6396,5.6396,5.6396,5.6396,5.6396,5.6311,5.6294,5.6272,5.6258,5.6204,5.6022,5.6063,5.6335,5.6731,5.7158,5.7612,5.8079,5.8432,5.8582,5.8656,5.8687,5.8687,5.8687,5.8687,5.8687,5.8687,5.8687,5.8687,5.8687,5.8687,5.8687,5.8687,5.8687,5.8687,5.8687,5.8687,5.8687,5.8687,5.8687,5.8687,5.8687,5.8698,5.8727,5.882,5.8941,5.9052,5.9196,5.929,5.9429,5.9616,5.9751,6.0121,6.0448,6.0697,6.0594,5.9412,5.8776,5.8481,5.7747,5.6772,5.6453,5.6125,5.6014,5.598,5.5983,5.601,5.5999,5.5995,5.5999,5.6008,5.6008,5.6008,5.6008,5.5999,5.6001,5.6002,5.5989,5.5966,6.1047,6.0185,5.9858,5.9444,5.8909,5.7926,5.7478,5.7219,5.584,5.4941,5.4674,5.4702,5.5022,5.5709,5.6539,5.7364,5.775,5.882,5.9072,5.9218,5.9225,5.9319,5.9399,5.9241,5.9205,5.8836,5.8712,5.8386,5.772,5.765,5.7288,5.6915,5.6545,5.6368,5.6373,5.6383,5.6396,5.6396,5.6396,5.6396,5.6396,5.6396,5.6396,5.6396,5.6396,5.6437,5.647,5.6501,5.6675,5.6925,5.7206,5.7553,5.7886,5.8201,5.8422,5.8593,5.8656,5.8687,5.8687,5.8687,5.8687,5.8687,5.8687,5.8687,5.8687,5.8687,5.8687,5.8687,5.8687,5.8687,5.8687,5.8687,5.8687,5.8687,5.8687,5.8687,5.8698,5.8698,5.8748,5.8807,5.8889,5.8971,5.911,5.9215,5.929,5.9383,5.9579,5.9806,6.0162,6.0487,6.0723,6.049,5.9372,5.8655,5.838,5.726,5.6001,5.5933,5.5929,5.5943,5.5933,5.599,5.5998,5.6007,5.6005,5.5999,5.6003,5.6008,5.6008,5.6008,5.6005,5.5998,5.5994,5.6053,5.6203,6.1375,6.0202,5.9944,5.953,5.8926,5.8219,5.7892,5.7667,5.6513,5.5719,5.5184,5.5219,5.5508,5.626,5.6968,5.7603,5.8305,5.9098,5.9544,5.9677,5.9741,5.9946,5.9946,5.9823,5.9526,5.9262,5.9185,5.8895,5.822,5.8264,5.7907,5.742,5.6953,5.6763,5.6318,5.6369,5.6396,5.6396,5.6396,5.6396,5.6396,5.6396,5.6437,5.6451,5.6465,5.6586,5.6689,5.6794,5.6951,5.7206,5.7467,5.7721,5.796,5.8186,5.8395,5.8551,5.8635,5.8687,5.8687,5.8687,5.8687,5.8687,5.8687,5.8687,5.8687,5.8687,5.8687,5.8687,5.8687,5.8687,5.8687,5.8687,5.8687,5.8687,5.8687,5.8687,5.8719,5.8729,5.8818,5.8887,5.898,5.9099,5.9281,5.9418,5.9535,5.9589,5.9674,5.9904,6.0198,6.0468,6.0692,6.0277,5.9447,5.8891,5.8361,5.7048,5.5895,5.5826,5.5826,5.587,5.5895,5.5953,5.5985,5.6008,5.6007,5.601,5.6003,5.6008,5.6008,5.6008,5.5996,5.6004,5.6506,5.6632,5.6843,6.0944,6.0116,5.9426,5.9064,5.8944,5.822,5.7961,5.7909,5.715,5.6684,5.6512,5.6546,5.6633,5.6924,5.751,5.7973,5.8401,5.904,5.9419,5.9569,5.9669,5.9654,5.9653,5.9635,5.9632,5.9635,5.9541,5.927,5.8727,5.8869,5.8552,5.8111,5.772,5.7299,5.6339,5.6332,5.6401,5.6396,5.6396,5.6396,5.6396,5.6396,5.6451,5.6532,5.6586,5.6689,5.6951,5.7105,5.7276,5.7577,5.7797,5.8017,5.8242,5.8403,5.8543,5.8656,5.8677,5.8687,5.8687,5.8687,5.8687,5.8687,5.8687,5.8687,5.8687,5.8687,5.8687,5.8687,5.8687,5.8687,5.8687,5.8687,5.8687,5.8687,5.8687,5.8708,5.8758,5.8811,5.8891,5.9021,5.9148,5.9262,5.9454,5.9647,5.9786,5.9863,5.9861,6.0033,6.0304,6.0481,6.071,6.026,5.9523,5.8825,5.8113,5.6766,5.5859,5.577,5.5745,5.5776,5.5831,5.5885,5.5924,5.5981,5.5998,5.601,5.5999,5.6008,5.5995,5.6001,5.6002,5.6134,5.6718,5.7186,5.7333,6.1634,6.0875,6.0116,5.9495,5.9013,5.8737,5.8616,5.8512,5.7874,5.7271,5.6857,5.6805,5.7133,5.7495,5.7805,5.8218,5.8735,5.9008,5.9369,5.9403,5.9504,5.9604,5.9604,5.9554,5.957,5.9603,5.9635,5.9581,5.9303,5.941,5.9088,5.8622,5.8313,5.7756,5.704,5.6678,5.6396,5.6396,5.6396,5.6396,5.6396,5.6396,5.6465,5.66,5.6675,5.6912,5.7239,5.7406,5.7649,5.7932,5.8149,5.8264,5.8417,5.8572,5.8635,5.8687,5.8687,5.8687,5.8687,5.8687,5.8687,5.8687,5.8687,5.8687,5.8687,5.8687,5.8687,5.8687,5.8687,5.8687,5.8687,5.8687,5.8687,5.8687,5.8698,5.8768,5.882,5.8894,5.9003,5.9187,5.9337,5.9595,5.9831,5.998,6.0099,6.0148,6.0151,6.0237,6.046,6.0572,6.0702,6.0265,5.9636,5.8832,5.7864,5.6605,5.5871,5.573,5.57,5.573,5.5766,5.5831,5.5895,5.5938,5.5984,5.601,5.601,5.6001,5.6007,5.6008,5.599,5.639,5.7128,5.7482,5.7658,6.1634,6.0858,6.0099,5.9513,5.903,5.8995,5.8995,5.8909,5.8495,5.7978,5.7667,5.7598,5.7823,5.8202,5.834,5.8426,5.9012,5.9115,5.92,5.9217,5.9319,5.9352,5.9369,5.9403,5.9336,5.942,5.9487,5.9486,5.9533,5.9715,5.9565,5.9233,5.8842,5.8523,5.7938,5.7438,5.6896,5.6825,5.6718,5.6396,5.6396,5.641,5.6492,5.6649,5.6834,5.7079,5.7455,5.7733,5.7962,5.8216,5.8381,5.8449,5.8564,5.8635,5.8687,5.8687,5.8687,5.8687,5.8687,5.8687,5.8687,5.8687,5.8687,5.8687,5.8687,5.8687,5.8687,5.8687,5.8687,5.8687,5.8687,5.8687,5.8687,5.8687,5.8758,5.8809,5.8933,5.9023,5.9215,5.9391,5.963,5.9904,6.0151,6.0299,6.0441,6.0448,6.0436,6.0527,6.0572,6.0596,6.0521,6.0057,5.9403,5.8478,5.7562,5.6521,5.5961,5.5728,5.5689,5.5689,5.5751,5.5807,5.5861,5.5914,5.5971,5.6002,5.6002,5.5993,5.5961,5.5943,5.5933,5.6545,5.7451,5.7835,5.8056,6.0909,6.0151,5.934,5.9013,5.8995,5.8995,5.8995,5.8995,5.8961,5.8944,5.8909,5.8806,5.8788,5.8892,5.8961,5.8961,5.8995,5.903,5.903,5.903,5.9098,5.9064,5.9064,5.9064,5.9115,5.9132,5.9217,5.9436,5.9587,5.9799,5.9891,5.9958,5.9653,5.9436,5.902,5.8455,5.7778,5.736,5.6968,5.6628,5.6468,5.6424,5.6559,5.6728,5.6977,5.7294,5.7661,5.7997,5.8234,5.8454,5.8604,5.8656,5.8687,5.8687,5.8687,5.8687,5.8687,5.8687,5.8687,5.8687,5.8687,5.8687,5.8687,5.8687,5.8687,5.8687,5.8687,5.8687,5.8687,5.8687,5.8687,5.8687,5.8687,5.8748,5.8799,5.8902,5.9052,5.9215,5.9436,5.9656,5.9896,6.0144,6.0373,6.054,6.0635,6.0654,6.0647,6.0666,6.0658,6.0388,6.0227,5.9727,5.8979,5.8022,5.7126,5.6326,5.595,5.5708,5.5689,5.5695,5.5761,5.5807,5.5871,5.5933,5.5981,5.5999,5.6008,5.5952,5.5876,5.5871,5.5895,5.6535,5.7411,5.8229,5.8742,6.1185,6.084,5.9564,5.8995,5.8995,5.8995,5.8995,5.8995,5.8995,5.8995,5.8995,5.8995,5.8995,5.8995,5.8995,5.8995,5.8995,5.8995,5.8995,5.8995,5.8995,5.8995,5.8995,5.8995,5.8995,5.9064,5.9183,5.9369,5.952,5.9782,6.0201,6.0364,6.0365,6.0334,6.0054,5.96,5.8724,5.7927,5.7481,5.7075,5.6741,5.6693,5.6833,5.705,5.7347,5.7704,5.8,5.8347,5.8533,5.8563,5.8662,5.8706,5.8687,5.8687,5.8687,5.8687,5.8687,5.8687,5.8687,5.8687,5.8687,5.8687,5.8687,5.8687,5.8687,5.8687,5.8687,5.8687,5.8687,5.8687,5.8687,5.8687,5.8687,5.8719,5.883,5.8992,5.9158,5.9391,5.9621,5.9944,6.0185,6.0353,6.0585,6.0666,6.0746,6.0787,6.0829,6.0835,6.0656,6.0348,5.9865,5.9345,5.8492,5.7516,5.6961,5.6233,5.5945,5.5689,5.5689,5.573,5.5782,5.5846,5.5909,5.5967,5.5994,5.5999,5.5999,5.5929,5.5841,5.5856,5.5948,5.6631,5.734,5.8129,5.9013,6.1306,6.1082,5.9633,5.8995,5.8995,5.8995,5.8995,5.8995,5.8995,5.8995,5.8995,5.8995,5.8995,5.8995,5.8995,5.8995,5.8995,5.8995,5.8995,5.8995,5.9012,5.8995,5.8995,5.9012,5.9064,5.9149,5.9301,5.9535,5.9717,6.0104,6.0545,6.0778,6.0923,6.0938,6.0787,6.0466,5.9806,5.8948,5.8273,5.783,5.7578,5.7446,5.7662,5.7856,5.8159,5.8421,5.873,5.9085,5.9183,5.9056,5.9107,5.8985,5.8855,5.8687,5.8687,5.8687,5.8687,5.8687,5.8687,5.8687,5.8687,5.8687,5.8687,5.8687,5.8687,5.8687,5.8687,5.8687,5.8687,5.8687,5.8687,5.8687,5.8687,5.8687,5.8882,5.9071,5.9309,5.9571,5.9872,6.0215,6.042,6.0597,6.0716,6.0781,6.0852,6.0886,6.0916,6.0905,6.0594,6.0129,5.9524,5.8897,5.7961,5.6991,5.6533,5.6151,5.5901,5.5689,5.5689,5.5735,5.5816,5.5885,5.5924,5.5957,5.6004,5.5994,5.5967,5.5876,5.5802,5.5837,5.5866,5.6251,5.699,5.7951,5.8866,6.1358,6.1185,5.9651,5.8995,5.8995,5.8995,5.8995,5.8995,5.8995,5.8995,5.8995,5.8995,5.8995,5.8995,5.8995,5.8995,5.8995,5.8995,5.8995,5.9012,5.9064,5.9064,5.9064,5.9064,5.9217,5.9352,5.9585,5.988,6.0262,6.0663,6.101,6.1182,6.1325,6.1397,6.1315,6.1293,6.0809,6.0266,5.9618,5.9177,5.8954,5.8995,5.924,5.9439,5.9648,5.9894,6.0206,6.0399,6.0488,6.0063,5.9798,5.9603,5.9152,5.8706,5.8706,5.8687,5.8687,5.8687,5.8687,5.8687,5.8687,5.8687,5.8687,5.8687,5.8687,5.8687,5.8687,5.8687,5.8687,5.8687,5.8687,5.8687,5.8687,5.875,5.8892,5.9111,5.9381,5.9721,6.0155,6.0432,6.0565,6.0729,6.0746,6.0798,6.0816,6.0927,6.0938,6.0922,6.0501,5.9961,5.9249,5.8476,5.7362,5.6519,5.6181,5.5862,5.5805,5.5689,5.5689,5.574,5.5816,5.5871,5.5938,5.5961,5.5994,5.5957,5.59,5.5826,5.5766,5.5761,5.5802,5.5866,5.6567,5.7546,5.8486,6.1841,6.1168,5.9651,5.8995,5.8995,5.8995,5.8995,5.8995,5.8995,5.8995,5.8995,5.8995,5.8995,5.8995,5.8995,5.8995,5.8995,5.8995,5.8995,5.9081,5.9149,5.9251,5.9285,5.9385,5.947,5.9602,5.9864,6.0372,6.0935,6.1332,6.1632,6.1887,6.1955,6.1914,6.1877,6.1877,6.1637,6.133,6.1172,6.0413,5.9736,5.9616,5.9678,5.9931,6.0144,6.0371,6.0578,6.06,6.0665,6.0544,6.0674,6.0317,5.9709,5.9077,5.8762,5.8687,5.8725,5.8687,5.8687,5.8687,5.8687,5.8687,5.8687,5.8687,5.8687,5.8687,5.8687,5.8687,5.8687,5.8687,5.8687,5.8687,5.8698,5.8791,5.8894,5.9168,5.9442,5.9922,6.0405,6.0571,6.0698,6.0759,6.0775,6.0793,6.081,6.0835,6.0835,6.0695,6.0258,5.974,5.8984,5.811,5.6763,5.5983,5.5747,5.5689,5.5689,5.5689,5.5689,5.5751,5.5821,5.5876,5.5938,5.5967,5.5967,5.5909,5.586,5.5785,5.573,5.5719,5.5756,5.5832,5.6073,5.6905,5.7843,6.2255,6.1651,6.0185,5.9323,5.903,5.8995,5.8995,5.8995,5.8995,5.8995,5.8995,5.8995,5.8995,5.8995,5.8995,5.8995,5.8995,5.8995,5.9064,5.9183,5.9352,5.9469,5.9569,5.9733,5.9847,5.9993,6.0466,6.101,6.1618,6.1892,6.2154,6.2423,6.2462,6.2436,6.2397,6.2305,6.2265,6.2247,6.2357,6.1792,6.0822,6.0974,6.1131,6.1262,6.133,6.1392,6.1508,6.1562,6.1437,6.1258,6.1088,6.0918,6.0337,5.9746,5.9337,5.9133,5.8985,5.8687,5.8687,5.8687,5.8687,5.8687,5.8687,5.8687,5.8687,5.8687,5.8687,5.8687,5.8687,5.8687,5.8687,5.8687,5.8687,5.8739,5.8944,5.9197,5.9635,6.0151,6.0439,6.0584,6.0692,6.0777,6.0787,6.0787,6.0798,6.0798,6.0787,6.0787,6.03,5.9608,5.8813,5.7929,5.6722,5.592,5.5728,5.5689,5.5689,5.5689,5.5689,5.5745,5.5792,5.5876,5.5938,5.5933,5.5914,5.5851,5.5801,5.574,5.5719,5.5714,5.5756,5.5826,5.6078,5.6319,5.7085,6.2531,6.2134,6.0771,5.9737,5.9064,5.8995,5.8995,5.8995,5.8995,5.8995,5.8995,5.8995,5.8995,5.8995,5.8995,5.8995,5.9012,5.9064,5.9166,5.9369,5.9602,5.9797,5.9991,6.0135,6.0341,6.0648,6.1066,6.16,6.2167,6.2404,6.2623,6.2848,6.2873,6.2818,6.273,6.2692,6.2679,6.2692,6.2768,6.2855,6.28,6.2818,6.2689,6.2776,6.2941,6.2947,6.2959,6.2855,6.2505,6.2103,6.1571,6.1397,6.0958,6.0359,5.9913,5.9598,5.9022,5.878,5.8687,5.8687,5.8687,5.8687,5.8687,5.8687,5.8687,5.8687,5.8687,5.8687,5.8687,5.8687,5.8687,5.8687,5.8687,5.8793,5.9033,5.929,5.9812,6.0301,6.0473,6.061,6.0692,6.0783,6.08,6.08,6.08,6.08,6.08,6.08,6.055,5.9704,5.889,5.805,5.7055,5.6382,5.5843,5.5689,5.5689,5.5689,5.5695,5.5745,5.5782,5.5861,5.5909,5.5905,5.5856,5.5836,5.5782,5.5726,5.5705,5.5689,5.573,5.5766,5.5815,5.6077,5.6424,6.2634,6.1444,6.0565,5.9754,5.9064,5.9012,5.8995,5.8995,5.9012,5.8995,5.903,5.9012,5.8995,5.8995,5.8995,5.9012,5.9064,5.9183,5.9369,5.9552,5.9959,6.0229,6.0481,6.0712,6.1028,6.1332,6.1638,6.2037,6.2521,6.2849,6.3099,6.326,6.3272,6.326,6.323,6.3159,6.3063,6.3075,6.3165,6.3248,6.3218,6.3171,6.3129,6.3177,6.326,6.3153,6.3075,6.2984,6.291,6.2669,6.2318,6.2138,6.17,6.099,6.0359,5.9932,5.9337,5.8873,5.878,5.8706,5.8687,5.8687,5.8687,5.8687,5.8687,5.8687,5.8687,5.8687,5.8687,5.8687,5.8687,5.8727,5.8748,5.8993,5.9234,5.955,5.9983,6.0316,6.0571,6.0648,6.0717,6.0777,6.08,6.08,6.08,6.08,6.08,6.0787,6.0721,5.9888,5.8998,5.8259,5.7442,5.6536,5.5862,5.5728,5.5689,5.5689,5.5695,5.5735,5.5771,5.5846,5.5885,5.5861,5.5861,5.5851,5.5792,5.5726,5.5705,5.5689,5.5689,5.5719,5.571,5.5817,5.6156]}]]